<?xml version="1.0" encoding="UTF-8" standalone="no" ?>
<gpx xmlns="http://www.topografix.com/GPX/1/1" xmlns:xsi="http://www.w3.org/2001/XMLSchema-instance" xsi:schemaLocation="http://www.topografix.com/GPX/1/1 http://www.topografix.com/GPX/1/1/gpx.xsd" version="1.1" creator="VisuGPX - https://www.visugpx.com">
  <metadata>
    <name>TOULOUSE - L'appel d'Albi (ATLAS)</name>
    <desc><![CDATA[De la petite route. Et des bosses. Vous croiserez très peu de voiture sur ce magnifique parcours.]]></desc>
  </metadata>
  <trk>
    <name><![CDATA[TOULOUSE - L'appel d'Albi (ATLAS)]]></name>
    <trkseg>
      <trkpt lat="43.60482" lon="1.44288">
        <ele>151.452026</ele>
        <time>2020-08-11T07:12:00.219Z</time>
      </trkpt>
      <trkpt lat="43.60488" lon="1.44284">
        <ele>151.452026</ele>
        <time>2020-08-11T07:12:01.845Z</time>
      </trkpt>
      <trkpt lat="43.60503" lon="1.4428">
        <ele>151.452026</ele>
        <time>2020-08-11T07:12:05.227Z</time>
      </trkpt>
      <trkpt lat="43.60509" lon="1.44279">
        <ele>151.452026</ele>
        <time>2020-08-11T07:12:06.672Z</time>
      </trkpt>
      <trkpt lat="43.60522" lon="1.44273">
        <ele>151.452026</ele>
        <time>2020-08-11T07:12:09.781Z</time>
      </trkpt>
      <trkpt lat="43.60558" lon="1.44266">
        <ele>151.452026</ele>
        <time>2020-08-11T07:12:18.227Z</time>
      </trkpt>
      <trkpt lat="43.60562" lon="1.44266">
        <ele>151.452026</ele>
        <time>2020-08-11T07:12:19.283Z</time>
      </trkpt>
      <trkpt lat="43.60583" lon="1.44261">
        <ele>151.444739</ele>
        <time>2020-08-11T07:12:24.231Z</time>
      </trkpt>
      <trkpt lat="43.60643" lon="1.44247">
        <ele>151.409794</ele>
        <time>2020-08-11T07:12:39.096Z</time>
      </trkpt>
      <trkpt lat="43.60656" lon="1.44242">
        <ele>151.401925</ele>
        <time>2020-08-11T07:12:42.259Z</time>
      </trkpt>
      <trkpt lat="43.60674" lon="1.44235">
        <ele>151.390981</ele>
        <time>2020-08-11T07:12:46.655Z</time>
      </trkpt>
      <trkpt lat="43.60701" lon="1.44226">
        <ele>151.375323</ele>
        <time>2020-08-11T07:12:52.687Z</time>
      </trkpt>
      <trkpt lat="43.60711" lon="1.44222">
        <ele>151.369138</ele>
        <time>2020-08-11T07:12:55.061Z</time>
      </trkpt>
      <trkpt lat="43.60723" lon="1.44217">
        <ele>151.361913</ele>
        <time>2020-08-11T07:12:57.792Z</time>
      </trkpt>
      <trkpt lat="43.60736" lon="1.44212">
        <ele>151.354577</ele>
        <time>2020-08-11T07:13:00.586Z</time>
      </trkpt>
      <trkpt lat="43.60756" lon="1.44204">
        <ele>151.313799</ele>
        <time>2020-08-11T07:13:05.247Z</time>
      </trkpt>
      <trkpt lat="43.60759" lon="1.44203">
        <ele>151.303562</ele>
        <time>2020-08-11T07:13:05.898Z</time>
      </trkpt>
      <trkpt lat="43.6076" lon="1.44202">
        <ele>151.297473</ele>
        <time>2020-08-11T07:13:06.270Z</time>
      </trkpt>
      <trkpt lat="43.60784" lon="1.44193">
        <ele>151.219194</ele>
        <time>2020-08-11T07:13:11.474Z</time>
      </trkpt>
      <trkpt lat="43.60789" lon="1.44192">
        <ele>151.202481</ele>
        <time>2020-08-11T07:13:12.505Z</time>
      </trkpt>
      <trkpt lat="43.60792" lon="1.44193">
        <ele>151.19005</ele>
        <time>2020-08-11T07:13:13.261Z</time>
      </trkpt>
      <trkpt lat="43.60795" lon="1.44197">
        <ele>151.176984</ele>
        <time>2020-08-11T07:13:14.010Z</time>
      </trkpt>
      <trkpt lat="43.60816" lon="1.44246">
        <ele>151.042276</ele>
        <time>2020-08-11T07:13:22.749Z</time>
      </trkpt>
      <trkpt lat="43.60819" lon="1.44252">
        <ele>151.02791</ele>
        <time>2020-08-11T07:13:23.636Z</time>
      </trkpt>
      <trkpt lat="43.60826" lon="1.44263">
        <ele>150.991028</ele>
        <time>2020-08-11T07:13:26.219Z</time>
      </trkpt>
      <trkpt lat="43.60839" lon="1.44275">
        <ele>150.940121</ele>
        <time>2020-08-11T07:13:29.572Z</time>
      </trkpt>
      <trkpt lat="43.60851" lon="1.44277">
        <ele>150.902087</ele>
        <time>2020-08-11T07:13:32.047Z</time>
      </trkpt>
      <trkpt lat="43.60858" lon="1.44278">
        <ele>150.87815</ele>
        <time>2020-08-11T07:13:33.705Z</time>
      </trkpt>
      <trkpt lat="43.60864" lon="1.44278">
        <ele>150.859264</ele>
        <time>2020-08-11T07:13:35.046Z</time>
      </trkpt>
      <trkpt lat="43.6087" lon="1.44294">
        <ele>150.816868</ele>
        <time>2020-08-11T07:13:37.686Z</time>
      </trkpt>
      <trkpt lat="43.60871" lon="1.44298">
        <ele>150.808089</ele>
        <time>2020-08-11T07:13:38.233Z</time>
      </trkpt>
      <trkpt lat="43.60885" lon="1.44349">
        <ele>150.692951</ele>
        <time>2020-08-11T07:13:46.529Z</time>
      </trkpt>
      <trkpt lat="43.60917" lon="1.44463">
        <ele>150.450442</ele>
        <time>2020-08-11T07:14:05.559Z</time>
      </trkpt>
      <trkpt lat="43.60921" lon="1.44477">
        <ele>150.421419</ele>
        <time>2020-08-11T07:14:07.677Z</time>
      </trkpt>
      <trkpt lat="43.60924" lon="1.44485">
        <ele>150.403598</ele>
        <time>2020-08-11T07:14:09.013Z</time>
      </trkpt>
      <trkpt lat="43.60927" lon="1.44494">
        <ele>150.385423</ele>
        <time>2020-08-11T07:14:10.522Z</time>
      </trkpt>
      <trkpt lat="43.6093" lon="1.445">
        <ele>150.369442</ele>
        <time>2020-08-11T07:14:11.880Z</time>
      </trkpt>
      <trkpt lat="43.60938" lon="1.44492">
        <ele>150.341982</ele>
        <time>2020-08-11T07:14:14.047Z</time>
      </trkpt>
      <trkpt lat="43.60966" lon="1.44465">
        <ele>150.211701</ele>
        <time>2020-08-11T07:14:21.824Z</time>
      </trkpt>
      <trkpt lat="43.60979" lon="1.44452">
        <ele>150.107216</ele>
        <time>2020-08-11T07:14:25.201Z</time>
      </trkpt>
      <trkpt lat="43.60994" lon="1.44436">
        <ele>149.981041</ele>
        <time>2020-08-11T07:14:29.272Z</time>
      </trkpt>
      <trkpt lat="43.60996" lon="1.44434">
        <ele>149.966653</ele>
        <time>2020-08-11T07:14:29.712Z</time>
      </trkpt>
      <trkpt lat="43.61" lon="1.44429">
        <ele>149.930416</ele>
        <time>2020-08-11T07:14:30.764Z</time>
      </trkpt>
      <trkpt lat="43.61012" lon="1.44415">
        <ele>149.819318</ele>
        <time>2020-08-11T07:14:34.118Z</time>
      </trkpt>
      <trkpt lat="43.61051" lon="1.44352">
        <ele>149.418871</ele>
        <time>2020-08-11T07:14:45.547Z</time>
      </trkpt>
      <trkpt lat="43.61056" lon="1.44343">
        <ele>149.363723</ele>
        <time>2020-08-11T07:14:47.106Z</time>
      </trkpt>
      <trkpt lat="43.61063" lon="1.44352">
        <ele>149.301297</ele>
        <time>2020-08-11T07:14:48.905Z</time>
      </trkpt>
      <trkpt lat="43.61076" lon="1.44367">
        <ele>149.184985</ele>
        <time>2020-08-11T07:14:52.273Z</time>
      </trkpt>
      <trkpt lat="43.6114" lon="1.44445">
        <ele>148.694657</ele>
        <time>2020-08-11T07:15:09.331Z</time>
      </trkpt>
      <trkpt lat="43.61172" lon="1.44482">
        <ele>148.46564</ele>
        <time>2020-08-11T07:15:17.863Z</time>
      </trkpt>
      <trkpt lat="43.61197" lon="1.44511">
        <ele>148.286175</ele>
        <time>2020-08-11T07:15:24.512Z</time>
      </trkpt>
      <trkpt lat="43.61213" lon="1.44528">
        <ele>148.176606</ele>
        <time>2020-08-11T07:15:28.688Z</time>
      </trkpt>
      <trkpt lat="43.61222" lon="1.44538">
        <ele>148.11304</ele>
        <time>2020-08-11T07:15:31.081Z</time>
      </trkpt>
      <trkpt lat="43.61221" lon="1.44548">
        <ele>148.079452</ele>
        <time>2020-08-11T07:15:32.589Z</time>
      </trkpt>
      <trkpt lat="43.61241" lon="1.44662">
        <ele>148.122316</ele>
        <time>2020-08-11T07:15:51.481Z</time>
      </trkpt>
      <trkpt lat="43.6125" lon="1.44728">
        <ele>148.14659</ele>
        <time>2020-08-11T07:16:01.630Z</time>
      </trkpt>
      <trkpt lat="43.61259" lon="1.44791">
        <ele>148.172753</ele>
        <time>2020-08-11T07:16:12.947Z</time>
      </trkpt>
      <trkpt lat="43.61261" lon="1.448">
        <ele>148.197514</ele>
        <time>2020-08-11T07:16:14.759Z</time>
      </trkpt>
      <trkpt lat="43.6127" lon="1.44861">
        <ele>148.361572</ele>
        <time>2020-08-11T07:16:26.618Z</time>
      </trkpt>
      <trkpt lat="43.61273" lon="1.44876">
        <ele>148.401017</ele>
        <time>2020-08-11T07:16:29.280Z</time>
      </trkpt>
      <trkpt lat="43.61282" lon="1.4489">
        <ele>148.452703</ele>
        <time>2020-08-11T07:16:33.192Z</time>
      </trkpt>
      <trkpt lat="43.61292" lon="1.44905">
        <ele>148.507598</ele>
        <time>2020-08-11T07:16:36.925Z</time>
      </trkpt>
      <trkpt lat="43.61306" lon="1.4493">
        <ele>148.588496</ele>
        <time>2020-08-11T07:16:42.381Z</time>
      </trkpt>
      <trkpt lat="43.61327" lon="1.4497">
        <ele>148.718252</ele>
        <time>2020-08-11T07:16:50.037Z</time>
      </trkpt>
      <trkpt lat="43.61337" lon="1.44988">
        <ele>148.778018</ele>
        <time>2020-08-11T07:16:53.546Z</time>
      </trkpt>
      <trkpt lat="43.61343" lon="1.44998">
        <ele>148.813445</ele>
        <time>2020-08-11T07:16:55.389Z</time>
      </trkpt>
      <trkpt lat="43.61368" lon="1.45044">
        <ele>148.504967</ele>
        <time>2020-08-11T07:17:04.397Z</time>
      </trkpt>
      <trkpt lat="43.61375" lon="1.45051">
        <ele>148.430269</ele>
        <time>2020-08-11T07:17:06.651Z</time>
      </trkpt>
      <trkpt lat="43.61379" lon="1.45056">
        <ele>148.386341</ele>
        <time>2020-08-11T07:17:07.829Z</time>
      </trkpt>
      <trkpt lat="43.61405" lon="1.45083">
        <ele>148.120736</ele>
        <time>2020-08-11T07:17:14.480Z</time>
      </trkpt>
      <trkpt lat="43.6141" lon="1.45093">
        <ele>148.044235</ele>
        <time>2020-08-11T07:17:16.341Z</time>
      </trkpt>
      <trkpt lat="43.61416" lon="1.45101">
        <ele>147.975926</ele>
        <time>2020-08-11T07:17:17.708Z</time>
      </trkpt>
      <trkpt lat="43.6149" lon="1.45185">
        <ele>147.165657</ele>
        <time>2020-08-11T07:17:35.740Z</time>
      </trkpt>
      <trkpt lat="43.615" lon="1.45197">
        <ele>147.037374</ele>
        <time>2020-08-11T07:17:37.961Z</time>
      </trkpt>
      <trkpt lat="43.61504" lon="1.45203">
        <ele>146.981083</ele>
        <time>2020-08-11T07:17:39.246Z</time>
      </trkpt>
      <trkpt lat="43.61544" lon="1.45251">
        <ele>146.478676</ele>
        <time>2020-08-11T07:17:49.265Z</time>
      </trkpt>
      <trkpt lat="43.61556" lon="1.45262">
        <ele>146.339636</ele>
        <time>2020-08-11T07:17:52.037Z</time>
      </trkpt>
      <trkpt lat="43.61595" lon="1.45306">
        <ele>145.868494</ele>
        <time>2020-08-11T07:18:02.221Z</time>
      </trkpt>
      <trkpt lat="43.616" lon="1.45312">
        <ele>145.804056</ele>
        <time>2020-08-11T07:18:03.610Z</time>
      </trkpt>
      <trkpt lat="43.61626" lon="1.45343">
        <ele>145.58227</ele>
        <time>2020-08-11T07:18:10.773Z</time>
      </trkpt>
      <trkpt lat="43.61629" lon="1.45346">
        <ele>145.569975</ele>
        <time>2020-08-11T07:18:11.533Z</time>
      </trkpt>
      <trkpt lat="43.6166" lon="1.45382">
        <ele>145.444849</ele>
        <time>2020-08-11T07:18:20.440Z</time>
      </trkpt>
      <trkpt lat="43.61677" lon="1.45398">
        <ele>145.382323</ele>
        <time>2020-08-11T07:18:24.938Z</time>
      </trkpt>
      <trkpt lat="43.61686" lon="1.45407">
        <ele>145.350471</ele>
        <time>2020-08-11T07:18:27.085Z</time>
      </trkpt>
      <trkpt lat="43.61707" lon="1.45431">
        <ele>145.265265</ele>
        <time>2020-08-11T07:18:32.977Z</time>
      </trkpt>
      <trkpt lat="43.61718" lon="1.45444">
        <ele>145.220542</ele>
        <time>2020-08-11T07:18:35.905Z</time>
      </trkpt>
      <trkpt lat="43.61735" lon="1.45462">
        <ele>145.156163</ele>
        <time>2020-08-11T07:18:40.264Z</time>
      </trkpt>
      <trkpt lat="43.61743" lon="1.4547">
        <ele>145.127059</ele>
        <time>2020-08-11T07:18:42.157Z</time>
      </trkpt>
      <trkpt lat="43.61746" lon="1.45461">
        <ele>145.104592</ele>
        <time>2020-08-11T07:18:43.638Z</time>
      </trkpt>
      <trkpt lat="43.61813" lon="1.45278">
        <ele>144.782562</ele>
        <time>2020-08-11T07:19:16.616Z</time>
      </trkpt>
      <trkpt lat="43.61817" lon="1.45278">
        <ele>144.775157</ele>
        <time>2020-08-11T07:19:17.384Z</time>
      </trkpt>
      <trkpt lat="43.61853" lon="1.45278">
        <ele>144.697891</ele>
        <time>2020-08-11T07:19:24.930Z</time>
      </trkpt>
      <trkpt lat="43.61874" lon="1.45271">
        <ele>144.506781</ele>
        <time>2020-08-11T07:19:29.266Z</time>
      </trkpt>
      <trkpt lat="43.61891" lon="1.45264">
        <ele>144.347499</ele>
        <time>2020-08-11T07:19:32.893Z</time>
      </trkpt>
      <trkpt lat="43.61905" lon="1.45258">
        <ele>144.21498</ele>
        <time>2020-08-11T07:19:35.859Z</time>
      </trkpt>
      <trkpt lat="43.61914" lon="1.45254">
        <ele>144.131012</ele>
        <time>2020-08-11T07:19:37.691Z</time>
      </trkpt>
      <trkpt lat="43.61925" lon="1.45252">
        <ele>144.032363</ele>
        <time>2020-08-11T07:19:39.847Z</time>
      </trkpt>
      <trkpt lat="43.61937" lon="1.45254">
        <ele>143.92558</ele>
        <time>2020-08-11T07:19:42.212Z</time>
      </trkpt>
      <trkpt lat="43.61939" lon="1.45254">
        <ele>143.913018</ele>
        <time>2020-08-11T07:19:42.474Z</time>
      </trkpt>
      <trkpt lat="43.61944" lon="1.45255">
        <ele>143.867781</ele>
        <time>2020-08-11T07:19:43.429Z</time>
      </trkpt>
      <trkpt lat="43.61979" lon="1.45279">
        <ele>143.521073</ele>
        <time>2020-08-11T07:19:50.919Z</time>
      </trkpt>
      <trkpt lat="43.62003" lon="1.45293">
        <ele>143.293017</ele>
        <time>2020-08-11T07:19:55.815Z</time>
      </trkpt>
      <trkpt lat="43.62013" lon="1.45297">
        <ele>143.197419</ele>
        <time>2020-08-11T07:19:57.843Z</time>
      </trkpt>
      <trkpt lat="43.62046" lon="1.45313">
        <ele>142.882845</ele>
        <time>2020-08-11T07:20:04.497Z</time>
      </trkpt>
      <trkpt lat="43.62069" lon="1.45321">
        <ele>142.665739</ele>
        <time>2020-08-11T07:20:09.079Z</time>
      </trkpt>
      <trkpt lat="43.62074" lon="1.45323">
        <ele>142.616412</ele>
        <time>2020-08-11T07:20:10.122Z</time>
      </trkpt>
      <trkpt lat="43.6211" lon="1.45332">
        <ele>142.284258</ele>
        <time>2020-08-11T07:20:17.118Z</time>
      </trkpt>
      <trkpt lat="43.62133" lon="1.45339">
        <ele>142.074281</ele>
        <time>2020-08-11T07:20:21.548Z</time>
      </trkpt>
      <trkpt lat="43.62162" lon="1.45348">
        <ele>141.801873</ele>
        <time>2020-08-11T07:20:27.472Z</time>
      </trkpt>
      <trkpt lat="43.62191" lon="1.45355">
        <ele>141.535871</ele>
        <time>2020-08-11T07:20:33.345Z</time>
      </trkpt>
      <trkpt lat="43.622" lon="1.45357">
        <ele>141.472496</ele>
        <time>2020-08-11T07:20:35.085Z</time>
      </trkpt>
      <trkpt lat="43.62232" lon="1.45366">
        <ele>141.437535</ele>
        <time>2020-08-11T07:20:41.819Z</time>
      </trkpt>
      <trkpt lat="43.62253" lon="1.45372">
        <ele>141.413552</ele>
        <time>2020-08-11T07:20:46.555Z</time>
      </trkpt>
      <trkpt lat="43.62277" lon="1.45383">
        <ele>141.386955</ele>
        <time>2020-08-11T07:20:51.994Z</time>
      </trkpt>
      <trkpt lat="43.62313" lon="1.45408">
        <ele>141.343607</ele>
        <time>2020-08-11T07:21:01.020Z</time>
      </trkpt>
      <trkpt lat="43.62318" lon="1.45423">
        <ele>141.330349</ele>
        <time>2020-08-11T07:21:03.679Z</time>
      </trkpt>
      <trkpt lat="43.62327" lon="1.45432">
        <ele>141.318242</ele>
        <time>2020-08-11T07:21:06.187Z</time>
      </trkpt>
      <trkpt lat="43.62357" lon="1.45434">
        <ele>141.285671</ele>
        <time>2020-08-11T07:21:13.094Z</time>
      </trkpt>
      <trkpt lat="43.62388" lon="1.45445">
        <ele>141.405568</ele>
        <time>2020-08-11T07:21:20.512Z</time>
      </trkpt>
      <trkpt lat="43.62401" lon="1.45451">
        <ele>141.468228</ele>
        <time>2020-08-11T07:21:23.672Z</time>
      </trkpt>
      <trkpt lat="43.62408" lon="1.45455">
        <ele>141.502869</ele>
        <time>2020-08-11T07:21:25.550Z</time>
      </trkpt>
      <trkpt lat="43.62446" lon="1.45474">
        <ele>141.682242</ele>
        <time>2020-08-11T07:21:34.900Z</time>
      </trkpt>
      <trkpt lat="43.62474" lon="1.45475">
        <ele>141.813964</ele>
        <time>2020-08-11T07:21:41.996Z</time>
      </trkpt>
      <trkpt lat="43.62483" lon="1.4548">
        <ele>141.857158</ele>
        <time>2020-08-11T07:21:45.088Z</time>
      </trkpt>
      <trkpt lat="43.62492" lon="1.45494">
        <ele>141.919341</ele>
        <time>2020-08-11T07:21:49.473Z</time>
      </trkpt>
      <trkpt lat="43.62499" lon="1.45501">
        <ele>141.954776</ele>
        <time>2020-08-11T07:21:51.438Z</time>
      </trkpt>
      <trkpt lat="43.62508" lon="1.4551">
        <ele>142.008403</ele>
        <time>2020-08-11T07:21:54.539Z</time>
      </trkpt>
      <trkpt lat="43.62523" lon="1.45521">
        <ele>142.083301</ele>
        <time>2020-08-11T07:21:58.810Z</time>
      </trkpt>
      <trkpt lat="43.62533" lon="1.45527">
        <ele>142.115374</ele>
        <time>2020-08-11T07:22:01.768Z</time>
      </trkpt>
      <trkpt lat="43.62538" lon="1.45526">
        <ele>142.125415</ele>
        <time>2020-08-11T07:22:03.193Z</time>
      </trkpt>
      <trkpt lat="43.62542" lon="1.45524">
        <ele>142.132304</ele>
        <time>2020-08-11T07:22:04.103Z</time>
      </trkpt>
      <trkpt lat="43.62547" lon="1.45531">
        <ele>142.146499</ele>
        <time>2020-08-11T07:22:06.034Z</time>
      </trkpt>
      <trkpt lat="43.62553" lon="1.45537">
        <ele>142.160559</ele>
        <time>2020-08-11T07:22:07.903Z</time>
      </trkpt>
      <trkpt lat="43.6257" lon="1.45548">
        <ele>142.197807</ele>
        <time>2020-08-11T07:22:12.723Z</time>
      </trkpt>
      <trkpt lat="43.62609" lon="1.45569">
        <ele>142.277145</ele>
        <time>2020-08-11T07:22:22.982Z</time>
      </trkpt>
      <trkpt lat="43.62697" lon="1.45618">
        <ele>142.412748</ele>
        <time>2020-08-11T07:22:44.716Z</time>
      </trkpt>
      <trkpt lat="43.62725" lon="1.45634">
        <ele>142.282946</ele>
        <time>2020-08-11T07:22:51.337Z</time>
      </trkpt>
      <trkpt lat="43.62754" lon="1.4565">
        <ele>142.149056</ele>
        <time>2020-08-11T07:22:57.956Z</time>
      </trkpt>
      <trkpt lat="43.628" lon="1.45678">
        <ele>141.934917</ele>
        <time>2020-08-11T07:23:08.851Z</time>
      </trkpt>
      <trkpt lat="43.62829" lon="1.45695">
        <ele>141.802805</ele>
        <time>2020-08-11T07:23:15.511Z</time>
      </trkpt>
      <trkpt lat="43.62885" lon="1.45731">
        <ele>141.629511</ele>
        <time>2020-08-11T07:23:28.652Z</time>
      </trkpt>
      <trkpt lat="43.62896" lon="1.45752">
        <ele>141.601918</ele>
        <time>2020-08-11T07:23:32.845Z</time>
      </trkpt>
      <trkpt lat="43.6293" lon="1.45796">
        <ele>141.534498</ele>
        <time>2020-08-11T07:23:43.135Z</time>
      </trkpt>
      <trkpt lat="43.62963" lon="1.45843">
        <ele>141.466025</ele>
        <time>2020-08-11T07:23:53.995Z</time>
      </trkpt>
      <trkpt lat="43.62993" lon="1.45891">
        <ele>141.427204</ele>
        <time>2020-08-11T07:24:05.348Z</time>
      </trkpt>
      <trkpt lat="43.63029" lon="1.45942">
        <ele>141.479509</ele>
        <time>2020-08-11T07:24:17.911Z</time>
      </trkpt>
      <trkpt lat="43.63065" lon="1.46022">
        <ele>141.548961</ele>
        <time>2020-08-11T07:24:33.880Z</time>
      </trkpt>
      <trkpt lat="43.63082" lon="1.46066">
        <ele>141.585429</ele>
        <time>2020-08-11T07:24:42.421Z</time>
      </trkpt>
      <trkpt lat="43.63102" lon="1.46125">
        <ele>141.484752</ele>
        <time>2020-08-11T07:24:53.365Z</time>
      </trkpt>
      <trkpt lat="43.63158" lon="1.46245">
        <ele>141.148053</ele>
        <time>2020-08-11T07:25:16.072Z</time>
      </trkpt>
      <trkpt lat="43.63157" lon="1.46252">
        <ele>141.130102</ele>
        <time>2020-08-11T07:25:17.138Z</time>
      </trkpt>
      <trkpt lat="43.63187" lon="1.46273">
        <ele>141.019863</ele>
        <time>2020-08-11T07:25:24.020Z</time>
      </trkpt>
      <trkpt lat="43.63186" lon="1.46279">
        <ele>141.002666</ele>
        <time>2020-08-11T07:25:24.942Z</time>
      </trkpt>
      <trkpt lat="43.63188" lon="1.46298">
        <ele>140.943622</ele>
        <time>2020-08-11T07:25:28.006Z</time>
      </trkpt>
      <trkpt lat="43.63205" lon="1.46351">
        <ele>140.767326</ele>
        <time>2020-08-11T07:25:36.856Z</time>
      </trkpt>
      <trkpt lat="43.63227" lon="1.46403">
        <ele>140.582081</ele>
        <time>2020-08-11T07:25:46.123Z</time>
      </trkpt>
      <trkpt lat="43.63238" lon="1.46429">
        <ele>140.486944</ele>
        <time>2020-08-11T07:25:50.864Z</time>
      </trkpt>
      <trkpt lat="43.63243" lon="1.4644">
        <ele>140.446741</ele>
        <time>2020-08-11T07:25:53.084Z</time>
      </trkpt>
      <trkpt lat="43.63259" lon="1.46476">
        <ele>140.318793</ele>
        <time>2020-08-11T07:25:59.842Z</time>
      </trkpt>
      <trkpt lat="43.63275" lon="1.4651">
        <ele>140.238559</ele>
        <time>2020-08-11T07:26:06.492Z</time>
      </trkpt>
      <trkpt lat="43.63293" lon="1.46552">
        <ele>140.215142</ele>
        <time>2020-08-11T07:26:14.611Z</time>
      </trkpt>
      <trkpt lat="43.63309" lon="1.46587">
        <ele>140.195375</ele>
        <time>2020-08-11T07:26:21.552Z</time>
      </trkpt>
      <trkpt lat="43.63323" lon="1.4663">
        <ele>140.172625</ele>
        <time>2020-08-11T07:26:29.501Z</time>
      </trkpt>
      <trkpt lat="43.63334" lon="1.46664">
        <ele>140.154642</ele>
        <time>2020-08-11T07:26:35.699Z</time>
      </trkpt>
      <trkpt lat="43.63391" lon="1.46828">
        <ele>139.967569</ele>
        <time>2020-08-11T07:27:05.696Z</time>
      </trkpt>
      <trkpt lat="43.63415" lon="1.46866">
        <ele>139.902687</ele>
        <time>2020-08-11T07:27:13.475Z</time>
      </trkpt>
      <trkpt lat="43.6343" lon="1.46886">
        <ele>139.866866</ele>
        <time>2020-08-11T07:27:17.771Z</time>
      </trkpt>
      <trkpt lat="43.63445" lon="1.46892">
        <ele>139.839435</ele>
        <time>2020-08-11T07:27:21.084Z</time>
      </trkpt>
      <trkpt lat="43.63528" lon="1.46895">
        <ele>139.729864</ele>
        <time>2020-08-11T07:27:39.083Z</time>
      </trkpt>
      <trkpt lat="43.63611" lon="1.47032">
        <ele>139.509252</ele>
        <time>2020-08-11T07:28:07.422Z</time>
      </trkpt>
      <trkpt lat="43.63617" lon="1.47044">
        <ele>139.449563</ele>
        <time>2020-08-11T07:28:09.941Z</time>
      </trkpt>
      <trkpt lat="43.63609" lon="1.47052">
        <ele>139.392939</ele>
        <time>2020-08-11T07:28:12.133Z</time>
      </trkpt>
      <trkpt lat="43.63565" lon="1.47096">
        <ele>139.090413</ele>
        <time>2020-08-11T07:28:23.612Z</time>
      </trkpt>
      <trkpt lat="43.63564" lon="1.47096">
        <ele>139.087897</ele>
        <time>2020-08-11T07:28:23.669Z</time>
      </trkpt>
      <trkpt lat="43.63539" lon="1.47113">
        <ele>138.933416</ele>
        <time>2020-08-11T07:28:29.220Z</time>
      </trkpt>
      <trkpt lat="43.6349" lon="1.47143">
        <ele>138.637506</ele>
        <time>2020-08-11T07:28:39.419Z</time>
      </trkpt>
      <trkpt lat="43.63486" lon="1.4715">
        <ele>138.602794</ele>
        <time>2020-08-11T07:28:40.668Z</time>
      </trkpt>
      <trkpt lat="43.63484" lon="1.47148">
        <ele>138.590094</ele>
        <time>2020-08-11T07:28:41.148Z</time>
      </trkpt>
      <trkpt lat="43.63478" lon="1.47151">
        <ele>138.555133</ele>
        <time>2020-08-11T07:28:42.447Z</time>
      </trkpt>
      <trkpt lat="43.63478" lon="1.47155">
        <ele>138.542364</ele>
        <time>2020-08-11T07:28:42.953Z</time>
      </trkpt>
      <trkpt lat="43.63479" lon="1.47158">
        <ele>138.527326</ele>
        <time>2020-08-11T07:28:43.510Z</time>
      </trkpt>
      <trkpt lat="43.63482" lon="1.4716">
        <ele>138.512022</ele>
        <time>2020-08-11T07:28:44.074Z</time>
      </trkpt>
      <trkpt lat="43.63485" lon="1.47159">
        <ele>138.496393</ele>
        <time>2020-08-11T07:28:44.621Z</time>
      </trkpt>
      <trkpt lat="43.63485" lon="1.47163">
        <ele>138.479646</ele>
        <time>2020-08-11T07:28:45.097Z</time>
      </trkpt>
      <trkpt lat="43.63494" lon="1.47178">
        <ele>138.401576</ele>
        <time>2020-08-11T07:28:48.041Z</time>
      </trkpt>
      <trkpt lat="43.63537" lon="1.47239">
        <ele>138.06555</ele>
        <time>2020-08-11T07:29:00.506Z</time>
      </trkpt>
      <trkpt lat="43.6354" lon="1.47243">
        <ele>138.045333</ele>
        <time>2020-08-11T07:29:01.247Z</time>
      </trkpt>
      <trkpt lat="43.63544" lon="1.47256">
        <ele>137.986016</ele>
        <time>2020-08-11T07:29:03.778Z</time>
      </trkpt>
      <trkpt lat="43.63548" lon="1.47267">
        <ele>137.939561</ele>
        <time>2020-08-11T07:29:05.754Z</time>
      </trkpt>
      <trkpt lat="43.63549" lon="1.47273">
        <ele>137.912369</ele>
        <time>2020-08-11T07:29:06.765Z</time>
      </trkpt>
      <trkpt lat="43.63551" lon="1.47282">
        <ele>137.875393</ele>
        <time>2020-08-11T07:29:07.926Z</time>
      </trkpt>
      <trkpt lat="43.63554" lon="1.47295">
        <ele>137.823618</ele>
        <time>2020-08-11T07:29:09.936Z</time>
      </trkpt>
      <trkpt lat="43.63555" lon="1.473">
        <ele>137.802996</ele>
        <time>2020-08-11T07:29:10.842Z</time>
      </trkpt>
      <trkpt lat="43.63556" lon="1.47305">
        <ele>137.779779</ele>
        <time>2020-08-11T07:29:11.808Z</time>
      </trkpt>
      <trkpt lat="43.63567" lon="1.47301">
        <ele>137.714961</ele>
        <time>2020-08-11T07:29:14.378Z</time>
      </trkpt>
      <trkpt lat="43.63586" lon="1.47294">
        <ele>137.611372</ele>
        <time>2020-08-11T07:29:18.183Z</time>
      </trkpt>
      <trkpt lat="43.6359" lon="1.47305">
        <ele>137.597361</ele>
        <time>2020-08-11T07:29:20.259Z</time>
      </trkpt>
      <trkpt lat="43.63599" lon="1.47328">
        <ele>137.567101</ele>
        <time>2020-08-11T07:29:24.236Z</time>
      </trkpt>
      <trkpt lat="43.63604" lon="1.47334">
        <ele>137.556928</ele>
        <time>2020-08-11T07:29:25.750Z</time>
      </trkpt>
      <trkpt lat="43.63613" lon="1.47346">
        <ele>137.537516</ele>
        <time>2020-08-11T07:29:28.673Z</time>
      </trkpt>
      <trkpt lat="43.63615" lon="1.47349">
        <ele>137.532998</ele>
        <time>2020-08-11T07:29:29.309Z</time>
      </trkpt>
      <trkpt lat="43.63738" lon="1.47526">
        <ele>137.123184</ele>
        <time>2020-08-11T07:30:08.246Z</time>
      </trkpt>
      <trkpt lat="43.63807" lon="1.47628">
        <ele>136.691309</ele>
        <time>2020-08-11T07:30:28.746Z</time>
      </trkpt>
      <trkpt lat="43.63813" lon="1.47637">
        <ele>136.653345</ele>
        <time>2020-08-11T07:30:30.484Z</time>
      </trkpt>
      <trkpt lat="43.63868" lon="1.47718">
        <ele>136.406508</ele>
        <time>2020-08-11T07:30:47.082Z</time>
      </trkpt>
      <trkpt lat="43.63877" lon="1.47731">
        <ele>136.374246</ele>
        <time>2020-08-11T07:30:49.754Z</time>
      </trkpt>
      <trkpt lat="43.63883" lon="1.47744">
        <ele>136.343614</ele>
        <time>2020-08-11T07:30:52.278Z</time>
      </trkpt>
      <trkpt lat="43.63886" lon="1.47753">
        <ele>136.324644</ele>
        <time>2020-08-11T07:30:53.744Z</time>
      </trkpt>
      <trkpt lat="43.63888" lon="1.47757">
        <ele>136.315759</ele>
        <time>2020-08-11T07:30:54.468Z</time>
      </trkpt>
      <trkpt lat="43.63891" lon="1.47766">
        <ele>136.297932</ele>
        <time>2020-08-11T07:30:55.922Z</time>
      </trkpt>
      <trkpt lat="43.63894" lon="1.47783">
        <ele>136.263376</ele>
        <time>2020-08-11T07:30:58.969Z</time>
      </trkpt>
      <trkpt lat="43.63895" lon="1.47825">
        <ele>136.184788</ele>
        <time>2020-08-11T07:31:05.378Z</time>
      </trkpt>
      <trkpt lat="43.63889" lon="1.47856">
        <ele>136.124164</ele>
        <time>2020-08-11T07:31:10.461Z</time>
      </trkpt>
      <trkpt lat="43.63883" lon="1.47872">
        <ele>136.091529</ele>
        <time>2020-08-11T07:31:13.380Z</time>
      </trkpt>
      <trkpt lat="43.63848" lon="1.47962">
        <ele>136.10134</ele>
        <time>2020-08-11T07:31:29.721Z</time>
      </trkpt>
      <trkpt lat="43.63845" lon="1.47976">
        <ele>136.102778</ele>
        <time>2020-08-11T07:31:32.286Z</time>
      </trkpt>
      <trkpt lat="43.63843" lon="1.47981">
        <ele>136.103328</ele>
        <time>2020-08-11T07:31:33.144Z</time>
      </trkpt>
      <trkpt lat="43.6383" lon="1.48097">
        <ele>136.114537</ele>
        <time>2020-08-11T07:31:52.158Z</time>
      </trkpt>
      <trkpt lat="43.63832" lon="1.48179">
        <ele>136.271622</ele>
        <time>2020-08-11T07:32:05.766Z</time>
      </trkpt>
      <trkpt lat="43.63832" lon="1.48192">
        <ele>136.299421</ele>
        <time>2020-08-11T07:32:07.859Z</time>
      </trkpt>
      <trkpt lat="43.63829" lon="1.48194">
        <ele>136.310673</ele>
        <time>2020-08-11T07:32:08.767Z</time>
      </trkpt>
      <trkpt lat="43.63824" lon="1.48205">
        <ele>136.338162</ele>
        <time>2020-08-11T07:32:11.055Z</time>
      </trkpt>
      <trkpt lat="43.63824" lon="1.48208">
        <ele>136.345117</ele>
        <time>2020-08-11T07:32:11.650Z</time>
      </trkpt>
      <trkpt lat="43.63825" lon="1.48213">
        <ele>136.356026</ele>
        <time>2020-08-11T07:32:12.541Z</time>
      </trkpt>
      <trkpt lat="43.63831" lon="1.48218">
        <ele>136.374054</ele>
        <time>2020-08-11T07:32:13.970Z</time>
      </trkpt>
      <trkpt lat="43.63834" lon="1.48218">
        <ele>136.384536</ele>
        <time>2020-08-11T07:32:14.750Z</time>
      </trkpt>
      <trkpt lat="43.63834" lon="1.4823">
        <ele>136.408496</ele>
        <time>2020-08-11T07:32:16.639Z</time>
      </trkpt>
      <trkpt lat="43.6384" lon="1.48266">
        <ele>136.48607</ele>
        <time>2020-08-11T07:32:22.999Z</time>
      </trkpt>
      <trkpt lat="43.63849" lon="1.48328">
        <ele>136.618797</ele>
        <time>2020-08-11T07:32:33.893Z</time>
      </trkpt>
      <trkpt lat="43.6386" lon="1.48356">
        <ele>136.749327</ele>
        <time>2020-08-11T07:32:39.701Z</time>
      </trkpt>
      <trkpt lat="43.63874" lon="1.48367">
        <ele>136.852514</ele>
        <time>2020-08-11T07:32:43.419Z</time>
      </trkpt>
      <trkpt lat="43.6388" lon="1.48371">
        <ele>136.899549</ele>
        <time>2020-08-11T07:32:45.257Z</time>
      </trkpt>
      <trkpt lat="43.63886" lon="1.48372">
        <ele>136.934859</ele>
        <time>2020-08-11T07:32:46.716Z</time>
      </trkpt>
      <trkpt lat="43.6396" lon="1.48386">
        <ele>137.431253</ele>
        <time>2020-08-11T07:33:06.329Z</time>
      </trkpt>
      <trkpt lat="43.64032" lon="1.48417">
        <ele>137.963706</ele>
        <time>2020-08-11T07:33:25.911Z</time>
      </trkpt>
      <trkpt lat="43.64142" lon="1.48464">
        <ele>138.949332</ele>
        <time>2020-08-11T07:33:56.235Z</time>
      </trkpt>
      <trkpt lat="43.64156" lon="1.48477">
        <ele>139.099477</ele>
        <time>2020-08-11T07:34:01.021Z</time>
      </trkpt>
      <trkpt lat="43.64158" lon="1.48502">
        <ele>139.254765</ele>
        <time>2020-08-11T07:34:05.962Z</time>
      </trkpt>
      <trkpt lat="43.64138" lon="1.4869">
        <ele>140.474316</ele>
        <time>2020-08-11T07:34:43.069Z</time>
      </trkpt>
      <trkpt lat="43.64129" lon="1.48784">
        <ele>141.002206</ele>
        <time>2020-08-11T07:35:00.907Z</time>
      </trkpt>
      <trkpt lat="43.64134" lon="1.48818">
        <ele>141.053137</ele>
        <time>2020-08-11T07:35:07.024Z</time>
      </trkpt>
      <trkpt lat="43.64191" lon="1.48932">
        <ele>141.253559</ele>
        <time>2020-08-11T07:35:29.486Z</time>
      </trkpt>
      <trkpt lat="43.64193" lon="1.48935">
        <ele>141.259506</ele>
        <time>2020-08-11T07:35:30.109Z</time>
      </trkpt>
      <trkpt lat="43.64196" lon="1.48939">
        <ele>141.26827</ele>
        <time>2020-08-11T07:35:31.142Z</time>
      </trkpt>
      <trkpt lat="43.64197" lon="1.48942">
        <ele>141.273001</ele>
        <time>2020-08-11T07:35:31.769Z</time>
      </trkpt>
      <trkpt lat="43.64205" lon="1.48949">
        <ele>141.291385</ele>
        <time>2020-08-11T07:35:33.814Z</time>
      </trkpt>
      <trkpt lat="43.64254" lon="1.48971">
        <ele>141.329481</ele>
        <time>2020-08-11T07:35:45.043Z</time>
      </trkpt>
      <trkpt lat="43.64257" lon="1.48972">
        <ele>141.328477</ele>
        <time>2020-08-11T07:35:45.693Z</time>
      </trkpt>
      <trkpt lat="43.64262" lon="1.48974">
        <ele>141.326914</ele>
        <time>2020-08-11T07:35:46.964Z</time>
      </trkpt>
      <trkpt lat="43.64273" lon="1.48979">
        <ele>141.323654</ele>
        <time>2020-08-11T07:35:49.562Z</time>
      </trkpt>
      <trkpt lat="43.64318" lon="1.48998">
        <ele>141.309556</ele>
        <time>2020-08-11T07:35:59.781Z</time>
      </trkpt>
      <trkpt lat="43.64326" lon="1.49005">
        <ele>141.306707</ele>
        <time>2020-08-11T07:36:01.701Z</time>
      </trkpt>
      <trkpt lat="43.64334" lon="1.49023">
        <ele>141.302009</ele>
        <time>2020-08-11T07:36:05.424Z</time>
      </trkpt>
      <trkpt lat="43.64338" lon="1.49034">
        <ele>141.299454</ele>
        <time>2020-08-11T07:36:07.195Z</time>
      </trkpt>
      <trkpt lat="43.64335" lon="1.49037">
        <ele>141.29842</ele>
        <time>2020-08-11T07:36:07.943Z</time>
      </trkpt>
      <trkpt lat="43.64333" lon="1.49048">
        <ele>141.295973</ele>
        <time>2020-08-11T07:36:09.571Z</time>
      </trkpt>
      <trkpt lat="43.64335" lon="1.49053">
        <ele>141.294935</ele>
        <time>2020-08-11T07:36:10.344Z</time>
      </trkpt>
      <trkpt lat="43.64327" lon="1.49061">
        <ele>141.291964</ele>
        <time>2020-08-11T07:36:12.422Z</time>
      </trkpt>
      <trkpt lat="43.64317" lon="1.4907">
        <ele>141.288482</ele>
        <time>2020-08-11T07:36:14.904Z</time>
      </trkpt>
      <trkpt lat="43.6424" lon="1.4914">
        <ele>141.757376</ele>
        <time>2020-08-11T07:36:36.915Z</time>
      </trkpt>
      <trkpt lat="43.64179" lon="1.49195">
        <ele>142.195879</ele>
        <time>2020-08-11T07:36:55.340Z</time>
      </trkpt>
      <trkpt lat="43.64161" lon="1.49212">
        <ele>142.328554</ele>
        <time>2020-08-11T07:37:00.998Z</time>
      </trkpt>
      <trkpt lat="43.64159" lon="1.49214">
        <ele>142.344517</ele>
        <time>2020-08-11T07:37:01.726Z</time>
      </trkpt>
      <trkpt lat="43.64147" lon="1.49224">
        <ele>142.480962</ele>
        <time>2020-08-11T07:37:05.105Z</time>
      </trkpt>
      <trkpt lat="43.64133" lon="1.49238">
        <ele>142.698465</ele>
        <time>2020-08-11T07:37:09.855Z</time>
      </trkpt>
      <trkpt lat="43.64105" lon="1.4928">
        <ele>143.196556</ele>
        <time>2020-08-11T07:37:20.723Z</time>
      </trkpt>
      <trkpt lat="43.64034" lon="1.49471">
        <ele>144.999325</ele>
        <time>2020-08-11T07:38:03.938Z</time>
      </trkpt>
      <trkpt lat="43.64031" lon="1.49475">
        <ele>145.040035</ele>
        <time>2020-08-11T07:38:05.284Z</time>
      </trkpt>
      <trkpt lat="43.64027" lon="1.49478">
        <ele>145.085561</ele>
        <time>2020-08-11T07:38:06.492Z</time>
      </trkpt>
      <trkpt lat="43.64022" lon="1.49478">
        <ele>145.135624</ele>
        <time>2020-08-11T07:38:07.747Z</time>
      </trkpt>
      <trkpt lat="43.64017" lon="1.49475">
        <ele>145.194773</ele>
        <time>2020-08-11T07:38:09.245Z</time>
      </trkpt>
      <trkpt lat="43.63939" lon="1.49394">
        <ele>146.164189</ele>
        <time>2020-08-11T07:38:35.175Z</time>
      </trkpt>
      <trkpt lat="43.63909" lon="1.49453">
        <ele>146.552139</ele>
        <time>2020-08-11T07:38:48.005Z</time>
      </trkpt>
      <trkpt lat="43.63911" lon="1.49473">
        <ele>146.639565</ele>
        <time>2020-08-11T07:38:51.745Z</time>
      </trkpt>
      <trkpt lat="43.63994" lon="1.49559">
        <ele>147.233742</ele>
        <time>2020-08-11T07:39:16.860Z</time>
      </trkpt>
      <trkpt lat="43.63999" lon="1.49576">
        <ele>147.310439</ele>
        <time>2020-08-11T07:39:20.039Z</time>
      </trkpt>
      <trkpt lat="43.63998" lon="1.49582">
        <ele>147.338757</ele>
        <time>2020-08-11T07:39:21.198Z</time>
      </trkpt>
      <trkpt lat="43.63967" lon="1.49642">
        <ele>147.609663</ele>
        <time>2020-08-11T07:39:34.740Z</time>
      </trkpt>
      <trkpt lat="43.63959" lon="1.49656">
        <ele>147.671093</ele>
        <time>2020-08-11T07:39:37.768Z</time>
      </trkpt>
      <trkpt lat="43.63951" lon="1.49673">
        <ele>147.741952</ele>
        <time>2020-08-11T07:39:41.465Z</time>
      </trkpt>
      <trkpt lat="43.63921" lon="1.49731">
        <ele>147.993959</ele>
        <time>2020-08-11T07:39:54.289Z</time>
      </trkpt>
      <trkpt lat="43.63915" lon="1.49744">
        <ele>148.048362</ele>
        <time>2020-08-11T07:39:56.729Z</time>
      </trkpt>
      <trkpt lat="43.63912" lon="1.49758">
        <ele>148.099135</ele>
        <time>2020-08-11T07:39:59.446Z</time>
      </trkpt>
      <trkpt lat="43.6391" lon="1.4977">
        <ele>148.145309</ele>
        <time>2020-08-11T07:40:01.814Z</time>
      </trkpt>
      <trkpt lat="43.63912" lon="1.49811">
        <ele>148.282368</ele>
        <time>2020-08-11T07:40:08.637Z</time>
      </trkpt>
      <trkpt lat="43.63936" lon="1.49917">
        <ele>148.288551</ele>
        <time>2020-08-11T07:40:26.139Z</time>
      </trkpt>
      <trkpt lat="43.63935" lon="1.49932">
        <ele>148.289363</ele>
        <time>2020-08-11T07:40:28.421Z</time>
      </trkpt>
      <trkpt lat="43.63933" lon="1.49945">
        <ele>148.29013</ele>
        <time>2020-08-11T07:40:30.639Z</time>
      </trkpt>
      <trkpt lat="43.63923" lon="1.49976">
        <ele>148.291998</ele>
        <time>2020-08-11T07:40:36.076Z</time>
      </trkpt>
      <trkpt lat="43.63895" lon="1.50015">
        <ele>148.295019</ele>
        <time>2020-08-11T07:40:44.672Z</time>
      </trkpt>
      <trkpt lat="43.63883" lon="1.50032">
        <ele>148.346848</ele>
        <time>2020-08-11T07:40:48.700Z</time>
      </trkpt>
      <trkpt lat="43.63879" lon="1.50038">
        <ele>148.426357</ele>
        <time>2020-08-11T07:40:49.985Z</time>
      </trkpt>
      <trkpt lat="43.63867" lon="1.50051">
        <ele>148.618496</ele>
        <time>2020-08-11T07:40:53.600Z</time>
      </trkpt>
      <trkpt lat="43.63861" lon="1.50056">
        <ele>148.717124</ele>
        <time>2020-08-11T07:40:55.412Z</time>
      </trkpt>
      <trkpt lat="43.63848" lon="1.50066">
        <ele>148.903281</ele>
        <time>2020-08-11T07:40:58.700Z</time>
      </trkpt>
      <trkpt lat="43.63841" lon="1.50066">
        <ele>149.003623</ele>
        <time>2020-08-11T07:41:00.740Z</time>
      </trkpt>
      <trkpt lat="43.63835" lon="1.50069">
        <ele>149.087865</ele>
        <time>2020-08-11T07:41:02.270Z</time>
      </trkpt>
      <trkpt lat="43.6383" lon="1.50074">
        <ele>149.171605</ele>
        <time>2020-08-11T07:41:03.847Z</time>
      </trkpt>
      <trkpt lat="43.63826" lon="1.50082">
        <ele>149.256679</ele>
        <time>2020-08-11T07:41:05.557Z</time>
      </trkpt>
      <trkpt lat="43.63825" lon="1.50091">
        <ele>149.336376</ele>
        <time>2020-08-11T07:41:07.072Z</time>
      </trkpt>
      <trkpt lat="43.63826" lon="1.50099">
        <ele>149.417264</ele>
        <time>2020-08-11T07:41:08.718Z</time>
      </trkpt>
      <trkpt lat="43.63823" lon="1.50101">
        <ele>149.462959</ele>
        <time>2020-08-11T07:41:09.954Z</time>
      </trkpt>
      <trkpt lat="43.6381" lon="1.50117">
        <ele>149.689121</ele>
        <time>2020-08-11T07:41:14.800Z</time>
      </trkpt>
      <trkpt lat="43.63787" lon="1.5012">
        <ele>149.989526</ele>
        <time>2020-08-11T07:41:21.556Z</time>
      </trkpt>
      <trkpt lat="43.63776" lon="1.50122">
        <ele>150.132715</ele>
        <time>2020-08-11T07:41:24.829Z</time>
      </trkpt>
      <trkpt lat="43.63762" lon="1.50118">
        <ele>150.324801</ele>
        <time>2020-08-11T07:41:29.134Z</time>
      </trkpt>
      <trkpt lat="43.63741" lon="1.50109">
        <ele>150.615435</ele>
        <time>2020-08-11T07:41:36.423Z</time>
      </trkpt>
      <trkpt lat="43.63724" lon="1.50102">
        <ele>151.153999</ele>
        <time>2020-08-11T07:41:41.875Z</time>
      </trkpt>
      <trkpt lat="43.63712" lon="1.50097">
        <ele>151.598343</ele>
        <time>2020-08-11T07:41:46.309Z</time>
      </trkpt>
      <trkpt lat="43.63699" lon="1.50093">
        <ele>152.01698</ele>
        <time>2020-08-11T07:41:50.444Z</time>
      </trkpt>
      <trkpt lat="43.63664" lon="1.50083">
        <ele>153.242186</ele>
        <time>2020-08-11T07:42:02.741Z</time>
      </trkpt>
      <trkpt lat="43.63544" lon="1.50053">
        <ele>157.510866</ele>
        <time>2020-08-11T07:42:48.606Z</time>
      </trkpt>
      <trkpt lat="43.635" lon="1.5005">
        <ele>159.418259</ele>
        <time>2020-08-11T07:43:06.344Z</time>
      </trkpt>
      <trkpt lat="43.63458" lon="1.50054">
        <ele>161.210797</ele>
        <time>2020-08-11T07:43:22.663Z</time>
      </trkpt>
      <trkpt lat="43.6345" lon="1.50055">
        <ele>161.548014</ele>
        <time>2020-08-11T07:43:26.643Z</time>
      </trkpt>
      <trkpt lat="43.63443" lon="1.50054">
        <ele>161.851711</ele>
        <time>2020-08-11T07:43:29.536Z</time>
      </trkpt>
      <trkpt lat="43.63425" lon="1.50055">
        <ele>162.629295</ele>
        <time>2020-08-11T07:43:35.945Z</time>
      </trkpt>
      <trkpt lat="43.63416" lon="1.50052">
        <ele>163.021329</ele>
        <time>2020-08-11T07:43:40.166Z</time>
      </trkpt>
      <trkpt lat="43.63413" lon="1.50048">
        <ele>163.209965</ele>
        <time>2020-08-11T07:43:42.121Z</time>
      </trkpt>
      <trkpt lat="43.6341" lon="1.50044">
        <ele>163.398903</ele>
        <time>2020-08-11T07:43:43.837Z</time>
      </trkpt>
      <trkpt lat="43.63406" lon="1.50041">
        <ele>163.578034</ele>
        <time>2020-08-11T07:43:45.366Z</time>
      </trkpt>
      <trkpt lat="43.63402" lon="1.5004">
        <ele>163.75653</ele>
        <time>2020-08-11T07:43:46.678Z</time>
      </trkpt>
      <trkpt lat="43.63398" lon="1.50041">
        <ele>163.932554</ele>
        <time>2020-08-11T07:43:48.192Z</time>
      </trkpt>
      <trkpt lat="43.63392" lon="1.50044">
        <ele>164.191914</ele>
        <time>2020-08-11T07:43:50.246Z</time>
      </trkpt>
      <trkpt lat="43.63389" lon="1.50047">
        <ele>164.384276</ele>
        <time>2020-08-11T07:43:52.204Z</time>
      </trkpt>
      <trkpt lat="43.63386" lon="1.50052">
        <ele>164.521362</ele>
        <time>2020-08-11T07:43:54.353Z</time>
      </trkpt>
      <trkpt lat="43.63384" lon="1.50058">
        <ele>164.653051</ele>
        <time>2020-08-11T07:43:56.289Z</time>
      </trkpt>
      <trkpt lat="43.63383" lon="1.50065">
        <ele>164.80059</ele>
        <time>2020-08-11T07:43:58.154Z</time>
      </trkpt>
      <trkpt lat="43.63384" lon="1.50072">
        <ele>164.948128</ele>
        <time>2020-08-11T07:43:59.893Z</time>
      </trkpt>
      <trkpt lat="43.63386" lon="1.50078">
        <ele>165.096928</ele>
        <time>2020-08-11T07:44:01.677Z</time>
      </trkpt>
      <trkpt lat="43.63384" lon="1.50091">
        <ele>165.368886</ele>
        <time>2020-08-11T07:44:05.290Z</time>
      </trkpt>
      <trkpt lat="43.63382" lon="1.50098">
        <ele>165.535152</ele>
        <time>2020-08-11T07:44:07.982Z</time>
      </trkpt>
      <trkpt lat="43.63377" lon="1.5011">
        <ele>165.840095</ele>
        <time>2020-08-11T07:44:12.224Z</time>
      </trkpt>
      <trkpt lat="43.63356" lon="1.50149">
        <ele>166.860793</ele>
        <time>2020-08-11T07:44:25.405Z</time>
      </trkpt>
      <trkpt lat="43.63348" lon="1.50166">
        <ele>167.291358</ele>
        <time>2020-08-11T07:44:30.190Z</time>
      </trkpt>
      <trkpt lat="43.63317" lon="1.50246">
        <ele>169.213044</ele>
        <time>2020-08-11T07:44:49.971Z</time>
      </trkpt>
      <trkpt lat="43.63313" lon="1.50261">
        <ele>169.553574</ele>
        <time>2020-08-11T07:44:53.397Z</time>
      </trkpt>
      <trkpt lat="43.6331" lon="1.50279">
        <ele>169.747967</ele>
        <time>2020-08-11T07:44:56.751Z</time>
      </trkpt>
      <trkpt lat="43.63308" lon="1.5029">
        <ele>169.827202</ele>
        <time>2020-08-11T07:44:59.210Z</time>
      </trkpt>
      <trkpt lat="43.63306" lon="1.50303">
        <ele>169.911453</ele>
        <time>2020-08-11T07:45:01.852Z</time>
      </trkpt>
      <trkpt lat="43.63294" lon="1.50447">
        <ele>170.873168</ele>
        <time>2020-08-11T07:45:28.893Z</time>
      </trkpt>
      <trkpt lat="43.63288" lon="1.50532">
        <ele>171.351976</ele>
        <time>2020-08-11T07:45:43.710Z</time>
      </trkpt>
      <trkpt lat="43.63286" lon="1.50557">
        <ele>171.411015</ele>
        <time>2020-08-11T07:45:48.276Z</time>
      </trkpt>
      <trkpt lat="43.63283" lon="1.50595">
        <ele>171.497658</ele>
        <time>2020-08-11T07:45:54.979Z</time>
      </trkpt>
      <trkpt lat="43.6328" lon="1.50623">
        <ele>171.561464</ele>
        <time>2020-08-11T07:45:59.842Z</time>
      </trkpt>
      <trkpt lat="43.63279" lon="1.50648">
        <ele>171.617089</ele>
        <time>2020-08-11T07:46:04.443Z</time>
      </trkpt>
      <trkpt lat="43.63277" lon="1.50663">
        <ele>171.651713</ele>
        <time>2020-08-11T07:46:07.074Z</time>
      </trkpt>
      <trkpt lat="43.63277" lon="1.50676">
        <ele>171.68124</ele>
        <time>2020-08-11T07:46:09.083Z</time>
      </trkpt>
      <trkpt lat="43.63276" lon="1.50687">
        <ele>171.705782</ele>
        <time>2020-08-11T07:46:11.057Z</time>
      </trkpt>
      <trkpt lat="43.63279" lon="1.50733">
        <ele>171.810881</ele>
        <time>2020-08-11T07:46:18.726Z</time>
      </trkpt>
      <trkpt lat="43.63302" lon="1.5081">
        <ele>171.458742</ele>
        <time>2020-08-11T07:46:31.925Z</time>
      </trkpt>
      <trkpt lat="43.6331" lon="1.50832">
        <ele>171.277804</ele>
        <time>2020-08-11T07:46:35.675Z</time>
      </trkpt>
      <trkpt lat="43.63316" lon="1.50851">
        <ele>171.128661</ele>
        <time>2020-08-11T07:46:38.666Z</time>
      </trkpt>
      <trkpt lat="43.6332" lon="1.50869">
        <ele>170.997701</ele>
        <time>2020-08-11T07:46:41.165Z</time>
      </trkpt>
      <trkpt lat="43.63327" lon="1.50966">
        <ele>170.284874</ele>
        <time>2020-08-11T07:46:54.483Z</time>
      </trkpt>
      <trkpt lat="43.63328" lon="1.51007">
        <ele>169.864157</ele>
        <time>2020-08-11T07:46:59.772Z</time>
      </trkpt>
      <trkpt lat="43.63328" lon="1.51048">
        <ele>169.060135</ele>
        <time>2020-08-11T07:47:05.003Z</time>
      </trkpt>
      <trkpt lat="43.63321" lon="1.51202">
        <ele>166.048163</ele>
        <time>2020-08-11T07:47:23.611Z</time>
      </trkpt>
      <trkpt lat="43.63302" lon="1.51377">
        <ele>161.737455</ele>
        <time>2020-08-11T07:47:44.386Z</time>
      </trkpt>
      <trkpt lat="43.63262" lon="1.51644">
        <ele>154.652354</ele>
        <time>2020-08-11T07:48:15.642Z</time>
      </trkpt>
      <trkpt lat="43.63252" lon="1.51719">
        <ele>152.689833</ele>
        <time>2020-08-11T07:48:24.452Z</time>
      </trkpt>
      <trkpt lat="43.63251" lon="1.51804">
        <ele>151.369714</ele>
        <time>2020-08-11T07:48:34.930Z</time>
      </trkpt>
      <trkpt lat="43.63254" lon="1.51823">
        <ele>151.103111</ele>
        <time>2020-08-11T07:48:37.279Z</time>
      </trkpt>
      <trkpt lat="43.63264" lon="1.5188">
        <ele>150.309123</ele>
        <time>2020-08-11T07:48:44.876Z</time>
      </trkpt>
      <trkpt lat="43.63272" lon="1.51922">
        <ele>149.72298</ele>
        <time>2020-08-11T07:48:50.643Z</time>
      </trkpt>
      <trkpt lat="43.63277" lon="1.51955">
        <ele>149.270848</ele>
        <time>2020-08-11T07:48:55.580Z</time>
      </trkpt>
      <trkpt lat="43.63284" lon="1.51999">
        <ele>149.009796</ele>
        <time>2020-08-11T07:49:02.192Z</time>
      </trkpt>
      <trkpt lat="43.63284" lon="1.52011">
        <ele>149.025947</ele>
        <time>2020-08-11T07:49:03.798Z</time>
      </trkpt>
      <trkpt lat="43.63285" lon="1.52022">
        <ele>149.041372</ele>
        <time>2020-08-11T07:49:05.394Z</time>
      </trkpt>
      <trkpt lat="43.63278" lon="1.52083">
        <ele>149.124681</ele>
        <time>2020-08-11T07:49:15.318Z</time>
      </trkpt>
      <trkpt lat="43.63271" lon="1.52114">
        <ele>149.169296</ele>
        <time>2020-08-11T07:49:20.941Z</time>
      </trkpt>
      <trkpt lat="43.63256" lon="1.52156">
        <ele>149.232696</ele>
        <time>2020-08-11T07:49:29.056Z</time>
      </trkpt>
      <trkpt lat="43.63242" lon="1.52197">
        <ele>149.294763</ele>
        <time>2020-08-11T07:49:37.300Z</time>
      </trkpt>
      <trkpt lat="43.63238" lon="1.52211">
        <ele>149.31531</ele>
        <time>2020-08-11T07:49:39.911Z</time>
      </trkpt>
      <trkpt lat="43.6323" lon="1.52244">
        <ele>150.077066</ele>
        <time>2020-08-11T07:49:46.718Z</time>
      </trkpt>
      <trkpt lat="43.63228" lon="1.52257">
        <ele>150.367161</ele>
        <time>2020-08-11T07:49:49.167Z</time>
      </trkpt>
      <trkpt lat="43.63226" lon="1.52268">
        <ele>150.614299</ele>
        <time>2020-08-11T07:49:51.298Z</time>
      </trkpt>
      <trkpt lat="43.63226" lon="1.52279">
        <ele>150.871936</ele>
        <time>2020-08-11T07:49:53.502Z</time>
      </trkpt>
      <trkpt lat="43.63225" lon="1.52291">
        <ele>151.122273</ele>
        <time>2020-08-11T07:49:55.993Z</time>
      </trkpt>
      <trkpt lat="43.63229" lon="1.52346">
        <ele>152.357919</ele>
        <time>2020-08-11T07:50:09.523Z</time>
      </trkpt>
      <trkpt lat="43.63258" lon="1.52502">
        <ele>156.535641</ele>
        <time>2020-08-11T07:50:57.462Z</time>
      </trkpt>
      <trkpt lat="43.63259" lon="1.52526">
        <ele>157.360713</ele>
        <time>2020-08-11T07:51:03.684Z</time>
      </trkpt>
      <trkpt lat="43.63257" lon="1.52536">
        <ele>157.713535</ele>
        <time>2020-08-11T07:51:07.499Z</time>
      </trkpt>
      <trkpt lat="43.63261" lon="1.52539">
        <ele>157.908779</ele>
        <time>2020-08-11T07:51:10.636Z</time>
      </trkpt>
      <trkpt lat="43.63305" lon="1.52622">
        <ele>161.452517</ele>
        <time>2020-08-11T07:51:42.231Z</time>
      </trkpt>
      <trkpt lat="43.6333" lon="1.52667">
        <ele>163.394428</ele>
        <time>2020-08-11T07:51:58.799Z</time>
      </trkpt>
      <trkpt lat="43.63372" lon="1.52749">
        <ele>164.871758</ele>
        <time>2020-08-11T07:52:24.367Z</time>
      </trkpt>
      <trkpt lat="43.63398" lon="1.52805">
        <ele>165.847084</ele>
        <time>2020-08-11T07:52:38.209Z</time>
      </trkpt>
      <trkpt lat="43.63424" lon="1.5286">
        <ele>166.816346</ele>
        <time>2020-08-11T07:52:50.148Z</time>
      </trkpt>
      <trkpt lat="43.63437" lon="1.52884">
        <ele>167.01423</ele>
        <time>2020-08-11T07:52:55.130Z</time>
      </trkpt>
      <trkpt lat="43.63448" lon="1.52902">
        <ele>166.953271</ele>
        <time>2020-08-11T07:52:58.904Z</time>
      </trkpt>
      <trkpt lat="43.63471" lon="1.52933">
        <ele>166.841669</ele>
        <time>2020-08-11T07:53:05.708Z</time>
      </trkpt>
      <trkpt lat="43.63512" lon="1.52987">
        <ele>166.639464</ele>
        <time>2020-08-11T07:53:17.658Z</time>
      </trkpt>
      <trkpt lat="43.63544" lon="1.53028">
        <ele>166.486592</ele>
        <time>2020-08-11T07:53:26.349Z</time>
      </trkpt>
      <trkpt lat="43.6358" lon="1.53085">
        <ele>166.039589</ele>
        <time>2020-08-11T07:53:37.052Z</time>
      </trkpt>
      <trkpt lat="43.63617" lon="1.53159">
        <ele>165.33339</ele>
        <time>2020-08-11T07:53:49.186Z</time>
      </trkpt>
      <trkpt lat="43.63659" lon="1.53295">
        <ele>164.538203</ele>
        <time>2020-08-11T07:54:09.676Z</time>
      </trkpt>
      <trkpt lat="43.63664" lon="1.53307">
        <ele>164.570566</ele>
        <time>2020-08-11T07:54:11.663Z</time>
      </trkpt>
      <trkpt lat="43.63669" lon="1.53319">
        <ele>164.599382</ele>
        <time>2020-08-11T07:54:13.673Z</time>
      </trkpt>
      <trkpt lat="43.63674" lon="1.53326">
        <ele>164.620633</ele>
        <time>2020-08-11T07:54:15.190Z</time>
      </trkpt>
      <trkpt lat="43.6368" lon="1.53332">
        <ele>164.642268</ele>
        <time>2020-08-11T07:54:16.722Z</time>
      </trkpt>
      <trkpt lat="43.63685" lon="1.53335">
        <ele>164.660663</ele>
        <time>2020-08-11T07:54:17.934Z</time>
      </trkpt>
      <trkpt lat="43.63699" lon="1.53322">
        <ele>164.712363</ele>
        <time>2020-08-11T07:54:21.474Z</time>
      </trkpt>
      <trkpt lat="43.63759" lon="1.53143">
        <ele>166.515883</ele>
        <time>2020-08-11T07:54:59.731Z</time>
      </trkpt>
      <trkpt lat="43.63834" lon="1.53044">
        <ele>169.91223</ele>
        <time>2020-08-11T07:55:37.098Z</time>
      </trkpt>
      <trkpt lat="43.63898" lon="1.52937">
        <ele>174.056803</ele>
        <time>2020-08-11T07:56:22.426Z</time>
      </trkpt>
      <trkpt lat="43.63928" lon="1.52907">
        <ele>175.687301</ele>
        <time>2020-08-11T07:56:37.358Z</time>
      </trkpt>
      <trkpt lat="43.63949" lon="1.52895">
        <ele>176.6938</ele>
        <time>2020-08-11T07:56:46.092Z</time>
      </trkpt>
      <trkpt lat="43.63972" lon="1.52895">
        <ele>177.707069</ele>
        <time>2020-08-11T07:56:54.164Z</time>
      </trkpt>
      <trkpt lat="43.63974" lon="1.529">
        <ele>177.876018</ele>
        <time>2020-08-11T07:56:55.492Z</time>
      </trkpt>
      <trkpt lat="43.63973" lon="1.52919">
        <ele>178.467921</ele>
        <time>2020-08-11T07:57:00.236Z</time>
      </trkpt>
      <trkpt lat="43.63973" lon="1.52937">
        <ele>178.96995</ele>
        <time>2020-08-11T07:57:05.343Z</time>
      </trkpt>
      <trkpt lat="43.63966" lon="1.52959">
        <ele>179.358343</ele>
        <time>2020-08-11T07:57:11.575Z</time>
      </trkpt>
      <trkpt lat="43.63923" lon="1.52984">
        <ele>180.421747</ele>
        <time>2020-08-11T07:57:28.136Z</time>
      </trkpt>
      <trkpt lat="43.63914" lon="1.53">
        <ele>180.746324</ele>
        <time>2020-08-11T07:57:33.280Z</time>
      </trkpt>
      <trkpt lat="43.63907" lon="1.53044">
        <ele>181.491301</ele>
        <time>2020-08-11T07:57:43.712Z</time>
      </trkpt>
      <trkpt lat="43.63904" lon="1.53067">
        <ele>181.869055</ele>
        <time>2020-08-11T07:57:48.047Z</time>
      </trkpt>
      <trkpt lat="43.63897" lon="1.53113">
        <ele>182.644218</ele>
        <time>2020-08-11T07:57:56.881Z</time>
      </trkpt>
      <trkpt lat="43.63811" lon="1.53478">
        <ele>187.445014</ele>
        <time>2020-08-11T07:59:22.247Z</time>
      </trkpt>
      <trkpt lat="43.63784" lon="1.53669">
        <ele>189.418863</ele>
        <time>2020-08-11T08:00:01.506Z</time>
      </trkpt>
      <trkpt lat="43.63769" lon="1.53736">
        <ele>190.037796</ele>
        <time>2020-08-11T08:00:14.839Z</time>
      </trkpt>
      <trkpt lat="43.63747" lon="1.5384">
        <ele>190.99726</ele>
        <time>2020-08-11T08:00:37.005Z</time>
      </trkpt>
      <trkpt lat="43.6373" lon="1.53933">
        <ele>192.529361</ele>
        <time>2020-08-11T08:00:58.617Z</time>
      </trkpt>
      <trkpt lat="43.63717" lon="1.54002">
        <ele>193.717296</ele>
        <time>2020-08-11T08:01:15.563Z</time>
      </trkpt>
      <trkpt lat="43.63717" lon="1.5401">
        <ele>193.855161</ele>
        <time>2020-08-11T08:01:17.823Z</time>
      </trkpt>
      <trkpt lat="43.63717" lon="1.54012">
        <ele>193.884222</ele>
        <time>2020-08-11T08:01:18.261Z</time>
      </trkpt>
      <trkpt lat="43.63719" lon="1.54016">
        <ele>193.953563</ele>
        <time>2020-08-11T08:01:19.837Z</time>
      </trkpt>
      <trkpt lat="43.63727" lon="1.54024">
        <ele>194.197133</ele>
        <time>2020-08-11T08:01:23.166Z</time>
      </trkpt>
      <trkpt lat="43.6378" lon="1.54058">
        <ele>195.238474</ele>
        <time>2020-08-11T08:01:42.638Z</time>
      </trkpt>
      <trkpt lat="43.63802" lon="1.54075">
        <ele>195.326566</ele>
        <time>2020-08-11T08:01:51.059Z</time>
      </trkpt>
      <trkpt lat="43.63809" lon="1.54081">
        <ele>195.356707</ele>
        <time>2020-08-11T08:01:54.033Z</time>
      </trkpt>
      <trkpt lat="43.6382" lon="1.5409">
        <ele>195.399082</ele>
        <time>2020-08-11T08:01:58.716Z</time>
      </trkpt>
      <trkpt lat="43.6383" lon="1.54106">
        <ele>195.455612</ele>
        <time>2020-08-11T08:02:02.850Z</time>
      </trkpt>
      <trkpt lat="43.63843" lon="1.54148">
        <ele>195.568995</ele>
        <time>2020-08-11T08:02:11.858Z</time>
      </trkpt>
      <trkpt lat="43.63848" lon="1.54212">
        <ele>195.732358</ele>
        <time>2020-08-11T08:02:21.153Z</time>
      </trkpt>
      <trkpt lat="43.63866" lon="1.54237">
        <ele>195.781554</ele>
        <time>2020-08-11T08:02:25.615Z</time>
      </trkpt>
      <trkpt lat="43.63884" lon="1.54255">
        <ele>195.039231</ele>
        <time>2020-08-11T08:02:29.674Z</time>
      </trkpt>
      <trkpt lat="43.63916" lon="1.54283">
        <ele>193.837777</ele>
        <time>2020-08-11T08:02:35.658Z</time>
      </trkpt>
      <trkpt lat="43.63955" lon="1.54316">
        <ele>192.377558</ele>
        <time>2020-08-11T08:02:43.249Z</time>
      </trkpt>
      <trkpt lat="43.64003" lon="1.54355">
        <ele>190.616245</ele>
        <time>2020-08-11T08:02:52.688Z</time>
      </trkpt>
      <trkpt lat="43.6403" lon="1.54376">
        <ele>190.157674</ele>
        <time>2020-08-11T08:02:58.131Z</time>
      </trkpt>
      <trkpt lat="43.64042" lon="1.54385">
        <ele>190.241903</ele>
        <time>2020-08-11T08:03:00.487Z</time>
      </trkpt>
      <trkpt lat="43.64024" lon="1.5444">
        <ele>190.510586</ele>
        <time>2020-08-11T08:03:09.138Z</time>
      </trkpt>
      <trkpt lat="43.63995" lon="1.54499">
        <ele>190.826719</ele>
        <time>2020-08-11T08:03:22.923Z</time>
      </trkpt>
      <trkpt lat="43.63863" lon="1.54711">
        <ele>195.629158</ele>
        <time>2020-08-11T08:04:34.962Z</time>
      </trkpt>
      <trkpt lat="43.63806" lon="1.54824">
        <ele>197.844627</ele>
        <time>2020-08-11T08:05:06.568Z</time>
      </trkpt>
      <trkpt lat="43.63768" lon="1.549">
        <ele>199.025029</ele>
        <time>2020-08-11T08:05:25.400Z</time>
      </trkpt>
      <trkpt lat="43.63767" lon="1.54909">
        <ele>199.140935</ele>
        <time>2020-08-11T08:05:27.373Z</time>
      </trkpt>
      <trkpt lat="43.63767" lon="1.54915">
        <ele>199.218834</ele>
        <time>2020-08-11T08:05:28.440Z</time>
      </trkpt>
      <trkpt lat="43.63767" lon="1.54922">
        <ele>199.301831</ele>
        <time>2020-08-11T08:05:29.575Z</time>
      </trkpt>
      <trkpt lat="43.63766" lon="1.54932">
        <ele>199.437791</ele>
        <time>2020-08-11T08:05:31.932Z</time>
      </trkpt>
      <trkpt lat="43.63752" lon="1.54968">
        <ele>199.929422</ele>
        <time>2020-08-11T08:05:39.946Z</time>
      </trkpt>
      <trkpt lat="43.63708" lon="1.5504">
        <ele>200.72801</ele>
        <time>2020-08-11T08:05:58.567Z</time>
      </trkpt>
      <trkpt lat="43.63693" lon="1.55065">
        <ele>201.009768</ele>
        <time>2020-08-11T08:06:05.193Z</time>
      </trkpt>
      <trkpt lat="43.6364" lon="1.55214">
        <ele>202.153534</ele>
        <time>2020-08-11T08:06:37.118Z</time>
      </trkpt>
      <trkpt lat="43.63617" lon="1.55282">
        <ele>202.387283</ele>
        <time>2020-08-11T08:06:50.189Z</time>
      </trkpt>
      <trkpt lat="43.63606" lon="1.55315">
        <ele>202.501651</ele>
        <time>2020-08-11T08:06:56.392Z</time>
      </trkpt>
      <trkpt lat="43.63579" lon="1.55397">
        <ele>202.772501</ele>
        <time>2020-08-11T08:07:11.139Z</time>
      </trkpt>
      <trkpt lat="43.63561" lon="1.55447">
        <ele>202.804366</ele>
        <time>2020-08-11T08:07:19.918Z</time>
      </trkpt>
      <trkpt lat="43.63556" lon="1.55464">
        <ele>202.81492</ele>
        <time>2020-08-11T08:07:22.710Z</time>
      </trkpt>
      <trkpt lat="43.63523" lon="1.55613">
        <ele>202.904231</ele>
        <time>2020-08-11T08:07:47.630Z</time>
      </trkpt>
      <trkpt lat="43.63497" lon="1.55705">
        <ele>203.427373</ele>
        <time>2020-08-11T08:08:05.775Z</time>
      </trkpt>
      <trkpt lat="43.63495" lon="1.55712">
        <ele>203.474242</ele>
        <time>2020-08-11T08:08:07.502Z</time>
      </trkpt>
      <trkpt lat="43.63493" lon="1.55719">
        <ele>203.521679</ele>
        <time>2020-08-11T08:08:09.111Z</time>
      </trkpt>
      <trkpt lat="43.63481" lon="1.55734">
        <ele>203.6555</ele>
        <time>2020-08-11T08:08:12.692Z</time>
      </trkpt>
      <trkpt lat="43.6348" lon="1.55735">
        <ele>203.671377</ele>
        <time>2020-08-11T08:08:13.232Z</time>
      </trkpt>
      <trkpt lat="43.63477" lon="1.55736">
        <ele>203.693232</ele>
        <time>2020-08-11T08:08:13.882Z</time>
      </trkpt>
      <trkpt lat="43.63469" lon="1.55738">
        <ele>203.760192</ele>
        <time>2020-08-11T08:08:16.137Z</time>
      </trkpt>
      <trkpt lat="43.63461" lon="1.55738">
        <ele>203.829953</ele>
        <time>2020-08-11T08:08:18.579Z</time>
      </trkpt>
      <trkpt lat="43.63449" lon="1.55738">
        <ele>203.928215</ele>
        <time>2020-08-11T08:08:21.109Z</time>
      </trkpt>
      <trkpt lat="43.63445" lon="1.55737">
        <ele>203.964404</ele>
        <time>2020-08-11T08:08:22.246Z</time>
      </trkpt>
      <trkpt lat="43.63426" lon="1.55735">
        <ele>204.122105</ele>
        <time>2020-08-11T08:08:27.657Z</time>
      </trkpt>
      <trkpt lat="43.63405" lon="1.55726">
        <ele>204.305749</ele>
        <time>2020-08-11T08:08:32.875Z</time>
      </trkpt>
      <trkpt lat="43.63393" lon="1.55717">
        <ele>204.419086</ele>
        <time>2020-08-11T08:08:36.944Z</time>
      </trkpt>
      <trkpt lat="43.63364" lon="1.55694">
        <ele>204.650963</ele>
        <time>2020-08-11T08:08:45.711Z</time>
      </trkpt>
      <trkpt lat="43.6336" lon="1.5569">
        <ele>204.688666</ele>
        <time>2020-08-11T08:08:47.206Z</time>
      </trkpt>
      <trkpt lat="43.63355" lon="1.55688">
        <ele>204.7261</ele>
        <time>2020-08-11T08:08:48.441Z</time>
      </trkpt>
      <trkpt lat="43.63349" lon="1.55686">
        <ele>204.763857</ele>
        <time>2020-08-11T08:08:49.616Z</time>
      </trkpt>
      <trkpt lat="43.63344" lon="1.55687">
        <ele>204.799879</ele>
        <time>2020-08-11T08:08:51.041Z</time>
      </trkpt>
      <trkpt lat="43.63338" lon="1.55689">
        <ele>204.845792</ele>
        <time>2020-08-11T08:08:52.785Z</time>
      </trkpt>
      <trkpt lat="43.63334" lon="1.55693">
        <ele>204.877453</ele>
        <time>2020-08-11T08:08:54.166Z</time>
      </trkpt>
      <trkpt lat="43.63321" lon="1.55718">
        <ele>205.033308</ele>
        <time>2020-08-11T08:08:59.819Z</time>
      </trkpt>
      <trkpt lat="43.6331" lon="1.55757">
        <ele>205.24239</ele>
        <time>2020-08-11T08:09:07.446Z</time>
      </trkpt>
      <trkpt lat="43.63289" lon="1.55904">
        <ele>205.883044</ele>
        <time>2020-08-11T08:09:33.019Z</time>
      </trkpt>
      <trkpt lat="43.63253" lon="1.56087">
        <ele>206.511546</ele>
        <time>2020-08-11T08:10:06.615Z</time>
      </trkpt>
      <trkpt lat="43.6325" lon="1.56099">
        <ele>206.542869</ele>
        <time>2020-08-11T08:10:08.696Z</time>
      </trkpt>
      <trkpt lat="43.63247" lon="1.56109">
        <ele>206.572821</ele>
        <time>2020-08-11T08:10:10.657Z</time>
      </trkpt>
      <trkpt lat="43.63244" lon="1.56118">
        <ele>206.599989</ele>
        <time>2020-08-11T08:10:12.435Z</time>
      </trkpt>
      <trkpt lat="43.63237" lon="1.56134">
        <ele>206.647569</ele>
        <time>2020-08-11T08:10:15.694Z</time>
      </trkpt>
      <trkpt lat="43.63194" lon="1.56226">
        <ele>206.938286</ele>
        <time>2020-08-11T08:10:34.980Z</time>
      </trkpt>
      <trkpt lat="43.63093" lon="1.56474">
        <ele>206.965937</ele>
        <time>2020-08-11T08:11:20.864Z</time>
      </trkpt>
      <trkpt lat="43.63087" lon="1.56484">
        <ele>206.954487</ele>
        <time>2020-08-11T08:11:22.634Z</time>
      </trkpt>
      <trkpt lat="43.63077" lon="1.56498">
        <ele>206.936392</ele>
        <time>2020-08-11T08:11:25.565Z</time>
      </trkpt>
      <trkpt lat="43.63028" lon="1.56562">
        <ele>206.736718</ele>
        <time>2020-08-11T08:11:39.626Z</time>
      </trkpt>
      <trkpt lat="43.6298" lon="1.56671">
        <ele>206.440451</ele>
        <time>2020-08-11T08:11:58.724Z</time>
      </trkpt>
      <trkpt lat="43.62973" lon="1.56686">
        <ele>206.396926</ele>
        <time>2020-08-11T08:12:01.650Z</time>
      </trkpt>
      <trkpt lat="43.62969" lon="1.56692">
        <ele>206.379968</ele>
        <time>2020-08-11T08:12:02.871Z</time>
      </trkpt>
      <trkpt lat="43.62923" lon="1.56783">
        <ele>206.48139</ele>
        <time>2020-08-11T08:12:20.796Z</time>
      </trkpt>
      <trkpt lat="43.62875" lon="1.56887">
        <ele>206.650977</ele>
        <time>2020-08-11T08:12:41.532Z</time>
      </trkpt>
      <trkpt lat="43.62776" lon="1.57101">
        <ele>207.832995</ele>
        <time>2020-08-11T08:13:27.580Z</time>
      </trkpt>
      <trkpt lat="43.62757" lon="1.57156">
        <ele>208.232491</ele>
        <time>2020-08-11T08:13:39.261Z</time>
      </trkpt>
      <trkpt lat="43.62711" lon="1.57344">
        <ele>209.701797</ele>
        <time>2020-08-11T08:14:17.404Z</time>
      </trkpt>
      <trkpt lat="43.6268" lon="1.5744">
        <ele>210.403778</ele>
        <time>2020-08-11T08:14:37.335Z</time>
      </trkpt>
      <trkpt lat="43.62612" lon="1.57604">
        <ele>211.462053</ele>
        <time>2020-08-11T08:15:12.752Z</time>
      </trkpt>
      <trkpt lat="43.62553" lon="1.57771">
        <ele>211.669645</ele>
        <time>2020-08-11T08:15:44.493Z</time>
      </trkpt>
      <trkpt lat="43.62552" lon="1.57778">
        <ele>211.677683</ele>
        <time>2020-08-11T08:15:45.945Z</time>
      </trkpt>
      <trkpt lat="43.62553" lon="1.57785">
        <ele>211.685543</ele>
        <time>2020-08-11T08:15:46.871Z</time>
      </trkpt>
      <trkpt lat="43.62632" lon="1.57918">
        <ele>209.024959</ele>
        <time>2020-08-11T08:16:09.625Z</time>
      </trkpt>
      <trkpt lat="43.62681" lon="1.57995">
        <ele>206.995149</ele>
        <time>2020-08-11T08:16:21.411Z</time>
      </trkpt>
      <trkpt lat="43.62686" lon="1.58001">
        <ele>206.62209</ele>
        <time>2020-08-11T08:16:22.427Z</time>
      </trkpt>
      <trkpt lat="43.62732" lon="1.58055">
        <ele>203.239696</ele>
        <time>2020-08-11T08:16:31.468Z</time>
      </trkpt>
      <trkpt lat="43.62836" lon="1.58179">
        <ele>195.098412</ele>
        <time>2020-08-11T08:16:51.363Z</time>
      </trkpt>
      <trkpt lat="43.62856" lon="1.58216">
        <ele>192.857529</ele>
        <time>2020-08-11T08:16:56.146Z</time>
      </trkpt>
      <trkpt lat="43.62872" lon="1.58232">
        <ele>191.494695</ele>
        <time>2020-08-11T08:16:59.093Z</time>
      </trkpt>
      <trkpt lat="43.62898" lon="1.58257">
        <ele>189.336928</ele>
        <time>2020-08-11T08:17:03.692Z</time>
      </trkpt>
      <trkpt lat="43.6292" lon="1.58278">
        <ele>187.574093</ele>
        <time>2020-08-11T08:17:07.451Z</time>
      </trkpt>
      <trkpt lat="43.62985" lon="1.58348">
        <ele>182.580283</ele>
        <time>2020-08-11T08:17:19.330Z</time>
      </trkpt>
      <trkpt lat="43.63132" lon="1.5855">
        <ele>172.238834</ele>
        <time>2020-08-11T08:17:50.576Z</time>
      </trkpt>
      <trkpt lat="43.63313" lon="1.58727">
        <ele>165.28486</ele>
        <time>2020-08-11T08:18:27.091Z</time>
      </trkpt>
      <trkpt lat="43.63325" lon="1.58755">
        <ele>164.719771</ele>
        <time>2020-08-11T08:18:31.291Z</time>
      </trkpt>
      <trkpt lat="43.63331" lon="1.58813">
        <ele>163.731129</ele>
        <time>2020-08-11T08:18:39.179Z</time>
      </trkpt>
      <trkpt lat="43.63334" lon="1.58821">
        <ele>163.70885</ele>
        <time>2020-08-11T08:18:40.228Z</time>
      </trkpt>
      <trkpt lat="43.6334" lon="1.58827">
        <ele>163.681802</ele>
        <time>2020-08-11T08:18:41.640Z</time>
      </trkpt>
      <trkpt lat="43.63392" lon="1.58861">
        <ele>163.473569</ele>
        <time>2020-08-11T08:18:53.005Z</time>
      </trkpt>
      <trkpt lat="43.63407" lon="1.58881">
        <ele>163.397676</ele>
        <time>2020-08-11T08:18:57.254Z</time>
      </trkpt>
      <trkpt lat="43.63407" lon="1.58888">
        <ele>163.381553</ele>
        <time>2020-08-11T08:18:58.210Z</time>
      </trkpt>
      <trkpt lat="43.63406" lon="1.58893">
        <ele>163.367372</ele>
        <time>2020-08-11T08:18:59.142Z</time>
      </trkpt>
      <trkpt lat="43.63361" lon="1.58998">
        <ele>163.182694</ele>
        <time>2020-08-11T08:19:19.736Z</time>
      </trkpt>
      <trkpt lat="43.63309" lon="1.59137">
        <ele>164.093551</ele>
        <time>2020-08-11T08:19:48.999Z</time>
      </trkpt>
      <trkpt lat="43.63304" lon="1.59535">
        <ele>166.322816</ele>
        <time>2020-08-11T08:21:04.234Z</time>
      </trkpt>
      <trkpt lat="43.63303" lon="1.59545">
        <ele>166.333843</ele>
        <time>2020-08-11T08:21:06.086Z</time>
      </trkpt>
      <trkpt lat="43.63301" lon="1.59558">
        <ele>166.347997</ele>
        <time>2020-08-11T08:21:08.371Z</time>
      </trkpt>
      <trkpt lat="43.6318" lon="1.59937">
        <ele>166.106261</ele>
        <time>2020-08-11T08:22:12.302Z</time>
      </trkpt>
      <trkpt lat="43.63163" lon="1.5999">
        <ele>166.500285</ele>
        <time>2020-08-11T08:22:20.863Z</time>
      </trkpt>
      <trkpt lat="43.63192" lon="1.60026">
        <ele>166.866625</ele>
        <time>2020-08-11T08:22:29.452Z</time>
      </trkpt>
      <trkpt lat="43.63201" lon="1.60036">
        <ele>166.971661</ele>
        <time>2020-08-11T08:22:32.329Z</time>
      </trkpt>
      <trkpt lat="43.63238" lon="1.60085">
        <ele>167.450222</ele>
        <time>2020-08-11T08:22:46.802Z</time>
      </trkpt>
      <trkpt lat="43.63255" lon="1.60105">
        <ele>167.662279</ele>
        <time>2020-08-11T08:22:54.289Z</time>
      </trkpt>
      <trkpt lat="43.63272" lon="1.60121">
        <ele>168.544268</ele>
        <time>2020-08-11T08:23:01.158Z</time>
      </trkpt>
      <trkpt lat="43.63282" lon="1.60129">
        <ele>169.118735</ele>
        <time>2020-08-11T08:23:05.394Z</time>
      </trkpt>
      <trkpt lat="43.63297" lon="1.6014">
        <ele>170.00099</ele>
        <time>2020-08-11T08:23:11.780Z</time>
      </trkpt>
      <trkpt lat="43.63349" lon="1.60174">
        <ele>172.916989</ele>
        <time>2020-08-11T08:23:35.075Z</time>
      </trkpt>
      <trkpt lat="43.6343" lon="1.60225">
        <ele>177.73895</ele>
        <time>2020-08-11T08:24:18.114Z</time>
      </trkpt>
      <trkpt lat="43.63533" lon="1.60241">
        <ele>186.016043</ele>
        <time>2020-08-11T08:25:14.735Z</time>
      </trkpt>
      <trkpt lat="43.63534" lon="1.60241">
        <ele>186.064162</ele>
        <time>2020-08-11T08:25:15.613Z</time>
      </trkpt>
      <trkpt lat="43.63548" lon="1.60259">
        <ele>187.620464</ele>
        <time>2020-08-11T08:25:25.980Z</time>
      </trkpt>
      <trkpt lat="43.6355" lon="1.60277">
        <ele>188.665431</ele>
        <time>2020-08-11T08:25:31.547Z</time>
      </trkpt>
      <trkpt lat="43.63546" lon="1.60293">
        <ele>189.62488</ele>
        <time>2020-08-11T08:25:38.683Z</time>
      </trkpt>
      <trkpt lat="43.63542" lon="1.603">
        <ele>190.148299</ele>
        <time>2020-08-11T08:25:43.504Z</time>
      </trkpt>
      <trkpt lat="43.63537" lon="1.60307">
        <ele>190.742002</ele>
        <time>2020-08-11T08:25:46.643Z</time>
      </trkpt>
      <trkpt lat="43.63464" lon="1.60358">
        <ele>197.532067</ele>
        <time>2020-08-11T08:26:31.555Z</time>
      </trkpt>
      <trkpt lat="43.63451" lon="1.60382">
        <ele>199.318041</ele>
        <time>2020-08-11T08:26:45.956Z</time>
      </trkpt>
      <trkpt lat="43.63453" lon="1.60409">
        <ele>200.961008</ele>
        <time>2020-08-11T08:26:55.667Z</time>
      </trkpt>
      <trkpt lat="43.63468" lon="1.60429">
        <ele>202.7319</ele>
        <time>2020-08-11T08:27:08.298Z</time>
      </trkpt>
      <trkpt lat="43.63548" lon="1.6049">
        <ele>209.607007</ele>
        <time>2020-08-11T08:27:56.376Z</time>
      </trkpt>
      <trkpt lat="43.63611" lon="1.60555">
        <ele>215.097288</ele>
        <time>2020-08-11T08:28:37.969Z</time>
      </trkpt>
      <trkpt lat="43.63642" lon="1.60571">
        <ele>217.40449</ele>
        <time>2020-08-11T08:28:53.188Z</time>
      </trkpt>
      <trkpt lat="43.6365" lon="1.60571">
        <ele>217.934559</ele>
        <time>2020-08-11T08:28:57.938Z</time>
      </trkpt>
      <trkpt lat="43.63658" lon="1.60569">
        <ele>218.537977</ele>
        <time>2020-08-11T08:29:01.423Z</time>
      </trkpt>
      <trkpt lat="43.63733" lon="1.60514">
        <ele>220.603043</ele>
        <time>2020-08-11T08:29:33.929Z</time>
      </trkpt>
      <trkpt lat="43.63746" lon="1.60504">
        <ele>220.955908</ele>
        <time>2020-08-11T08:29:40.047Z</time>
      </trkpt>
      <trkpt lat="43.63757" lon="1.60493">
        <ele>221.271702</ele>
        <time>2020-08-11T08:29:43.723Z</time>
      </trkpt>
      <trkpt lat="43.63806" lon="1.60427">
        <ele>222.861244</ele>
        <time>2020-08-11T08:29:58.371Z</time>
      </trkpt>
      <trkpt lat="43.63871" lon="1.60339">
        <ele>221.153583</ele>
        <time>2020-08-11T08:30:14.629Z</time>
      </trkpt>
      <trkpt lat="43.63876" lon="1.60328">
        <ele>220.96723</ele>
        <time>2020-08-11T08:30:16.109Z</time>
      </trkpt>
      <trkpt lat="43.63887" lon="1.60278">
        <ele>220.259362</ele>
        <time>2020-08-11T08:30:22.527Z</time>
      </trkpt>
      <trkpt lat="43.63882" lon="1.60229">
        <ele>219.578303</ele>
        <time>2020-08-11T08:30:28.735Z</time>
      </trkpt>
      <trkpt lat="43.63871" lon="1.60185">
        <ele>219.232467</ele>
        <time>2020-08-11T08:30:34.660Z</time>
      </trkpt>
      <trkpt lat="43.63834" lon="1.60101">
        <ele>218.627207</ele>
        <time>2020-08-11T08:30:48.229Z</time>
      </trkpt>
      <trkpt lat="43.63831" lon="1.60082">
        <ele>218.505368</ele>
        <time>2020-08-11T08:30:51.957Z</time>
      </trkpt>
      <trkpt lat="43.63846" lon="1.59989">
        <ele>217.949305</ele>
        <time>2020-08-11T08:31:06.874Z</time>
      </trkpt>
      <trkpt lat="43.63874" lon="1.59916">
        <ele>218.179979</ele>
        <time>2020-08-11T08:31:19.148Z</time>
      </trkpt>
      <trkpt lat="43.63877" lon="1.59912">
        <ele>218.196045</ele>
        <time>2020-08-11T08:31:21.420Z</time>
      </trkpt>
      <trkpt lat="43.63874" lon="1.59907">
        <ele>218.213086</ele>
        <time>2020-08-11T08:31:22.276Z</time>
      </trkpt>
      <trkpt lat="43.63872" lon="1.59904">
        <ele>218.224899</ele>
        <time>2020-08-11T08:31:22.844Z</time>
      </trkpt>
      <trkpt lat="43.63862" lon="1.59896">
        <ele>218.26815</ele>
        <time>2020-08-11T08:31:24.913Z</time>
      </trkpt>
      <trkpt lat="43.6385" lon="1.59887">
        <ele>218.322256</ele>
        <time>2020-08-11T08:31:27.910Z</time>
      </trkpt>
      <trkpt lat="43.63833" lon="1.59865">
        <ele>218.411453</ele>
        <time>2020-08-11T08:31:33.830Z</time>
      </trkpt>
      <trkpt lat="43.63811" lon="1.59838">
        <ele>218.527588</ele>
        <time>2020-08-11T08:31:42.364Z</time>
      </trkpt>
      <trkpt lat="43.63772" lon="1.5979">
        <ele>218.966562</ele>
        <time>2020-08-11T08:31:56.088Z</time>
      </trkpt>
      <trkpt lat="43.63765" lon="1.59778">
        <ele>219.111577</ele>
        <time>2020-08-11T08:31:59.996Z</time>
      </trkpt>
      <trkpt lat="43.63753" lon="1.59745">
        <ele>219.471584</ele>
        <time>2020-08-11T08:32:05.837Z</time>
      </trkpt>
      <trkpt lat="43.63753" lon="1.59735">
        <ele>219.569273</ele>
        <time>2020-08-11T08:32:07.658Z</time>
      </trkpt>
      <trkpt lat="43.63754" lon="1.59728">
        <ele>219.640471</ele>
        <time>2020-08-11T08:32:08.982Z</time>
      </trkpt>
      <trkpt lat="43.63755" lon="1.5972">
        <ele>219.720537</ele>
        <time>2020-08-11T08:32:10.480Z</time>
      </trkpt>
      <trkpt lat="43.63779" lon="1.59724">
        <ele>220.038116</ele>
        <time>2020-08-11T08:32:17.510Z</time>
      </trkpt>
      <trkpt lat="43.63782" lon="1.59682">
        <ele>220.446268</ele>
        <time>2020-08-11T08:32:26.867Z</time>
      </trkpt>
      <trkpt lat="43.6382" lon="1.59516">
        <ele>221.15611</ele>
        <time>2020-08-11T08:33:04.137Z</time>
      </trkpt>
      <trkpt lat="43.63821" lon="1.59508">
        <ele>221.162918</ele>
        <time>2020-08-11T08:33:05.618Z</time>
      </trkpt>
      <trkpt lat="43.63822" lon="1.59501">
        <ele>221.16925</ele>
        <time>2020-08-11T08:33:06.775Z</time>
      </trkpt>
      <trkpt lat="43.63823" lon="1.59486">
        <ele>221.181536</ele>
        <time>2020-08-11T08:33:08.960Z</time>
      </trkpt>
      <trkpt lat="43.63829" lon="1.59486">
        <ele>221.189636</ele>
        <time>2020-08-11T08:33:10.261Z</time>
      </trkpt>
      <trkpt lat="43.63837" lon="1.59489">
        <ele>221.199098</ele>
        <time>2020-08-11T08:33:11.843Z</time>
      </trkpt>
      <trkpt lat="43.63856" lon="1.59501">
        <ele>221.223692</ele>
        <time>2020-08-11T08:33:16.158Z</time>
      </trkpt>
      <trkpt lat="43.63918" lon="1.5954">
        <ele>220.764623</ele>
        <time>2020-08-11T08:33:29.299Z</time>
      </trkpt>
      <trkpt lat="43.63964" lon="1.59571">
        <ele>219.71882</ele>
        <time>2020-08-11T08:33:38.882Z</time>
      </trkpt>
      <trkpt lat="43.64218" lon="1.59734">
        <ele>213.807879</ele>
        <time>2020-08-11T08:34:29.567Z</time>
      </trkpt>
      <trkpt lat="43.64232" lon="1.59727">
        <ele>213.682615</ele>
        <time>2020-08-11T08:34:32.347Z</time>
      </trkpt>
      <trkpt lat="43.64241" lon="1.59684">
        <ele>213.487562</ele>
        <time>2020-08-11T08:34:38.484Z</time>
      </trkpt>
      <trkpt lat="43.64252" lon="1.59675">
        <ele>213.409913</ele>
        <time>2020-08-11T08:34:40.966Z</time>
      </trkpt>
      <trkpt lat="43.64323" lon="1.59672">
        <ele>212.977501</ele>
        <time>2020-08-11T08:34:55.674Z</time>
      </trkpt>
      <trkpt lat="43.64369" lon="1.59653">
        <ele>212.681701</ele>
        <time>2020-08-11T08:35:07.428Z</time>
      </trkpt>
      <trkpt lat="43.64427" lon="1.59648">
        <ele>213.906625</ele>
        <time>2020-08-11T08:35:24.184Z</time>
      </trkpt>
      <trkpt lat="43.64474" lon="1.59682">
        <ele>215.112316</ele>
        <time>2020-08-11T08:35:41.715Z</time>
      </trkpt>
      <trkpt lat="43.64589" lon="1.59787">
        <ele>218.253296</ele>
        <time>2020-08-11T08:36:31.452Z</time>
      </trkpt>
      <trkpt lat="43.64636" lon="1.59809">
        <ele>219.383116</ele>
        <time>2020-08-11T08:36:47.651Z</time>
      </trkpt>
      <trkpt lat="43.64643" lon="1.59813">
        <ele>219.555818</ele>
        <time>2020-08-11T08:36:50.601Z</time>
      </trkpt>
      <trkpt lat="43.64648" lon="1.59815">
        <ele>219.676954</ele>
        <time>2020-08-11T08:36:52.044Z</time>
      </trkpt>
      <trkpt lat="43.64669" lon="1.59819">
        <ele>220.169524</ele>
        <time>2020-08-11T08:36:58.033Z</time>
      </trkpt>
      <trkpt lat="43.64804" lon="1.59801">
        <ele>221.236861</ele>
        <time>2020-08-11T08:37:32.205Z</time>
      </trkpt>
      <trkpt lat="43.6491" lon="1.59839">
        <ele>221.428486</ele>
        <time>2020-08-11T08:37:55.245Z</time>
      </trkpt>
      <trkpt lat="43.64965" lon="1.59819">
        <ele>221.31715</ele>
        <time>2020-08-11T08:38:07.569Z</time>
      </trkpt>
      <trkpt lat="43.6512" lon="1.5991">
        <ele>220.759813</ele>
        <time>2020-08-11T08:38:43.674Z</time>
      </trkpt>
      <trkpt lat="43.65127" lon="1.5991">
        <ele>220.727244</ele>
        <time>2020-08-11T08:38:45.327Z</time>
      </trkpt>
      <trkpt lat="43.65136" lon="1.59907">
        <ele>220.678701</ele>
        <time>2020-08-11T08:38:47.202Z</time>
      </trkpt>
      <trkpt lat="43.65248" lon="1.59776">
        <ele>219.892069</ele>
        <time>2020-08-11T08:39:16.385Z</time>
      </trkpt>
      <trkpt lat="43.65389" lon="1.59568">
        <ele>218.913345</ele>
        <time>2020-08-11T08:39:58.558Z</time>
      </trkpt>
      <trkpt lat="43.65422" lon="1.59461">
        <ele>218.66482</ele>
        <time>2020-08-11T08:40:16.906Z</time>
      </trkpt>
      <trkpt lat="43.65482" lon="1.5933">
        <ele>218.601184</ele>
        <time>2020-08-11T08:40:42.159Z</time>
      </trkpt>
      <trkpt lat="43.65645" lon="1.59105">
        <ele>218.181262</ele>
        <time>2020-08-11T08:41:32.226Z</time>
      </trkpt>
      <trkpt lat="43.65656" lon="1.59097">
        <ele>218.148962</ele>
        <time>2020-08-11T08:41:34.901Z</time>
      </trkpt>
      <trkpt lat="43.65662" lon="1.59096">
        <ele>218.133796</ele>
        <time>2020-08-11T08:41:36.175Z</time>
      </trkpt>
      <trkpt lat="43.65668" lon="1.59096">
        <ele>218.113075</ele>
        <time>2020-08-11T08:41:37.291Z</time>
      </trkpt>
      <trkpt lat="43.65709" lon="1.59135">
        <ele>217.799368</ele>
        <time>2020-08-11T08:41:47.142Z</time>
      </trkpt>
      <trkpt lat="43.65785" lon="1.59209">
        <ele>217.204691</ele>
        <time>2020-08-11T08:42:05.239Z</time>
      </trkpt>
      <trkpt lat="43.65822" lon="1.59248">
        <ele>217.054788</ele>
        <time>2020-08-11T08:42:15.102Z</time>
      </trkpt>
      <trkpt lat="43.65835" lon="1.59264">
        <ele>217.182177</ele>
        <time>2020-08-11T08:42:18.585Z</time>
      </trkpt>
      <trkpt lat="43.65855" lon="1.593">
        <ele>217.425469</ele>
        <time>2020-08-11T08:42:26.413Z</time>
      </trkpt>
      <trkpt lat="43.65883" lon="1.59361">
        <ele>217.80226</ele>
        <time>2020-08-11T08:42:40.252Z</time>
      </trkpt>
      <trkpt lat="43.65894" lon="1.5939">
        <ele>217.974081</ele>
        <time>2020-08-11T08:42:46.230Z</time>
      </trkpt>
      <trkpt lat="43.65898" lon="1.59402">
        <ele>218.0423</ele>
        <time>2020-08-11T08:42:49.445Z</time>
      </trkpt>
      <trkpt lat="43.65901" lon="1.59434">
        <ele>218.216487</ele>
        <time>2020-08-11T08:42:55.679Z</time>
      </trkpt>
      <trkpt lat="43.65896" lon="1.59468">
        <ele>218.354454</ele>
        <time>2020-08-11T08:43:03.210Z</time>
      </trkpt>
      <trkpt lat="43.65882" lon="1.59542">
        <ele>218.593983</ele>
        <time>2020-08-11T08:43:18.412Z</time>
      </trkpt>
      <trkpt lat="43.65879" lon="1.59562">
        <ele>218.658347</ele>
        <time>2020-08-11T08:43:22.664Z</time>
      </trkpt>
      <trkpt lat="43.6588" lon="1.59621">
        <ele>218.84385</ele>
        <time>2020-08-11T08:43:33.345Z</time>
      </trkpt>
      <trkpt lat="43.65899" lon="1.5978">
        <ele>217.502071</ele>
        <time>2020-08-11T08:43:55.311Z</time>
      </trkpt>
      <trkpt lat="43.65899" lon="1.59877">
        <ele>215.812674</ele>
        <time>2020-08-11T08:44:06.777Z</time>
      </trkpt>
      <trkpt lat="43.65907" lon="1.59967">
        <ele>214.100965</ele>
        <time>2020-08-11T08:44:17.420Z</time>
      </trkpt>
      <trkpt lat="43.65923" lon="1.60031">
        <ele>212.615847</ele>
        <time>2020-08-11T08:44:25.591Z</time>
      </trkpt>
      <trkpt lat="43.65948" lon="1.60091">
        <ele>211.103393</ele>
        <time>2020-08-11T08:44:34.043Z</time>
      </trkpt>
      <trkpt lat="43.65967" lon="1.60135">
        <ele>209.997105</ele>
        <time>2020-08-11T08:44:40.189Z</time>
      </trkpt>
      <trkpt lat="43.65977" lon="1.60158">
        <ele>209.408035</ele>
        <time>2020-08-11T08:44:43.357Z</time>
      </trkpt>
      <trkpt lat="43.66008" lon="1.60192">
        <ele>207.576332</ele>
        <time>2020-08-11T08:44:49.714Z</time>
      </trkpt>
      <trkpt lat="43.66037" lon="1.6021">
        <ele>206.082269</ele>
        <time>2020-08-11T08:44:54.792Z</time>
      </trkpt>
      <trkpt lat="43.66054" lon="1.60221">
        <ele>205.148473</ele>
        <time>2020-08-11T08:44:57.756Z</time>
      </trkpt>
      <trkpt lat="43.66069" lon="1.60232">
        <ele>204.341606</ele>
        <time>2020-08-11T08:45:00.378Z</time>
      </trkpt>
      <trkpt lat="43.66084" lon="1.60246">
        <ele>203.467704</ele>
        <time>2020-08-11T08:45:03.118Z</time>
      </trkpt>
      <trkpt lat="43.66099" lon="1.60265">
        <ele>202.500567</ele>
        <time>2020-08-11T08:45:06.153Z</time>
      </trkpt>
      <trkpt lat="43.66129" lon="1.60311">
        <ele>200.175398</ele>
        <time>2020-08-11T08:45:12.699Z</time>
      </trkpt>
      <trkpt lat="43.6615" lon="1.60356">
        <ele>197.243448</ele>
        <time>2020-08-11T08:45:18.191Z</time>
      </trkpt>
      <trkpt lat="43.66153" lon="1.60366">
        <ele>196.638377</ele>
        <time>2020-08-11T08:45:19.260Z</time>
      </trkpt>
      <trkpt lat="43.66158" lon="1.60381">
        <ele>195.772723</ele>
        <time>2020-08-11T08:45:20.882Z</time>
      </trkpt>
      <trkpt lat="43.66167" lon="1.60405">
        <ele>194.317078</ele>
        <time>2020-08-11T08:45:23.651Z</time>
      </trkpt>
      <trkpt lat="43.66173" lon="1.60417">
        <ele>193.488426</ele>
        <time>2020-08-11T08:45:25.132Z</time>
      </trkpt>
      <trkpt lat="43.66182" lon="1.60436">
        <ele>192.23655</ele>
        <time>2020-08-11T08:45:27.547Z</time>
      </trkpt>
      <trkpt lat="43.66196" lon="1.60458">
        <ele>190.664062</ele>
        <time>2020-08-11T08:45:30.453Z</time>
      </trkpt>
      <trkpt lat="43.66222" lon="1.60501">
        <ele>187.559155</ele>
        <time>2020-08-11T08:45:36.333Z</time>
      </trkpt>
      <trkpt lat="43.66307" lon="1.60671">
        <ele>176.767805</ele>
        <time>2020-08-11T08:45:57.417Z</time>
      </trkpt>
      <trkpt lat="43.66327" lon="1.60706">
        <ele>174.454289</ele>
        <time>2020-08-11T08:46:02.057Z</time>
      </trkpt>
      <trkpt lat="43.66341" lon="1.60724">
        <ele>173.250625</ele>
        <time>2020-08-11T08:46:04.897Z</time>
      </trkpt>
      <trkpt lat="43.66475" lon="1.6092">
        <ele>162.544295</ele>
        <time>2020-08-11T08:46:33.830Z</time>
      </trkpt>
      <trkpt lat="43.66576" lon="1.61063">
        <ele>156.642068</ele>
        <time>2020-08-11T08:46:56.656Z</time>
      </trkpt>
      <trkpt lat="43.66588" lon="1.61078">
        <ele>156.097374</ele>
        <time>2020-08-11T08:46:59.366Z</time>
      </trkpt>
      <trkpt lat="43.66612" lon="1.61103">
        <ele>155.24102</ele>
        <time>2020-08-11T08:47:04.378Z</time>
      </trkpt>
      <trkpt lat="43.6663" lon="1.61119">
        <ele>154.64767</ele>
        <time>2020-08-11T08:47:07.897Z</time>
      </trkpt>
      <trkpt lat="43.66668" lon="1.61152">
        <ele>153.378167</ele>
        <time>2020-08-11T08:47:15.443Z</time>
      </trkpt>
      <trkpt lat="43.66691" lon="1.61171">
        <ele>152.623851</ele>
        <time>2020-08-11T08:47:19.865Z</time>
      </trkpt>
      <trkpt lat="43.66792" lon="1.6124">
        <ele>149.883955</ele>
        <time>2020-08-11T08:47:39.046Z</time>
      </trkpt>
      <trkpt lat="43.66807" lon="1.61247">
        <ele>149.54159</ele>
        <time>2020-08-11T08:47:41.718Z</time>
      </trkpt>
      <trkpt lat="43.66811" lon="1.61249">
        <ele>149.448077</ele>
        <time>2020-08-11T08:47:42.451Z</time>
      </trkpt>
      <trkpt lat="43.66854" lon="1.61266">
        <ele>148.481361</ele>
        <time>2020-08-11T08:47:50.399Z</time>
      </trkpt>
      <trkpt lat="43.66889" lon="1.61276">
        <ele>147.694171</ele>
        <time>2020-08-11T08:47:56.832Z</time>
      </trkpt>
      <trkpt lat="43.66898" lon="1.61279">
        <ele>147.508245</ele>
        <time>2020-08-11T08:47:58.384Z</time>
      </trkpt>
      <trkpt lat="43.66909" lon="1.61288">
        <ele>147.331295</ele>
        <time>2020-08-11T08:48:00.567Z</time>
      </trkpt>
      <trkpt lat="43.66928" lon="1.61305">
        <ele>147.08362</ele>
        <time>2020-08-11T08:48:04.724Z</time>
      </trkpt>
      <trkpt lat="43.66969" lon="1.61349">
        <ele>146.520343</ele>
        <time>2020-08-11T08:48:14.153Z</time>
      </trkpt>
      <trkpt lat="43.66971" lon="1.61351">
        <ele>146.487692</ele>
        <time>2020-08-11T08:48:14.746Z</time>
      </trkpt>
      <trkpt lat="43.66988" lon="1.6137">
        <ele>146.259541</ele>
        <time>2020-08-11T08:48:18.912Z</time>
      </trkpt>
      <trkpt lat="43.66994" lon="1.61376">
        <ele>146.175377</ele>
        <time>2020-08-11T08:48:20.421Z</time>
      </trkpt>
      <trkpt lat="43.66999" lon="1.61382">
        <ele>146.101557</ele>
        <time>2020-08-11T08:48:21.791Z</time>
      </trkpt>
      <trkpt lat="43.67024" lon="1.61408">
        <ele>145.763668</ele>
        <time>2020-08-11T08:48:28.071Z</time>
      </trkpt>
      <trkpt lat="43.67046" lon="1.61445">
        <ele>145.488638</ele>
        <time>2020-08-11T08:48:35.370Z</time>
      </trkpt>
      <trkpt lat="43.67052" lon="1.61463">
        <ele>145.508039</ele>
        <time>2020-08-11T08:48:38.457Z</time>
      </trkpt>
      <trkpt lat="43.67083" lon="1.61555">
        <ele>145.605358</ele>
        <time>2020-08-11T08:48:54.759Z</time>
      </trkpt>
      <trkpt lat="43.67104" lon="1.61616">
        <ele>145.670539</ele>
        <time>2020-08-11T08:49:06.466Z</time>
      </trkpt>
      <trkpt lat="43.67127" lon="1.61659">
        <ele>145.73782</ele>
        <time>2020-08-11T08:49:15.823Z</time>
      </trkpt>
      <trkpt lat="43.67242" lon="1.61835">
        <ele>146.81818</ele>
        <time>2020-08-11T08:49:58.395Z</time>
      </trkpt>
      <trkpt lat="43.67292" lon="1.61912">
        <ele>147.902313</ele>
        <time>2020-08-11T08:50:17.049Z</time>
      </trkpt>
      <trkpt lat="43.67243" lon="1.61979">
        <ele>148.940848</ele>
        <time>2020-08-11T08:50:36.529Z</time>
      </trkpt>
      <trkpt lat="43.67185" lon="1.6207">
        <ele>151.859421</ele>
        <time>2020-08-11T08:51:05.160Z</time>
      </trkpt>
      <trkpt lat="43.67178" lon="1.62082">
        <ele>152.429835</ele>
        <time>2020-08-11T08:51:08.936Z</time>
      </trkpt>
      <trkpt lat="43.67186" lon="1.62093">
        <ele>153.007768</ele>
        <time>2020-08-11T08:51:13.972Z</time>
      </trkpt>
      <trkpt lat="43.67241" lon="1.62152">
        <ele>156.399535</ele>
        <time>2020-08-11T08:51:43.162Z</time>
      </trkpt>
      <trkpt lat="43.67313" lon="1.62211">
        <ele>162.498607</ele>
        <time>2020-08-11T08:52:27.012Z</time>
      </trkpt>
      <trkpt lat="43.67503" lon="1.62445">
        <ele>187.486326</ele>
        <time>2020-08-11T08:55:09.746Z</time>
      </trkpt>
      <trkpt lat="43.67538" lon="1.62467">
        <ele>191.449508</ele>
        <time>2020-08-11T08:55:34.764Z</time>
      </trkpt>
      <trkpt lat="43.67565" lon="1.62482">
        <ele>194.246344</ele>
        <time>2020-08-11T08:55:53.029Z</time>
      </trkpt>
      <trkpt lat="43.67537" lon="1.62596">
        <ele>200.669344</ele>
        <time>2020-08-11T08:56:42.233Z</time>
      </trkpt>
      <trkpt lat="43.67521" lon="1.62638">
        <ele>203.214923</ele>
        <time>2020-08-11T08:57:00.035Z</time>
      </trkpt>
      <trkpt lat="43.67423" lon="1.62795">
        <ele>210.963878</ele>
        <time>2020-08-11T08:58:01.081Z</time>
      </trkpt>
      <trkpt lat="43.67346" lon="1.62962">
        <ele>216.080717</ele>
        <time>2020-08-11T08:58:50.968Z</time>
      </trkpt>
      <trkpt lat="43.6733" lon="1.63031">
        <ele>217.666386</ele>
        <time>2020-08-11T08:59:08.700Z</time>
      </trkpt>
      <trkpt lat="43.67278" lon="1.63379">
        <ele>225.114274</ele>
        <time>2020-08-11T09:00:37.185Z</time>
      </trkpt>
      <trkpt lat="43.67236" lon="1.63549">
        <ele>227.454222</ele>
        <time>2020-08-11T09:01:16.832Z</time>
      </trkpt>
      <trkpt lat="43.67232" lon="1.6357">
        <ele>227.736341</ele>
        <time>2020-08-11T09:01:21.520Z</time>
      </trkpt>
      <trkpt lat="43.6724" lon="1.63571">
        <ele>227.881262</ele>
        <time>2020-08-11T09:01:23.247Z</time>
      </trkpt>
      <trkpt lat="43.67314" lon="1.63578">
        <ele>227.863069</ele>
        <time>2020-08-11T09:01:39.973Z</time>
      </trkpt>
      <trkpt lat="43.67365" lon="1.6357">
        <ele>227.600033</ele>
        <time>2020-08-11T09:01:49.919Z</time>
      </trkpt>
      <trkpt lat="43.6747" lon="1.63594">
        <ele>227.513459</ele>
        <time>2020-08-11T09:02:09.916Z</time>
      </trkpt>
      <trkpt lat="43.67528" lon="1.63621">
        <ele>227.998178</ele>
        <time>2020-08-11T09:02:23.605Z</time>
      </trkpt>
      <trkpt lat="43.67606" lon="1.63686">
        <ele>229.05959</ele>
        <time>2020-08-11T09:02:50.838Z</time>
      </trkpt>
      <trkpt lat="43.67616" lon="1.63683">
        <ele>229.536832</ele>
        <time>2020-08-11T09:02:54.313Z</time>
      </trkpt>
      <trkpt lat="43.67659" lon="1.63621">
        <ele>232.551658</ele>
        <time>2020-08-11T09:03:18.247Z</time>
      </trkpt>
      <trkpt lat="43.67674" lon="1.63611">
        <ele>233.361958</ele>
        <time>2020-08-11T09:03:25.230Z</time>
      </trkpt>
      <trkpt lat="43.67695" lon="1.6361">
        <ele>234.353232</ele>
        <time>2020-08-11T09:03:35.522Z</time>
      </trkpt>
      <trkpt lat="43.67721" lon="1.63623">
        <ele>235.733774</ele>
        <time>2020-08-11T09:03:48.970Z</time>
      </trkpt>
      <trkpt lat="43.67807" lon="1.63698">
        <ele>241.056356</ele>
        <time>2020-08-11T09:04:36.370Z</time>
      </trkpt>
      <trkpt lat="43.67816" lon="1.63706">
        <ele>241.634658</ele>
        <time>2020-08-11T09:04:42.059Z</time>
      </trkpt>
      <trkpt lat="43.67822" lon="1.63719">
        <ele>242.251011</ele>
        <time>2020-08-11T09:04:47.250Z</time>
      </trkpt>
      <trkpt lat="43.67828" lon="1.63766">
        <ele>244.116881</ele>
        <time>2020-08-11T09:05:02.174Z</time>
      </trkpt>
      <trkpt lat="43.67799" lon="1.6386">
        <ele>247.572586</ele>
        <time>2020-08-11T09:05:32.188Z</time>
      </trkpt>
      <trkpt lat="43.67792" lon="1.63926">
        <ele>248.643371</ele>
        <time>2020-08-11T09:05:49.146Z</time>
      </trkpt>
      <trkpt lat="43.6778" lon="1.64028">
        <ele>250.316366</ele>
        <time>2020-08-11T09:06:10.231Z</time>
      </trkpt>
      <trkpt lat="43.67782" lon="1.64055">
        <ele>250.741568</ele>
        <time>2020-08-11T09:06:15.401Z</time>
      </trkpt>
      <trkpt lat="43.67803" lon="1.64131">
        <ele>251.290689</ele>
        <time>2020-08-11T09:06:30.662Z</time>
      </trkpt>
      <trkpt lat="43.67804" lon="1.64204">
        <ele>251.444491</ele>
        <time>2020-08-11T09:06:43.190Z</time>
      </trkpt>
      <trkpt lat="43.67798" lon="1.64247">
        <ele>251.539278</ele>
        <time>2020-08-11T09:06:50.479Z</time>
      </trkpt>
      <trkpt lat="43.67771" lon="1.64304">
        <ele>251.683553</ele>
        <time>2020-08-11T09:07:01.037Z</time>
      </trkpt>
      <trkpt lat="43.67774" lon="1.64336">
        <ele>251.637526</ele>
        <time>2020-08-11T09:07:06.015Z</time>
      </trkpt>
      <trkpt lat="43.6778" lon="1.64355">
        <ele>251.578444</ele>
        <time>2020-08-11T09:07:09.220Z</time>
      </trkpt>
      <trkpt lat="43.67777" lon="1.64601">
        <ele>250.819251</ele>
        <time>2020-08-11T09:07:46.221Z</time>
      </trkpt>
      <trkpt lat="43.67779" lon="1.64607">
        <ele>250.788801</ele>
        <time>2020-08-11T09:07:47.197Z</time>
      </trkpt>
      <trkpt lat="43.67782" lon="1.64614">
        <ele>250.749496</ele>
        <time>2020-08-11T09:07:48.655Z</time>
      </trkpt>
      <trkpt lat="43.6781" lon="1.64633">
        <ele>250.541762</ele>
        <time>2020-08-11T09:07:55.240Z</time>
      </trkpt>
      <trkpt lat="43.67873" lon="1.64648">
        <ele>250.131997</ele>
        <time>2020-08-11T09:08:08.219Z</time>
      </trkpt>
      <trkpt lat="43.67885" lon="1.64656">
        <ele>250.045414</ele>
        <time>2020-08-11T09:08:11.048Z</time>
      </trkpt>
      <trkpt lat="43.67887" lon="1.64659">
        <ele>250.022312</ele>
        <time>2020-08-11T09:08:11.707Z</time>
      </trkpt>
      <trkpt lat="43.67888" lon="1.64657">
        <ele>250.011246</ele>
        <time>2020-08-11T09:08:12.009Z</time>
      </trkpt>
      <trkpt lat="43.67895" lon="1.64646">
        <ele>249.944096</ele>
        <time>2020-08-11T09:08:14.077Z</time>
      </trkpt>
      <trkpt lat="43.67977" lon="1.64622">
        <ele>248.017056</ele>
        <time>2020-08-11T09:08:29.643Z</time>
      </trkpt>
      <trkpt lat="43.68041" lon="1.64596">
        <ele>246.246572</ele>
        <time>2020-08-11T09:08:40.709Z</time>
      </trkpt>
      <trkpt lat="43.68102" lon="1.6453">
        <ele>243.3987</ele>
        <time>2020-08-11T09:08:52.735Z</time>
      </trkpt>
      <trkpt lat="43.68204" lon="1.64471">
        <ele>237.727949</ele>
        <time>2020-08-11T09:09:09.309Z</time>
      </trkpt>
      <trkpt lat="43.68323" lon="1.64476">
        <ele>231.593793</ele>
        <time>2020-08-11T09:09:26.948Z</time>
      </trkpt>
      <trkpt lat="43.68352" lon="1.64456">
        <ele>229.911884</ele>
        <time>2020-08-11T09:09:31.829Z</time>
      </trkpt>
      <trkpt lat="43.68423" lon="1.64361">
        <ele>224.943643</ele>
        <time>2020-08-11T09:09:46.778Z</time>
      </trkpt>
      <trkpt lat="43.68545" lon="1.6424">
        <ele>217.726275</ele>
        <time>2020-08-11T09:10:09.720Z</time>
      </trkpt>
      <trkpt lat="43.68549" lon="1.64226">
        <ele>217.107469</ele>
        <time>2020-08-11T09:10:11.455Z</time>
      </trkpt>
      <trkpt lat="43.68548" lon="1.64153">
        <ele>214.273714</ele>
        <time>2020-08-11T09:10:19.384Z</time>
      </trkpt>
      <trkpt lat="43.68558" lon="1.64116">
        <ele>212.717527</ele>
        <time>2020-08-11T09:10:23.713Z</time>
      </trkpt>
      <trkpt lat="43.68584" lon="1.6406">
        <ele>210.132947</ele>
        <time>2020-08-11T09:10:30.844Z</time>
      </trkpt>
      <trkpt lat="43.68597" lon="1.64049">
        <ele>209.324642</ele>
        <time>2020-08-11T09:10:33.061Z</time>
      </trkpt>
      <trkpt lat="43.68635" lon="1.64034">
        <ele>206.915417</ele>
        <time>2020-08-11T09:10:38.938Z</time>
      </trkpt>
      <trkpt lat="43.68659" lon="1.64018">
        <ele>205.141746</ele>
        <time>2020-08-11T09:10:42.834Z</time>
      </trkpt>
      <trkpt lat="43.68764" lon="1.63914">
        <ele>196.605955</ele>
        <time>2020-08-11T09:11:01.278Z</time>
      </trkpt>
      <trkpt lat="43.68803" lon="1.63898">
        <ele>193.972764</ele>
        <time>2020-08-11T09:11:07.087Z</time>
      </trkpt>
      <trkpt lat="43.68816" lon="1.63885">
        <ele>192.897735</ele>
        <time>2020-08-11T09:11:09.459Z</time>
      </trkpt>
      <trkpt lat="43.68866" lon="1.63723">
        <ele>184.70735</ele>
        <time>2020-08-11T09:11:27.964Z</time>
      </trkpt>
      <trkpt lat="43.68862" lon="1.63658">
        <ele>182.879629</ele>
        <time>2020-08-11T09:11:35.253Z</time>
      </trkpt>
      <trkpt lat="43.68863" lon="1.63653">
        <ele>182.749785</ele>
        <time>2020-08-11T09:11:35.707Z</time>
      </trkpt>
      <trkpt lat="43.68866" lon="1.6364">
        <ele>182.366634</ele>
        <time>2020-08-11T09:11:37.399Z</time>
      </trkpt>
      <trkpt lat="43.68885" lon="1.63602">
        <ele>181.06601</ele>
        <time>2020-08-11T09:11:42.729Z</time>
      </trkpt>
      <trkpt lat="43.68915" lon="1.63568">
        <ele>179.57131</ele>
        <time>2020-08-11T09:11:49.064Z</time>
      </trkpt>
      <trkpt lat="43.69104" lon="1.63435">
        <ele>173.410151</ele>
        <time>2020-08-11T09:12:25.126Z</time>
      </trkpt>
      <trkpt lat="43.69121" lon="1.63414">
        <ele>172.653157</ele>
        <time>2020-08-11T09:12:28.954Z</time>
      </trkpt>
      <trkpt lat="43.69129" lon="1.63384">
        <ele>171.692599</ele>
        <time>2020-08-11T09:12:32.730Z</time>
      </trkpt>
      <trkpt lat="43.69132" lon="1.63339">
        <ele>170.328636</ele>
        <time>2020-08-11T09:12:37.758Z</time>
      </trkpt>
      <trkpt lat="43.69132" lon="1.63296">
        <ele>169.005538</ele>
        <time>2020-08-11T09:12:42.584Z</time>
      </trkpt>
      <trkpt lat="43.69121" lon="1.63227">
        <ele>166.875898</ele>
        <time>2020-08-11T09:12:50.346Z</time>
      </trkpt>
      <trkpt lat="43.69124" lon="1.63202">
        <ele>166.111192</ele>
        <time>2020-08-11T09:12:53.015Z</time>
      </trkpt>
      <trkpt lat="43.69132" lon="1.63183">
        <ele>165.462438</ele>
        <time>2020-08-11T09:12:55.625Z</time>
      </trkpt>
      <trkpt lat="43.69144" lon="1.63165">
        <ele>164.900991</ele>
        <time>2020-08-11T09:12:58.308Z</time>
      </trkpt>
      <trkpt lat="43.69186" lon="1.6311">
        <ele>163.137014</ele>
        <time>2020-08-11T09:13:07.632Z</time>
      </trkpt>
      <trkpt lat="43.69194" lon="1.63099">
        <ele>162.785826</ele>
        <time>2020-08-11T09:13:09.327Z</time>
      </trkpt>
      <trkpt lat="43.69202" lon="1.63089">
        <ele>162.46088</ele>
        <time>2020-08-11T09:13:11.173Z</time>
      </trkpt>
      <trkpt lat="43.69205" lon="1.63082">
        <ele>162.28145</ele>
        <time>2020-08-11T09:13:12.299Z</time>
      </trkpt>
      <trkpt lat="43.69244" lon="1.62964">
        <ele>159.878266</ele>
        <time>2020-08-11T09:13:28.461Z</time>
      </trkpt>
      <trkpt lat="43.69246" lon="1.62955">
        <ele>159.851619</ele>
        <time>2020-08-11T09:13:29.933Z</time>
      </trkpt>
      <trkpt lat="43.6925" lon="1.62966">
        <ele>159.816067</ele>
        <time>2020-08-11T09:13:31.880Z</time>
      </trkpt>
      <trkpt lat="43.69265" lon="1.62987">
        <ele>159.728995</ele>
        <time>2020-08-11T09:13:36.071Z</time>
      </trkpt>
      <trkpt lat="43.69337" lon="1.63056">
        <ele>159.376817</ele>
        <time>2020-08-11T09:13:56.360Z</time>
      </trkpt>
      <trkpt lat="43.69354" lon="1.63084">
        <ele>159.2712</ele>
        <time>2020-08-11T09:14:02.428Z</time>
      </trkpt>
      <trkpt lat="43.69413" lon="1.63207">
        <ele>159.506724</ele>
        <time>2020-08-11T09:14:26.859Z</time>
      </trkpt>
      <trkpt lat="43.69432" lon="1.63292">
        <ele>159.686572</ele>
        <time>2020-08-11T09:14:41.989Z</time>
      </trkpt>
      <trkpt lat="43.69439" lon="1.63344">
        <ele>159.849683</ele>
        <time>2020-08-11T09:14:51.326Z</time>
      </trkpt>
      <trkpt lat="43.69438" lon="1.63354">
        <ele>159.888409</ele>
        <time>2020-08-11T09:14:53.202Z</time>
      </trkpt>
      <trkpt lat="43.69438" lon="1.63367">
        <ele>159.942272</ele>
        <time>2020-08-11T09:14:55.544Z</time>
      </trkpt>
      <trkpt lat="43.6943" lon="1.63508">
        <ele>160.51252</ele>
        <time>2020-08-11T09:15:20.823Z</time>
      </trkpt>
      <trkpt lat="43.6943" lon="1.63626">
        <ele>160.992541</ele>
        <time>2020-08-11T09:15:41.761Z</time>
      </trkpt>
      <trkpt lat="43.6943" lon="1.63719">
        <ele>161.373387</ele>
        <time>2020-08-11T09:15:58.024Z</time>
      </trkpt>
      <trkpt lat="43.69424" lon="1.63904">
        <ele>162.222782</ele>
        <time>2020-08-11T09:16:30.971Z</time>
      </trkpt>
      <trkpt lat="43.69454" lon="1.64102">
        <ele>163.233473</ele>
        <time>2020-08-11T09:17:08.295Z</time>
      </trkpt>
      <trkpt lat="43.69459" lon="1.64194">
        <ele>163.65348</ele>
        <time>2020-08-11T09:17:25.169Z</time>
      </trkpt>
      <trkpt lat="43.69492" lon="1.64273">
        <ele>164.06765</ele>
        <time>2020-08-11T09:17:41.209Z</time>
      </trkpt>
      <trkpt lat="43.69501" lon="1.64293">
        <ele>164.169191</ele>
        <time>2020-08-11T09:17:45.704Z</time>
      </trkpt>
      <trkpt lat="43.69505" lon="1.64303">
        <ele>164.184287</ele>
        <time>2020-08-11T09:17:47.378Z</time>
      </trkpt>
      <trkpt lat="43.69517" lon="1.64349">
        <ele>164.248761</ele>
        <time>2020-08-11T09:17:55.726Z</time>
      </trkpt>
      <trkpt lat="43.69515" lon="1.64475">
        <ele>164.41592</ele>
        <time>2020-08-11T09:18:16.721Z</time>
      </trkpt>
      <trkpt lat="43.69477" lon="1.64642">
        <ele>165.214208</ele>
        <time>2020-08-11T09:18:44.752Z</time>
      </trkpt>
      <trkpt lat="43.69457" lon="1.64846">
        <ele>167.821095</ele>
        <time>2020-08-11T09:19:27.314Z</time>
      </trkpt>
      <trkpt lat="43.69456" lon="1.64877">
        <ele>168.56063</ele>
        <time>2020-08-11T09:19:34.407Z</time>
      </trkpt>
      <trkpt lat="43.69465" lon="1.64875">
        <ele>168.885202</ele>
        <time>2020-08-11T09:19:38.296Z</time>
      </trkpt>
      <trkpt lat="43.69519" lon="1.64866">
        <ele>170.730627</ele>
        <time>2020-08-11T09:19:58.390Z</time>
      </trkpt>
      <trkpt lat="43.69599" lon="1.64818">
        <ele>174.81391</ele>
        <time>2020-08-11T09:20:35.966Z</time>
      </trkpt>
      <trkpt lat="43.69636" lon="1.64805">
        <ele>177.058769</ele>
        <time>2020-08-11T09:20:53.441Z</time>
      </trkpt>
      <trkpt lat="43.69665" lon="1.6481">
        <ele>178.806097</ele>
        <time>2020-08-11T09:21:07.302Z</time>
      </trkpt>
      <trkpt lat="43.69703" lon="1.64842">
        <ele>181.407932</ele>
        <time>2020-08-11T09:21:28.409Z</time>
      </trkpt>
      <trkpt lat="43.69721" lon="1.64845">
        <ele>182.484378</ele>
        <time>2020-08-11T09:21:37.114Z</time>
      </trkpt>
      <trkpt lat="43.69738" lon="1.64834">
        <ele>183.658983</ele>
        <time>2020-08-11T09:21:46.415Z</time>
      </trkpt>
      <trkpt lat="43.69768" lon="1.64795">
        <ele>186.169894</ele>
        <time>2020-08-11T09:22:06.061Z</time>
      </trkpt>
      <trkpt lat="43.69781" lon="1.64785">
        <ele>187.101629</ele>
        <time>2020-08-11T09:22:13.253Z</time>
      </trkpt>
      <trkpt lat="43.6982" lon="1.64774">
        <ele>189.503689</ele>
        <time>2020-08-11T09:22:31.858Z</time>
      </trkpt>
      <trkpt lat="43.69859" lon="1.64777">
        <ele>191.912221</ele>
        <time>2020-08-11T09:22:50.326Z</time>
      </trkpt>
      <trkpt lat="43.69874" lon="1.64789">
        <ele>192.951398</ele>
        <time>2020-08-11T09:22:58.258Z</time>
      </trkpt>
      <trkpt lat="43.69881" lon="1.64803">
        <ele>193.714735</ele>
        <time>2020-08-11T09:23:03.975Z</time>
      </trkpt>
      <trkpt lat="43.69881" lon="1.64842">
        <ele>194.948502</ele>
        <time>2020-08-11T09:23:16.785Z</time>
      </trkpt>
      <trkpt lat="43.69817" lon="1.65026">
        <ele>201.297025</ele>
        <time>2020-08-11T09:24:15.133Z</time>
      </trkpt>
      <trkpt lat="43.69816" lon="1.65066">
        <ele>202.064292</ele>
        <time>2020-08-11T09:24:23.546Z</time>
      </trkpt>
      <trkpt lat="43.69819" lon="1.65074">
        <ele>202.20069</ele>
        <time>2020-08-11T09:24:26.234Z</time>
      </trkpt>
      <trkpt lat="43.69796" lon="1.65089">
        <ele>202.759186</ele>
        <time>2020-08-11T09:24:32.898Z</time>
      </trkpt>
      <trkpt lat="43.6978" lon="1.65108">
        <ele>203.223278</ele>
        <time>2020-08-11T09:24:40.433Z</time>
      </trkpt>
      <trkpt lat="43.69727" lon="1.65249">
        <ele>205.791916</ele>
        <time>2020-08-11T09:25:15.500Z</time>
      </trkpt>
      <trkpt lat="43.69724" lon="1.65267">
        <ele>206.116715</ele>
        <time>2020-08-11T09:25:18.936Z</time>
      </trkpt>
      <trkpt lat="43.69725" lon="1.65272">
        <ele>206.208045</ele>
        <time>2020-08-11T09:25:19.653Z</time>
      </trkpt>
      <trkpt lat="43.69727" lon="1.65276">
        <ele>206.29976</ele>
        <time>2020-08-11T09:25:22.162Z</time>
      </trkpt>
      <trkpt lat="43.69743" lon="1.65284">
        <ele>206.710708</ele>
        <time>2020-08-11T09:25:27.277Z</time>
      </trkpt>
      <trkpt lat="43.69792" lon="1.65292">
        <ele>207.934644</ele>
        <time>2020-08-11T09:25:43.038Z</time>
      </trkpt>
      <trkpt lat="43.69816" lon="1.65293">
        <ele>208.532791</ele>
        <time>2020-08-11T09:25:52.054Z</time>
      </trkpt>
      <trkpt lat="43.69869" lon="1.65281">
        <ele>209.86397</ele>
        <time>2020-08-11T09:26:11.255Z</time>
      </trkpt>
      <trkpt lat="43.69886" lon="1.65283">
        <ele>210.177846</ele>
        <time>2020-08-11T09:26:17.315Z</time>
      </trkpt>
      <trkpt lat="43.69993" lon="1.653">
        <ele>211.975933</ele>
        <time>2020-08-11T09:26:49.964Z</time>
      </trkpt>
      <trkpt lat="43.70082" lon="1.65336">
        <ele>213.302423</ele>
        <time>2020-08-11T09:27:14.313Z</time>
      </trkpt>
      <trkpt lat="43.70139" lon="1.65368">
        <ele>213.948129</ele>
        <time>2020-08-11T09:27:30.035Z</time>
      </trkpt>
      <trkpt lat="43.70167" lon="1.65386">
        <ele>214.274329</ele>
        <time>2020-08-11T09:27:38.459Z</time>
      </trkpt>
      <trkpt lat="43.70174" lon="1.6539">
        <ele>214.355946</ele>
        <time>2020-08-11T09:27:40.547Z</time>
      </trkpt>
      <trkpt lat="43.70181" lon="1.65394">
        <ele>214.432328</ele>
        <time>2020-08-11T09:27:43.301Z</time>
      </trkpt>
      <trkpt lat="43.70298" lon="1.65445">
        <ele>216.45787</ele>
        <time>2020-08-11T09:28:19.188Z</time>
      </trkpt>
      <trkpt lat="43.70375" lon="1.65441">
        <ele>217.942529</ele>
        <time>2020-08-11T09:28:44.134Z</time>
      </trkpt>
      <trkpt lat="43.70387" lon="1.65441">
        <ele>218.161895</ele>
        <time>2020-08-11T09:28:47.381Z</time>
      </trkpt>
      <trkpt lat="43.70393" lon="1.65442">
        <ele>218.294162</ele>
        <time>2020-08-11T09:28:49.914Z</time>
      </trkpt>
      <trkpt lat="43.704" lon="1.65445">
        <ele>218.475406</ele>
        <time>2020-08-11T09:28:52.312Z</time>
      </trkpt>
      <trkpt lat="43.70454" lon="1.65472">
        <ele>219.907651</ele>
        <time>2020-08-11T09:29:10.711Z</time>
      </trkpt>
      <trkpt lat="43.70467" lon="1.65479">
        <ele>220.253059</ele>
        <time>2020-08-11T09:29:15.757Z</time>
      </trkpt>
      <trkpt lat="43.70492" lon="1.65495">
        <ele>220.923835</ele>
        <time>2020-08-11T09:29:24.575Z</time>
      </trkpt>
      <trkpt lat="43.70521" lon="1.65532">
        <ele>221.925022</ele>
        <time>2020-08-11T09:29:38.165Z</time>
      </trkpt>
      <trkpt lat="43.70538" lon="1.65554">
        <ele>222.494891</ele>
        <time>2020-08-11T09:29:45.587Z</time>
      </trkpt>
      <trkpt lat="43.70574" lon="1.65596">
        <ele>223.704999</ele>
        <time>2020-08-11T09:30:01.697Z</time>
      </trkpt>
      <trkpt lat="43.70602" lon="1.6564">
        <ele>224.818247</ele>
        <time>2020-08-11T09:30:16.124Z</time>
      </trkpt>
      <trkpt lat="43.70612" lon="1.65731">
        <ele>226.565326</ele>
        <time>2020-08-11T09:30:38.914Z</time>
      </trkpt>
      <trkpt lat="43.70621" lon="1.65745">
        <ele>226.922003</ele>
        <time>2020-08-11T09:30:43.330Z</time>
      </trkpt>
      <trkpt lat="43.70628" lon="1.65749">
        <ele>227.106948</ele>
        <time>2020-08-11T09:30:46.069Z</time>
      </trkpt>
      <trkpt lat="43.70622" lon="1.65782">
        <ele>227.597794</ele>
        <time>2020-08-11T09:30:53.857Z</time>
      </trkpt>
      <trkpt lat="43.70604" lon="1.65875">
        <ele>228.335237</ele>
        <time>2020-08-11T09:31:14.693Z</time>
      </trkpt>
      <trkpt lat="43.70591" lon="1.65944">
        <ele>228.881631</ele>
        <time>2020-08-11T09:31:28.610Z</time>
      </trkpt>
      <trkpt lat="43.70596" lon="1.65949">
        <ele>228.946885</ele>
        <time>2020-08-11T09:31:30.406Z</time>
      </trkpt>
      <trkpt lat="43.70641" lon="1.66034">
        <ele>228.373175</ele>
        <time>2020-08-11T09:31:46.071Z</time>
      </trkpt>
      <trkpt lat="43.70669" lon="1.66067">
        <ele>227.22808</ele>
        <time>2020-08-11T09:31:52.450Z</time>
      </trkpt>
      <trkpt lat="43.7076" lon="1.6615">
        <ele>223.87537</ele>
        <time>2020-08-11T09:32:09.408Z</time>
      </trkpt>
      <trkpt lat="43.70781" lon="1.66168">
        <ele>222.708145</ele>
        <time>2020-08-11T09:32:13.093Z</time>
      </trkpt>
      <trkpt lat="43.70828" lon="1.66206">
        <ele>220.1189</ele>
        <time>2020-08-11T09:32:21.317Z</time>
      </trkpt>
      <trkpt lat="43.71018" lon="1.66371">
        <ele>209.868705</ele>
        <time>2020-08-11T09:32:55.652Z</time>
      </trkpt>
      <trkpt lat="43.711" lon="1.66425">
        <ele>206.03037</ele>
        <time>2020-08-11T09:33:09.890Z</time>
      </trkpt>
      <trkpt lat="43.71161" lon="1.66453">
        <ele>203.550909</ele>
        <time>2020-08-11T09:33:19.860Z</time>
      </trkpt>
      <trkpt lat="43.71264" lon="1.66517">
        <ele>199.227312</ele>
        <time>2020-08-11T09:33:37.699Z</time>
      </trkpt>
      <trkpt lat="43.71381" lon="1.66552">
        <ele>194.810073</ele>
        <time>2020-08-11T09:33:56.962Z</time>
      </trkpt>
      <trkpt lat="43.71534" lon="1.6663">
        <ele>188.67388</ele>
        <time>2020-08-11T09:34:22.802Z</time>
      </trkpt>
      <trkpt lat="43.71558" lon="1.66651">
        <ele>187.571927</ele>
        <time>2020-08-11T09:34:27.339Z</time>
      </trkpt>
      <trkpt lat="43.71616" lon="1.66727">
        <ele>183.90734</ele>
        <time>2020-08-11T09:34:39.715Z</time>
      </trkpt>
      <trkpt lat="43.71642" lon="1.66752">
        <ele>182.416308</ele>
        <time>2020-08-11T09:34:44.467Z</time>
      </trkpt>
      <trkpt lat="43.71871" lon="1.66944">
        <ele>168.494751</ele>
        <time>2020-08-11T09:35:24.531Z</time>
      </trkpt>
      <trkpt lat="43.71903" lon="1.66972">
        <ele>166.646612</ele>
        <time>2020-08-11T09:35:30.238Z</time>
      </trkpt>
      <trkpt lat="43.71909" lon="1.66976">
        <ele>166.357241</ele>
        <time>2020-08-11T09:35:31.094Z</time>
      </trkpt>
      <trkpt lat="43.7202" lon="1.67069">
        <ele>160.038261</ele>
        <time>2020-08-11T09:35:50.888Z</time>
      </trkpt>
      <trkpt lat="43.72133" lon="1.67112">
        <ele>157.268243</ele>
        <time>2020-08-11T09:36:09.967Z</time>
      </trkpt>
      <trkpt lat="43.7216" lon="1.67122">
        <ele>156.609716</ele>
        <time>2020-08-11T09:36:15.307Z</time>
      </trkpt>
      <trkpt lat="43.72175" lon="1.67127">
        <ele>156.254173</ele>
        <time>2020-08-11T09:36:18.465Z</time>
      </trkpt>
      <trkpt lat="43.72227" lon="1.67143">
        <ele>156.392886</ele>
        <time>2020-08-11T09:36:30.053Z</time>
      </trkpt>
      <trkpt lat="43.72231" lon="1.67145">
        <ele>156.478664</ele>
        <time>2020-08-11T09:36:30.863Z</time>
      </trkpt>
      <trkpt lat="43.72239" lon="1.67148">
        <ele>156.65354</ele>
        <time>2020-08-11T09:36:32.919Z</time>
      </trkpt>
      <trkpt lat="43.72243" lon="1.6715">
        <ele>156.74028</ele>
        <time>2020-08-11T09:36:33.828Z</time>
      </trkpt>
      <trkpt lat="43.72249" lon="1.67151">
        <ele>156.858002</ele>
        <time>2020-08-11T09:36:36.064Z</time>
      </trkpt>
      <trkpt lat="43.72258" lon="1.67151">
        <ele>157.050021</ele>
        <time>2020-08-11T09:36:38.153Z</time>
      </trkpt>
      <trkpt lat="43.7228" lon="1.67134">
        <ele>157.591667</ele>
        <time>2020-08-11T09:36:45.454Z</time>
      </trkpt>
      <trkpt lat="43.72335" lon="1.67065">
        <ele>159.156984</ele>
        <time>2020-08-11T09:37:11.582Z</time>
      </trkpt>
      <trkpt lat="43.7235" lon="1.67036">
        <ele>159.982323</ele>
        <time>2020-08-11T09:37:21.179Z</time>
      </trkpt>
      <trkpt lat="43.72363" lon="1.66989">
        <ele>162.023454</ele>
        <time>2020-08-11T09:37:36.598Z</time>
      </trkpt>
      <trkpt lat="43.72414" lon="1.6694">
        <ele>165.539233</ele>
        <time>2020-08-11T09:38:03.692Z</time>
      </trkpt>
      <trkpt lat="43.72446" lon="1.669">
        <ele>167.923944</ele>
        <time>2020-08-11T09:38:23.680Z</time>
      </trkpt>
      <trkpt lat="43.72464" lon="1.66862">
        <ele>169.831912</ele>
        <time>2020-08-11T09:38:40.192Z</time>
      </trkpt>
      <trkpt lat="43.72478" lon="1.66854">
        <ele>171.129991</ele>
        <time>2020-08-11T09:38:48.279Z</time>
      </trkpt>
      <trkpt lat="43.72501" lon="1.66857">
        <ele>173.100118</ele>
        <time>2020-08-11T09:39:00.718Z</time>
      </trkpt>
      <trkpt lat="43.72516" lon="1.66883">
        <ele>175.102743</ele>
        <time>2020-08-11T09:39:13.769Z</time>
      </trkpt>
      <trkpt lat="43.72517" lon="1.66902">
        <ele>176.260807</ele>
        <time>2020-08-11T09:39:21.195Z</time>
      </trkpt>
      <trkpt lat="43.72508" lon="1.66952">
        <ele>179.375816</ele>
        <time>2020-08-11T09:39:41.605Z</time>
      </trkpt>
      <trkpt lat="43.72513" lon="1.66998">
        <ele>182.172484</ele>
        <time>2020-08-11T09:40:02.242Z</time>
      </trkpt>
      <trkpt lat="43.72562" lon="1.67048">
        <ele>186.629458</ele>
        <time>2020-08-11T09:40:40.690Z</time>
      </trkpt>
      <trkpt lat="43.72606" lon="1.67078">
        <ele>189.681618</ele>
        <time>2020-08-11T09:41:05.154Z</time>
      </trkpt>
      <trkpt lat="43.72613" lon="1.67086">
        <ele>190.229219</ele>
        <time>2020-08-11T09:41:10.945Z</time>
      </trkpt>
      <trkpt lat="43.7262" lon="1.67093">
        <ele>190.809757</ele>
        <time>2020-08-11T09:41:15.762Z</time>
      </trkpt>
      <trkpt lat="43.72632" lon="1.67117">
        <ele>192.092179</ele>
        <time>2020-08-11T09:41:23.587Z</time>
      </trkpt>
      <trkpt lat="43.72632" lon="1.67118">
        <ele>192.124956</ele>
        <time>2020-08-11T09:41:23.952Z</time>
      </trkpt>
      <trkpt lat="43.72636" lon="1.67132">
        <ele>192.826303</ele>
        <time>2020-08-11T09:41:30.281Z</time>
      </trkpt>
      <trkpt lat="43.72633" lon="1.67163">
        <ele>194.220075</ele>
        <time>2020-08-11T09:41:37.698Z</time>
      </trkpt>
      <trkpt lat="43.72617" lon="1.67195">
        <ele>195.885497</ele>
        <time>2020-08-11T09:41:48.722Z</time>
      </trkpt>
      <trkpt lat="43.72601" lon="1.67225">
        <ele>195.549984</ele>
        <time>2020-08-11T09:41:57.977Z</time>
      </trkpt>
      <trkpt lat="43.72529" lon="1.67328">
        <ele>194.239219</ele>
        <time>2020-08-11T09:42:17.044Z</time>
      </trkpt>
      <trkpt lat="43.72505" lon="1.67376">
        <ele>193.69961</ele>
        <time>2020-08-11T09:42:23.578Z</time>
      </trkpt>
      <trkpt lat="43.72501" lon="1.67385">
        <ele>193.57688</ele>
        <time>2020-08-11T09:42:24.685Z</time>
      </trkpt>
      <trkpt lat="43.7249" lon="1.67404">
        <ele>192.961413</ele>
        <time>2020-08-11T09:42:27.339Z</time>
      </trkpt>
      <trkpt lat="43.72463" lon="1.67456">
        <ele>191.316706</ele>
        <time>2020-08-11T09:42:34.467Z</time>
      </trkpt>
      <trkpt lat="43.72451" lon="1.67499">
        <ele>190.130311</ele>
        <time>2020-08-11T09:42:39.697Z</time>
      </trkpt>
      <trkpt lat="43.72434" lon="1.67546">
        <ele>188.778785</ele>
        <time>2020-08-11T09:42:45.778Z</time>
      </trkpt>
      <trkpt lat="43.72426" lon="1.67609">
        <ele>187.243393</ele>
        <time>2020-08-11T09:42:53.565Z</time>
      </trkpt>
      <trkpt lat="43.72426" lon="1.67634">
        <ele>187.259893</ele>
        <time>2020-08-11T09:42:56.703Z</time>
      </trkpt>
      <trkpt lat="43.72419" lon="1.67703">
        <ele>187.306377</ele>
        <time>2020-08-11T09:43:06.797Z</time>
      </trkpt>
      <trkpt lat="43.72417" lon="1.67724">
        <ele>187.320859</ele>
        <time>2020-08-11T09:43:10.251Z</time>
      </trkpt>
      <trkpt lat="43.72407" lon="1.67779">
        <ele>187.358756</ele>
        <time>2020-08-11T09:43:20.794Z</time>
      </trkpt>
      <trkpt lat="43.7246" lon="1.67844">
        <ele>187.72553</ele>
        <time>2020-08-11T09:43:41.861Z</time>
      </trkpt>
      <trkpt lat="43.72511" lon="1.67896">
        <ele>188.782758</ele>
        <time>2020-08-11T09:44:00.543Z</time>
      </trkpt>
      <trkpt lat="43.72534" lon="1.67924">
        <ele>189.293799</ele>
        <time>2020-08-11T09:44:09.716Z</time>
      </trkpt>
      <trkpt lat="43.72538" lon="1.67932">
        <ele>189.406623</ele>
        <time>2020-08-11T09:44:11.624Z</time>
      </trkpt>
      <trkpt lat="43.7254" lon="1.6796">
        <ele>189.756191</ele>
        <time>2020-08-11T09:44:17.779Z</time>
      </trkpt>
      <trkpt lat="43.72536" lon="1.68039">
        <ele>190.637529</ele>
        <time>2020-08-11T09:44:33.648Z</time>
      </trkpt>
      <trkpt lat="43.72504" lon="1.68421">
        <ele>193.64936</ele>
        <time>2020-08-11T09:45:48.983Z</time>
      </trkpt>
      <trkpt lat="43.72498" lon="1.68543">
        <ele>193.983123</ele>
        <time>2020-08-11T09:46:10.077Z</time>
      </trkpt>
      <trkpt lat="43.72508" lon="1.6865">
        <ele>193.327932</ele>
        <time>2020-08-11T09:46:25.764Z</time>
      </trkpt>
      <trkpt lat="43.72519" lon="1.68701">
        <ele>193.003621</ele>
        <time>2020-08-11T09:46:33.072Z</time>
      </trkpt>
      <trkpt lat="43.72527" lon="1.68724">
        <ele>192.85008</ele>
        <time>2020-08-11T09:46:36.508Z</time>
      </trkpt>
      <trkpt lat="43.72542" lon="1.68746">
        <ele>192.657032</ele>
        <time>2020-08-11T09:46:40.407Z</time>
      </trkpt>
      <trkpt lat="43.72679" lon="1.68856">
        <ele>189.676837</ele>
        <time>2020-08-11T09:47:08.125Z</time>
      </trkpt>
      <trkpt lat="43.72735" lon="1.68901">
        <ele>188.93697</ele>
        <time>2020-08-11T09:47:19.952Z</time>
      </trkpt>
      <trkpt lat="43.72745" lon="1.6891">
        <ele>188.839621</ele>
        <time>2020-08-11T09:47:22.280Z</time>
      </trkpt>
      <trkpt lat="43.72748" lon="1.68912">
        <ele>188.817715</ele>
        <time>2020-08-11T09:47:22.766Z</time>
      </trkpt>
      <trkpt lat="43.72751" lon="1.68915">
        <ele>188.785685</ele>
        <time>2020-08-11T09:47:23.534Z</time>
      </trkpt>
      <trkpt lat="43.72786" lon="1.68951">
        <ele>188.441457</ele>
        <time>2020-08-11T09:47:32.005Z</time>
      </trkpt>
      <trkpt lat="43.72857" lon="1.69024">
        <ele>188.030681</ele>
        <time>2020-08-11T09:47:51.046Z</time>
      </trkpt>
      <trkpt lat="43.72891" lon="1.69058">
        <ele>188.497352</ele>
        <time>2020-08-11T09:48:01.111Z</time>
      </trkpt>
      <trkpt lat="43.72915" lon="1.69113">
        <ele>189.014109</ele>
        <time>2020-08-11T09:48:12.950Z</time>
      </trkpt>
      <trkpt lat="43.72918" lon="1.69121">
        <ele>189.090609</ele>
        <time>2020-08-11T09:48:14.705Z</time>
      </trkpt>
      <trkpt lat="43.72968" lon="1.69309">
        <ele>191.956197</ele>
        <time>2020-08-11T09:48:59.695Z</time>
      </trkpt>
      <trkpt lat="43.72973" lon="1.69328">
        <ele>192.359465</ele>
        <time>2020-08-11T09:49:05.064Z</time>
      </trkpt>
      <trkpt lat="43.73018" lon="1.69427">
        <ele>194.69478</ele>
        <time>2020-08-11T09:49:33.799Z</time>
      </trkpt>
      <trkpt lat="43.73066" lon="1.69553">
        <ele>197.938645</ele>
        <time>2020-08-11T09:50:10.843Z</time>
      </trkpt>
      <trkpt lat="43.73074" lon="1.69598">
        <ele>198.991206</ele>
        <time>2020-08-11T09:50:22.236Z</time>
      </trkpt>
      <trkpt lat="43.73073" lon="1.69724">
        <ele>201.677713</ele>
        <time>2020-08-11T09:50:53.605Z</time>
      </trkpt>
      <trkpt lat="43.73084" lon="1.6978">
        <ele>202.803415</ele>
        <time>2020-08-11T09:51:07.772Z</time>
      </trkpt>
      <trkpt lat="43.73113" lon="1.69858">
        <ele>204.524685</ele>
        <time>2020-08-11T09:51:28.831Z</time>
      </trkpt>
      <trkpt lat="43.73152" lon="1.69969">
        <ele>206.165701</ele>
        <time>2020-08-11T09:51:56.765Z</time>
      </trkpt>
      <trkpt lat="43.73218" lon="1.70147">
        <ele>207.710539</ele>
        <time>2020-08-11T09:52:35.265Z</time>
      </trkpt>
      <trkpt lat="43.73297" lon="1.70316">
        <ele>206.824086</ele>
        <time>2020-08-11T09:53:04.061Z</time>
      </trkpt>
      <trkpt lat="43.73321" lon="1.70379">
        <ele>205.862168</ele>
        <time>2020-08-11T09:53:13.194Z</time>
      </trkpt>
      <trkpt lat="43.73364" lon="1.7061">
        <ele>201.456192</ele>
        <time>2020-08-11T09:53:42.584Z</time>
      </trkpt>
      <trkpt lat="43.73391" lon="1.70898">
        <ele>193.454443</ele>
        <time>2020-08-11T09:54:15.817Z</time>
      </trkpt>
      <trkpt lat="43.73412" lon="1.71052">
        <ele>188.469585</ele>
        <time>2020-08-11T09:54:33.134Z</time>
      </trkpt>
      <trkpt lat="43.73435" lon="1.71079">
        <ele>187.141824</ele>
        <time>2020-08-11T09:54:37.811Z</time>
      </trkpt>
      <trkpt lat="43.7364" lon="1.71223">
        <ele>177.179954</ele>
        <time>2020-08-11T09:55:13.575Z</time>
      </trkpt>
      <trkpt lat="43.73687" lon="1.71251">
        <ele>174.940894</ele>
        <time>2020-08-11T09:55:21.627Z</time>
      </trkpt>
      <trkpt lat="43.73772" lon="1.7129">
        <ele>170.797886</ele>
        <time>2020-08-11T09:55:35.159Z</time>
      </trkpt>
      <trkpt lat="43.73796" lon="1.71315">
        <ele>169.300719</ele>
        <time>2020-08-11T09:55:39.641Z</time>
      </trkpt>
      <trkpt lat="43.73816" lon="1.71363">
        <ele>167.278459</ele>
        <time>2020-08-11T09:55:45.704Z</time>
      </trkpt>
      <trkpt lat="43.73832" lon="1.71402">
        <ele>165.676823</ele>
        <time>2020-08-11T09:55:50.492Z</time>
      </trkpt>
      <trkpt lat="43.73838" lon="1.71401">
        <ele>165.334081</ele>
        <time>2020-08-11T09:55:51.544Z</time>
      </trkpt>
      <trkpt lat="43.73845" lon="1.71401">
        <ele>165.018235</ele>
        <time>2020-08-11T09:55:52.502Z</time>
      </trkpt>
      <trkpt lat="43.73853" lon="1.71402">
        <ele>164.589612</ele>
        <time>2020-08-11T09:55:53.788Z</time>
      </trkpt>
      <trkpt lat="43.73896" lon="1.71507">
        <ele>161.144555</ele>
        <time>2020-08-11T09:56:07.186Z</time>
      </trkpt>
      <trkpt lat="43.73948" lon="1.71632">
        <ele>157.420441</ele>
        <time>2020-08-11T09:56:24.107Z</time>
      </trkpt>
      <trkpt lat="43.73979" lon="1.71739">
        <ele>155.831569</ele>
        <time>2020-08-11T09:56:38.914Z</time>
      </trkpt>
      <trkpt lat="43.74134" lon="1.721">
        <ele>151.029051</ele>
        <time>2020-08-11T09:57:35.437Z</time>
      </trkpt>
      <trkpt lat="43.7427" lon="1.72306">
        <ele>147.187405</ele>
        <time>2020-08-11T09:58:10.104Z</time>
      </trkpt>
      <trkpt lat="43.74322" lon="1.72346">
        <ele>146.577043</ele>
        <time>2020-08-11T09:58:21.190Z</time>
      </trkpt>
      <trkpt lat="43.74336" lon="1.72363">
        <ele>146.382474</ele>
        <time>2020-08-11T09:58:24.706Z</time>
      </trkpt>
      <trkpt lat="43.74256" lon="1.72551">
        <ele>145.840814</ele>
        <time>2020-08-11T09:59:01.100Z</time>
      </trkpt>
      <trkpt lat="43.7423" lon="1.72614">
        <ele>145.893263</ele>
        <time>2020-08-11T09:59:13.938Z</time>
      </trkpt>
      <trkpt lat="43.74227" lon="1.7264">
        <ele>145.911663</ele>
        <time>2020-08-11T09:59:18.143Z</time>
      </trkpt>
      <trkpt lat="43.74239" lon="1.72749">
        <ele>145.112909</ele>
        <time>2020-08-11T09:59:34.086Z</time>
      </trkpt>
      <trkpt lat="43.74237" lon="1.72782">
        <ele>144.824157</ele>
        <time>2020-08-11T09:59:38.778Z</time>
      </trkpt>
      <trkpt lat="43.74235" lon="1.72798">
        <ele>144.676302</ele>
        <time>2020-08-11T09:59:40.910Z</time>
      </trkpt>
      <trkpt lat="43.7419" lon="1.73145">
        <ele>140.675807</ele>
        <time>2020-08-11T10:00:26.625Z</time>
      </trkpt>
      <trkpt lat="43.74183" lon="1.7317">
        <ele>140.452283</ele>
        <time>2020-08-11T10:00:30.153Z</time>
      </trkpt>
      <trkpt lat="43.74147" lon="1.73246">
        <ele>139.72656</ele>
        <time>2020-08-11T10:00:42.351Z</time>
      </trkpt>
      <trkpt lat="43.74128" lon="1.73316">
        <ele>139.133811</ele>
        <time>2020-08-11T10:00:52.691Z</time>
      </trkpt>
      <trkpt lat="43.74091" lon="1.73413">
        <ele>138.539805</ele>
        <time>2020-08-11T10:01:09.018Z</time>
      </trkpt>
      <trkpt lat="43.74091" lon="1.73419">
        <ele>138.527373</ele>
        <time>2020-08-11T10:01:09.687Z</time>
      </trkpt>
      <trkpt lat="43.74091" lon="1.73426">
        <ele>138.510716</ele>
        <time>2020-08-11T10:01:11.053Z</time>
      </trkpt>
      <trkpt lat="43.74096" lon="1.73447">
        <ele>138.457835</ele>
        <time>2020-08-11T10:01:14.678Z</time>
      </trkpt>
      <trkpt lat="43.7412" lon="1.73495">
        <ele>138.321801</ele>
        <time>2020-08-11T10:01:24.041Z</time>
      </trkpt>
      <trkpt lat="43.74196" lon="1.73643">
        <ele>137.334389</ele>
        <time>2020-08-11T10:01:51.606Z</time>
      </trkpt>
      <trkpt lat="43.74158" lon="1.73687">
        <ele>136.66479</ele>
        <time>2020-08-11T10:02:00.892Z</time>
      </trkpt>
      <trkpt lat="43.74116" lon="1.73742">
        <ele>135.900587</ele>
        <time>2020-08-11T10:02:11.155Z</time>
      </trkpt>
      <trkpt lat="43.74084" lon="1.73791">
        <ele>135.013834</ele>
        <time>2020-08-11T10:02:19.338Z</time>
      </trkpt>
      <trkpt lat="43.74172" lon="1.73854">
        <ele>132.89469</ele>
        <time>2020-08-11T10:02:37.064Z</time>
      </trkpt>
      <trkpt lat="43.74202" lon="1.73867">
        <ele>132.216007</ele>
        <time>2020-08-11T10:02:42.845Z</time>
      </trkpt>
      <trkpt lat="43.74232" lon="1.73866">
        <ele>131.670665</ele>
        <time>2020-08-11T10:02:48.473Z</time>
      </trkpt>
      <trkpt lat="43.74238" lon="1.73866">
        <ele>131.598609</ele>
        <time>2020-08-11T10:02:49.577Z</time>
      </trkpt>
      <trkpt lat="43.74258" lon="1.73865">
        <ele>131.343759</ele>
        <time>2020-08-11T10:02:53.548Z</time>
      </trkpt>
      <trkpt lat="43.74279" lon="1.73883">
        <ele>131.04122</ele>
        <time>2020-08-11T10:02:58.295Z</time>
      </trkpt>
      <trkpt lat="43.74285" lon="1.73899">
        <ele>130.872713</ele>
        <time>2020-08-11T10:03:00.960Z</time>
      </trkpt>
      <trkpt lat="43.74285" lon="1.73922">
        <ele>130.666299</ele>
        <time>2020-08-11T10:03:04.255Z</time>
      </trkpt>
      <trkpt lat="43.74268" lon="1.73965">
        <ele>130.232849</ele>
        <time>2020-08-11T10:03:11.242Z</time>
      </trkpt>
      <trkpt lat="43.74221" lon="1.74035">
        <ele>129.449964</ele>
        <time>2020-08-11T10:03:25.411Z</time>
      </trkpt>
      <trkpt lat="43.74221" lon="1.74072">
        <ele>129.242619</ele>
        <time>2020-08-11T10:03:31.120Z</time>
      </trkpt>
      <trkpt lat="43.74231" lon="1.74093">
        <ele>129.104184</ele>
        <time>2020-08-11T10:03:34.927Z</time>
      </trkpt>
      <trkpt lat="43.74249" lon="1.74106">
        <ele>128.953888</ele>
        <time>2020-08-11T10:03:39.062Z</time>
      </trkpt>
      <trkpt lat="43.74301" lon="1.74127">
        <ele>128.541794</ele>
        <time>2020-08-11T10:03:50.373Z</time>
      </trkpt>
      <trkpt lat="43.74331" lon="1.74153">
        <ele>128.274402</ele>
        <time>2020-08-11T10:03:57.729Z</time>
      </trkpt>
      <trkpt lat="43.74353" lon="1.74191">
        <ele>128.035353</ele>
        <time>2020-08-11T10:04:05.107Z</time>
      </trkpt>
      <trkpt lat="43.74449" lon="1.74493">
        <ele>126.68238</ele>
        <time>2020-08-11T10:04:55.370Z</time>
      </trkpt>
      <trkpt lat="43.74473" lon="1.74551">
        <ele>126.483296</ele>
        <time>2020-08-11T10:05:05.803Z</time>
      </trkpt>
      <trkpt lat="43.74551" lon="1.74746">
        <ele>126.276369</ele>
        <time>2020-08-11T10:05:42.922Z</time>
      </trkpt>
      <trkpt lat="43.74575" lon="1.74825">
        <ele>126.269369</ele>
        <time>2020-08-11T10:05:57.731Z</time>
      </trkpt>
      <trkpt lat="43.746" lon="1.74928">
        <ele>126.205559</ele>
        <time>2020-08-11T10:06:15.910Z</time>
      </trkpt>
      <trkpt lat="43.74697" lon="1.74987">
        <ele>126.114044</ele>
        <time>2020-08-11T10:06:39.932Z</time>
      </trkpt>
      <trkpt lat="43.74773" lon="1.75033">
        <ele>125.943818</ele>
        <time>2020-08-11T10:06:58.545Z</time>
      </trkpt>
      <trkpt lat="43.74786" lon="1.75041">
        <ele>125.914154</ele>
        <time>2020-08-11T10:07:01.619Z</time>
      </trkpt>
      <trkpt lat="43.74793" lon="1.75045">
        <ele>125.900036</ele>
        <time>2020-08-11T10:07:03.316Z</time>
      </trkpt>
      <trkpt lat="43.74846" lon="1.75063">
        <ele>125.787378</ele>
        <time>2020-08-11T10:07:15.557Z</time>
      </trkpt>
      <trkpt lat="43.74928" lon="1.75082">
        <ele>125.558033</ele>
        <time>2020-08-11T10:07:34.097Z</time>
      </trkpt>
      <trkpt lat="43.74996" lon="1.75094">
        <ele>125.356041</ele>
        <time>2020-08-11T10:07:49.429Z</time>
      </trkpt>
      <trkpt lat="43.74996" lon="1.75094">
        <ele>125.355127</ele>
        <time>2020-08-11T10:07:49.465Z</time>
      </trkpt>
      <trkpt lat="43.75119" lon="1.75126">
        <ele>124.87298</ele>
        <time>2020-08-11T10:08:16.423Z</time>
      </trkpt>
      <trkpt lat="43.75189" lon="1.75131">
        <ele>124.567377</ele>
        <time>2020-08-11T10:08:31.440Z</time>
      </trkpt>
      <trkpt lat="43.75219" lon="1.75141">
        <ele>124.432773</ele>
        <time>2020-08-11T10:08:38.202Z</time>
      </trkpt>
      <trkpt lat="43.75226" lon="1.75144">
        <ele>124.408362</ele>
        <time>2020-08-11T10:08:39.813Z</time>
      </trkpt>
      <trkpt lat="43.75262" lon="1.75157">
        <ele>124.301914</ele>
        <time>2020-08-11T10:08:48.082Z</time>
      </trkpt>
      <trkpt lat="43.7538" lon="1.7523">
        <ele>123.935948</ele>
        <time>2020-08-11T10:09:16.710Z</time>
      </trkpt>
      <trkpt lat="43.75543" lon="1.75338">
        <ele>123.502073</ele>
        <time>2020-08-11T10:09:57.096Z</time>
      </trkpt>
      <trkpt lat="43.75658" lon="1.75406">
        <ele>122.80373</ele>
        <time>2020-08-11T10:10:23.706Z</time>
      </trkpt>
      <trkpt lat="43.75879" lon="1.75559">
        <ele>121.215112</ele>
        <time>2020-08-11T10:11:15.326Z</time>
      </trkpt>
      <trkpt lat="43.76003" lon="1.75673">
        <ele>120.789891</ele>
        <time>2020-08-11T10:11:48.345Z</time>
      </trkpt>
      <trkpt lat="43.76228" lon="1.75846">
        <ele>120.638482</ele>
        <time>2020-08-11T10:12:47.547Z</time>
      </trkpt>
      <trkpt lat="43.7624" lon="1.75859">
        <ele>120.643288</ele>
        <time>2020-08-11T10:12:50.995Z</time>
      </trkpt>
      <trkpt lat="43.76243" lon="1.75872">
        <ele>120.646481</ele>
        <time>2020-08-11T10:12:53.264Z</time>
      </trkpt>
      <trkpt lat="43.76242" lon="1.75892">
        <ele>120.651058</ele>
        <time>2020-08-11T10:12:56.623Z</time>
      </trkpt>
      <trkpt lat="43.76239" lon="1.75915">
        <ele>120.656472</ele>
        <time>2020-08-11T10:13:00.537Z</time>
      </trkpt>
      <trkpt lat="43.76197" lon="1.75972">
        <ele>120.675274</ele>
        <time>2020-08-11T10:13:14.359Z</time>
      </trkpt>
      <trkpt lat="43.76197" lon="1.75972">
        <ele>120.675353</ele>
        <time>2020-08-11T10:13:14.427Z</time>
      </trkpt>
      <trkpt lat="43.76175" lon="1.76">
        <ele>120.709715</ele>
        <time>2020-08-11T10:13:21.640Z</time>
      </trkpt>
      <trkpt lat="43.76014" lon="1.76133">
        <ele>120.919024</ele>
        <time>2020-08-11T10:14:06.537Z</time>
      </trkpt>
      <trkpt lat="43.7601" lon="1.7614">
        <ele>120.901816</ele>
        <time>2020-08-11T10:14:08.228Z</time>
      </trkpt>
      <trkpt lat="43.76226" lon="1.76242">
        <ele>120.201436</ele>
        <time>2020-08-11T10:14:55.544Z</time>
      </trkpt>
      <trkpt lat="43.7628" lon="1.76269">
        <ele>119.97357</ele>
        <time>2020-08-11T10:15:07.648Z</time>
      </trkpt>
      <trkpt lat="43.76366" lon="1.76338">
        <ele>119.18084</ele>
        <time>2020-08-11T10:15:28.925Z</time>
      </trkpt>
      <trkpt lat="43.7637" lon="1.76342">
        <ele>119.125362</ele>
        <time>2020-08-11T10:15:29.842Z</time>
      </trkpt>
      <trkpt lat="43.76374" lon="1.76346">
        <ele>119.073971</ele>
        <time>2020-08-11T10:15:30.764Z</time>
      </trkpt>
      <trkpt lat="43.76383" lon="1.76352">
        <ele>118.963168</ele>
        <time>2020-08-11T10:15:32.662Z</time>
      </trkpt>
      <trkpt lat="43.76391" lon="1.76353">
        <ele>118.869514</ele>
        <time>2020-08-11T10:15:34.311Z</time>
      </trkpt>
      <trkpt lat="43.76396" lon="1.76365">
        <ele>118.759796</ele>
        <time>2020-08-11T10:15:36.136Z</time>
      </trkpt>
      <trkpt lat="43.76428" lon="1.76401">
        <ele>118.306956</ele>
        <time>2020-08-11T10:15:43.397Z</time>
      </trkpt>
      <trkpt lat="43.76466" lon="1.76426">
        <ele>117.836419</ele>
        <time>2020-08-11T10:15:50.593Z</time>
      </trkpt>
      <trkpt lat="43.76482" lon="1.7643">
        <ele>118.229547</ele>
        <time>2020-08-11T10:15:53.230Z</time>
      </trkpt>
      <trkpt lat="43.7651" lon="1.76438">
        <ele>119.090001</ele>
        <time>2020-08-11T10:15:58.675Z</time>
      </trkpt>
      <trkpt lat="43.7662" lon="1.76463">
        <ele>122.359725</ele>
        <time>2020-08-11T10:16:39.554Z</time>
      </trkpt>
      <trkpt lat="43.76628" lon="1.76464">
        <ele>122.605979</ele>
        <time>2020-08-11T10:16:42.607Z</time>
      </trkpt>
      <trkpt lat="43.76664" lon="1.76471">
        <ele>125.102961</ele>
        <time>2020-08-11T10:17:00.671Z</time>
      </trkpt>
      <trkpt lat="43.76674" lon="1.76473">
        <ele>126.141028</ele>
        <time>2020-08-11T10:17:09.066Z</time>
      </trkpt>
      <trkpt lat="43.76692" lon="1.76484">
        <ele>128.131914</ele>
        <time>2020-08-11T10:17:18.239Z</time>
      </trkpt>
      <trkpt lat="43.76704" lon="1.76503">
        <ele>130.030059</ele>
        <time>2020-08-11T10:17:31.774Z</time>
      </trkpt>
      <trkpt lat="43.76725" lon="1.76581">
        <ele>136.278766</ele>
        <time>2020-08-11T10:18:11.554Z</time>
      </trkpt>
      <trkpt lat="43.76726" lon="1.76662">
        <ele>142.253451</ele>
        <time>2020-08-11T10:18:57.122Z</time>
      </trkpt>
      <trkpt lat="43.7672" lon="1.76743">
        <ele>147.738996</ele>
        <time>2020-08-11T10:19:33.675Z</time>
      </trkpt>
      <trkpt lat="43.76694" lon="1.76868">
        <ele>156.416441</ele>
        <time>2020-08-11T10:20:26.896Z</time>
      </trkpt>
      <trkpt lat="43.7669" lon="1.76944">
        <ele>160.504614</ele>
        <time>2020-08-11T10:20:55.478Z</time>
      </trkpt>
      <trkpt lat="43.76654" lon="1.77141">
        <ele>169.539415</ele>
        <time>2020-08-11T10:22:03.009Z</time>
      </trkpt>
      <trkpt lat="43.76643" lon="1.77175">
        <ele>170.45573</ele>
        <time>2020-08-11T10:22:14.002Z</time>
      </trkpt>
      <trkpt lat="43.76614" lon="1.77211">
        <ele>171.766456</ele>
        <time>2020-08-11T10:22:29.209Z</time>
      </trkpt>
      <trkpt lat="43.76586" lon="1.77259">
        <ele>173.301235</ele>
        <time>2020-08-11T10:22:45.402Z</time>
      </trkpt>
      <trkpt lat="43.76573" lon="1.77301">
        <ele>174.423986</ele>
        <time>2020-08-11T10:22:56.314Z</time>
      </trkpt>
      <trkpt lat="43.76568" lon="1.7734">
        <ele>175.400165</ele>
        <time>2020-08-11T10:23:04.737Z</time>
      </trkpt>
      <trkpt lat="43.76563" lon="1.77381">
        <ele>176.070731</ele>
        <time>2020-08-11T10:23:12.782Z</time>
      </trkpt>
      <trkpt lat="43.76508" lon="1.77364">
        <ele>177.127876</ele>
        <time>2020-08-11T10:23:28.710Z</time>
      </trkpt>
      <trkpt lat="43.76464" lon="1.7735">
        <ele>177.969197</ele>
        <time>2020-08-11T10:23:42.192Z</time>
      </trkpt>
      <trkpt lat="43.76446" lon="1.77344">
        <ele>178.325838</ele>
        <time>2020-08-11T10:23:48.085Z</time>
      </trkpt>
      <trkpt lat="43.76422" lon="1.77344">
        <ele>178.773717</ele>
        <time>2020-08-11T10:23:55.642Z</time>
      </trkpt>
      <trkpt lat="43.7642" lon="1.77345">
        <ele>178.818693</ele>
        <time>2020-08-11T10:23:56.011Z</time>
      </trkpt>
      <trkpt lat="43.76403" lon="1.77352">
        <ele>179.203486</ele>
        <time>2020-08-11T10:24:02.392Z</time>
      </trkpt>
      <trkpt lat="43.76383" lon="1.77364">
        <ele>179.844218</ele>
        <time>2020-08-11T10:24:08.082Z</time>
      </trkpt>
      <trkpt lat="43.76375" lon="1.7737">
        <ele>180.116923</ele>
        <time>2020-08-11T10:24:11.916Z</time>
      </trkpt>
      <trkpt lat="43.76351" lon="1.77385">
        <ele>180.881201</ele>
        <time>2020-08-11T10:24:18.763Z</time>
      </trkpt>
      <trkpt lat="43.76345" lon="1.77388">
        <ele>181.057709</ele>
        <time>2020-08-11T10:24:21.260Z</time>
      </trkpt>
      <trkpt lat="43.76336" lon="1.77396">
        <ele>181.376972</ele>
        <time>2020-08-11T10:24:24.831Z</time>
      </trkpt>
      <trkpt lat="43.76335" lon="1.77397">
        <ele>181.398554</ele>
        <time>2020-08-11T10:24:25.082Z</time>
      </trkpt>
      <trkpt lat="43.7633" lon="1.77402">
        <ele>181.599948</ele>
        <time>2020-08-11T10:24:26.828Z</time>
      </trkpt>
      <trkpt lat="43.76327" lon="1.77405">
        <ele>181.691067</ele>
        <time>2020-08-11T10:24:28.057Z</time>
      </trkpt>
      <trkpt lat="43.76311" lon="1.77424">
        <ele>182.299099</ele>
        <time>2020-08-11T10:24:35.047Z</time>
      </trkpt>
      <trkpt lat="43.76274" lon="1.77481">
        <ele>183.925688</ele>
        <time>2020-08-11T10:24:55.659Z</time>
      </trkpt>
      <trkpt lat="43.76251" lon="1.77499">
        <ele>184.831858</ele>
        <time>2020-08-11T10:25:06.101Z</time>
      </trkpt>
      <trkpt lat="43.76227" lon="1.7754">
        <ele>186.323214</ele>
        <time>2020-08-11T10:25:21.460Z</time>
      </trkpt>
      <trkpt lat="43.76221" lon="1.7755">
        <ele>186.681632</ele>
        <time>2020-08-11T10:25:25.276Z</time>
      </trkpt>
      <trkpt lat="43.76183" lon="1.77609">
        <ele>188.9116</ele>
        <time>2020-08-11T10:25:46.223Z</time>
      </trkpt>
      <trkpt lat="43.76144" lon="1.77668">
        <ele>191.132226</ele>
        <time>2020-08-11T10:26:07.473Z</time>
      </trkpt>
      <trkpt lat="43.76156" lon="1.77692">
        <ele>191.898975</ele>
        <time>2020-08-11T10:26:15.640Z</time>
      </trkpt>
      <trkpt lat="43.76198" lon="1.77816">
        <ele>195.483994</ele>
        <time>2020-08-11T10:26:53.567Z</time>
      </trkpt>
      <trkpt lat="43.76239" lon="1.77883">
        <ele>197.755812</ele>
        <time>2020-08-11T10:27:15.303Z</time>
      </trkpt>
      <trkpt lat="43.76252" lon="1.77943">
        <ele>199.30519</ele>
        <time>2020-08-11T10:27:30.479Z</time>
      </trkpt>
      <trkpt lat="43.76256" lon="1.77973">
        <ele>200.059483</ele>
        <time>2020-08-11T10:27:37.884Z</time>
      </trkpt>
      <trkpt lat="43.76258" lon="1.77995">
        <ele>200.613604</ele>
        <time>2020-08-11T10:27:43.798Z</time>
      </trkpt>
      <trkpt lat="43.76251" lon="1.78056">
        <ele>202.151599</ele>
        <time>2020-08-11T10:27:59.926Z</time>
      </trkpt>
      <trkpt lat="43.76215" lon="1.78127">
        <ele>204.395697</ele>
        <time>2020-08-11T10:28:23.929Z</time>
      </trkpt>
      <trkpt lat="43.76177" lon="1.78257">
        <ele>208.629165</ele>
        <time>2020-08-11T10:29:03.433Z</time>
      </trkpt>
      <trkpt lat="43.76118" lon="1.7854">
        <ele>217.151736</ele>
        <time>2020-08-11T10:30:27.046Z</time>
      </trkpt>
      <trkpt lat="43.76102" lon="1.78603">
        <ele>218.790586</ele>
        <time>2020-08-11T10:30:44.145Z</time>
      </trkpt>
      <trkpt lat="43.76105" lon="1.7868">
        <ele>219.919095</ele>
        <time>2020-08-11T10:31:01.682Z</time>
      </trkpt>
      <trkpt lat="43.76109" lon="1.7871">
        <ele>220.371145</ele>
        <time>2020-08-11T10:31:08.701Z</time>
      </trkpt>
      <trkpt lat="43.76124" lon="1.7882">
        <ele>222.020863</ele>
        <time>2020-08-11T10:31:31.695Z</time>
      </trkpt>
      <trkpt lat="43.76135" lon="1.78879">
        <ele>222.524899</ele>
        <time>2020-08-11T10:31:43.163Z</time>
      </trkpt>
      <trkpt lat="43.76154" lon="1.78923">
        <ele>222.884699</ele>
        <time>2020-08-11T10:31:52.647Z</time>
      </trkpt>
      <trkpt lat="43.76182" lon="1.78961">
        <ele>223.269349</ele>
        <time>2020-08-11T10:32:02.678Z</time>
      </trkpt>
      <trkpt lat="43.76248" lon="1.79027">
        <ele>224.007918</ele>
        <time>2020-08-11T10:32:23.902Z</time>
      </trkpt>
      <trkpt lat="43.76269" lon="1.79054">
        <ele>224.180925</ele>
        <time>2020-08-11T10:32:31.185Z</time>
      </trkpt>
      <trkpt lat="43.76287" lon="1.79123">
        <ele>224.503549</ele>
        <time>2020-08-11T10:32:44.399Z</time>
      </trkpt>
      <trkpt lat="43.76297" lon="1.7921">
        <ele>224.892019</ele>
        <time>2020-08-11T10:32:59.835Z</time>
      </trkpt>
      <trkpt lat="43.76297" lon="1.7926">
        <ele>225.049618</ele>
        <time>2020-08-11T10:33:08.340Z</time>
      </trkpt>
      <trkpt lat="43.7625" lon="1.79474">
        <ele>225.392855</ele>
        <time>2020-08-11T10:33:45.547Z</time>
      </trkpt>
      <trkpt lat="43.76249" lon="1.79534">
        <ele>225.36425</ele>
        <time>2020-08-11T10:33:55.561Z</time>
      </trkpt>
      <trkpt lat="43.76257" lon="1.79578">
        <ele>225.335757</ele>
        <time>2020-08-11T10:34:03.038Z</time>
      </trkpt>
      <trkpt lat="43.76317" lon="1.79702">
        <ele>225.2396</ele>
        <time>2020-08-11T10:34:26.182Z</time>
      </trkpt>
      <trkpt lat="43.76363" lon="1.79843">
        <ele>224.642614</ele>
        <time>2020-08-11T10:34:49.320Z</time>
      </trkpt>
      <trkpt lat="43.76381" lon="1.7986">
        <ele>224.528538</ele>
        <time>2020-08-11T10:34:53.681Z</time>
      </trkpt>
      <trkpt lat="43.76496" lon="1.79936">
        <ele>223.844672</ele>
        <time>2020-08-11T10:35:19.305Z</time>
      </trkpt>
      <trkpt lat="43.76512" lon="1.79964">
        <ele>223.708349</ele>
        <time>2020-08-11T10:35:24.521Z</time>
      </trkpt>
      <trkpt lat="43.7652" lon="1.80009">
        <ele>223.528949</ele>
        <time>2020-08-11T10:35:31.417Z</time>
      </trkpt>
      <trkpt lat="43.76542" lon="1.80165">
        <ele>223.343138</ele>
        <time>2020-08-11T10:35:55.676Z</time>
      </trkpt>
      <trkpt lat="43.76537" lon="1.80222">
        <ele>223.353417</ele>
        <time>2020-08-11T10:36:04.919Z</time>
      </trkpt>
      <trkpt lat="43.76515" lon="1.80306">
        <ele>223.408947</ele>
        <time>2020-08-11T10:36:20.299Z</time>
      </trkpt>
      <trkpt lat="43.76514" lon="1.80345">
        <ele>223.769511</ele>
        <time>2020-08-11T10:36:26.904Z</time>
      </trkpt>
      <trkpt lat="43.76522" lon="1.80362">
        <ele>223.972779</ele>
        <time>2020-08-11T10:36:30.607Z</time>
      </trkpt>
      <trkpt lat="43.76631" lon="1.80433">
        <ele>225.542633</ele>
        <time>2020-08-11T10:37:03.415Z</time>
      </trkpt>
      <trkpt lat="43.76635" lon="1.80469">
        <ele>226.236702</ele>
        <time>2020-08-11T10:37:11.910Z</time>
      </trkpt>
      <trkpt lat="43.76641" lon="1.80551">
        <ele>228.722603</ele>
        <time>2020-08-11T10:37:33.302Z</time>
      </trkpt>
      <trkpt lat="43.76731" lon="1.80769">
        <ele>236.263077</ele>
        <time>2020-08-11T10:38:50.657Z</time>
      </trkpt>
      <trkpt lat="43.76735" lon="1.80822">
        <ele>237.907601</ele>
        <time>2020-08-11T10:39:07.504Z</time>
      </trkpt>
      <trkpt lat="43.76769" lon="1.80951">
        <ele>240.403274</ele>
        <time>2020-08-11T10:39:42.435Z</time>
      </trkpt>
      <trkpt lat="43.76776" lon="1.81043">
        <ele>239.635653</ele>
        <time>2020-08-11T10:39:55.610Z</time>
      </trkpt>
      <trkpt lat="43.76779" lon="1.81095">
        <ele>239.204036</ele>
        <time>2020-08-11T10:40:01.989Z</time>
      </trkpt>
      <trkpt lat="43.76786" lon="1.81193">
        <ele>237.5878</ele>
        <time>2020-08-11T10:40:13.172Z</time>
      </trkpt>
      <trkpt lat="43.76848" lon="1.81379">
        <ele>231.591867</ele>
        <time>2020-08-11T10:40:35.857Z</time>
      </trkpt>
      <trkpt lat="43.7685" lon="1.81408">
        <ele>231.124585</ele>
        <time>2020-08-11T10:40:39.418Z</time>
      </trkpt>
      <trkpt lat="43.76829" lon="1.81491">
        <ele>229.984686</ele>
        <time>2020-08-11T10:40:51.360Z</time>
      </trkpt>
      <trkpt lat="43.76821" lon="1.81819">
        <ele>224.739541</ele>
        <time>2020-08-11T10:41:35.405Z</time>
      </trkpt>
      <trkpt lat="43.76823" lon="1.81855">
        <ele>224.066325</ele>
        <time>2020-08-11T10:41:39.485Z</time>
      </trkpt>
      <trkpt lat="43.768" lon="1.81929">
        <ele>221.109066</ele>
        <time>2020-08-11T10:41:47.970Z</time>
      </trkpt>
      <trkpt lat="43.7679" lon="1.81963">
        <ele>219.487319</ele>
        <time>2020-08-11T10:41:51.812Z</time>
      </trkpt>
      <trkpt lat="43.76784" lon="1.82005">
        <ele>217.573233</ele>
        <time>2020-08-11T10:41:56.306Z</time>
      </trkpt>
      <trkpt lat="43.7679" lon="1.82044">
        <ele>215.779232</ele>
        <time>2020-08-11T10:42:00.475Z</time>
      </trkpt>
      <trkpt lat="43.76808" lon="1.82105">
        <ele>212.852708</ele>
        <time>2020-08-11T10:42:07.273Z</time>
      </trkpt>
      <trkpt lat="43.76836" lon="1.82246">
        <ele>208.463031</ele>
        <time>2020-08-11T10:42:23.430Z</time>
      </trkpt>
      <trkpt lat="43.76846" lon="1.82313">
        <ele>206.455774</ele>
        <time>2020-08-11T10:42:31.465Z</time>
      </trkpt>
      <trkpt lat="43.76846" lon="1.82352">
        <ele>205.307803</ele>
        <time>2020-08-11T10:42:36.283Z</time>
      </trkpt>
      <trkpt lat="43.76836" lon="1.82441">
        <ele>204.823571</ele>
        <time>2020-08-11T10:42:48.001Z</time>
      </trkpt>
      <trkpt lat="43.7686" lon="1.82453">
        <ele>204.656564</ele>
        <time>2020-08-11T10:42:52.954Z</time>
      </trkpt>
      <trkpt lat="43.76889" lon="1.82484">
        <ele>204.411182</ele>
        <time>2020-08-11T10:43:00.552Z</time>
      </trkpt>
      <trkpt lat="43.76906" lon="1.82516">
        <ele>204.220031</ele>
        <time>2020-08-11T10:43:07.006Z</time>
      </trkpt>
      <trkpt lat="43.76916" lon="1.82545">
        <ele>204.06745</ele>
        <time>2020-08-11T10:43:12.486Z</time>
      </trkpt>
      <trkpt lat="43.7692" lon="1.82608">
        <ele>205.193072</ele>
        <time>2020-08-11T10:43:25.771Z</time>
      </trkpt>
      <trkpt lat="43.76898" lon="1.82741">
        <ele>207.773684</ele>
        <time>2020-08-11T10:43:58.500Z</time>
      </trkpt>
      <trkpt lat="43.7691" lon="1.82807">
        <ele>209.36036</ele>
        <time>2020-08-11T10:44:16.703Z</time>
      </trkpt>
      <trkpt lat="43.76942" lon="1.82849">
        <ele>211.798583</ele>
        <time>2020-08-11T10:44:34.877Z</time>
      </trkpt>
      <trkpt lat="43.7698" lon="1.82864">
        <ele>213.95256</ele>
        <time>2020-08-11T10:44:52.147Z</time>
      </trkpt>
      <trkpt lat="43.77011" lon="1.82863">
        <ele>215.626605</ele>
        <time>2020-08-11T10:45:06.442Z</time>
      </trkpt>
      <trkpt lat="43.77102" lon="1.82841">
        <ele>221.675622</ele>
        <time>2020-08-11T10:45:51.037Z</time>
      </trkpt>
      <trkpt lat="43.77161" lon="1.82866">
        <ele>226.574049</ele>
        <time>2020-08-11T10:46:25.138Z</time>
      </trkpt>
      <trkpt lat="43.77178" lon="1.82881">
        <ele>228.238768</ele>
        <time>2020-08-11T10:46:35.480Z</time>
      </trkpt>
      <trkpt lat="43.77186" lon="1.82909">
        <ele>229.933152</ele>
        <time>2020-08-11T10:46:49.878Z</time>
      </trkpt>
      <trkpt lat="43.77189" lon="1.82987">
        <ele>234.484745</ele>
        <time>2020-08-11T10:47:22.750Z</time>
      </trkpt>
      <trkpt lat="43.77179" lon="1.83027">
        <ele>237.012949</ele>
        <time>2020-08-11T10:47:40.090Z</time>
      </trkpt>
      <trkpt lat="43.77178" lon="1.83035">
        <ele>237.506922</ele>
        <time>2020-08-11T10:47:44.367Z</time>
      </trkpt>
      <trkpt lat="43.7718" lon="1.83046">
        <ele>238.148353</ele>
        <time>2020-08-11T10:47:50.479Z</time>
      </trkpt>
      <trkpt lat="43.77211" lon="1.83118">
        <ele>243.14758</ele>
        <time>2020-08-11T10:48:23.188Z</time>
      </trkpt>
      <trkpt lat="43.77298" lon="1.83272">
        <ele>252.325998</ele>
        <time>2020-08-11T10:49:37.831Z</time>
      </trkpt>
      <trkpt lat="43.77332" lon="1.8339">
        <ele>257.2159</ele>
        <time>2020-08-11T10:50:13.245Z</time>
      </trkpt>
      <trkpt lat="43.77364" lon="1.83454">
        <ele>258.600611</ele>
        <time>2020-08-11T10:50:32.081Z</time>
      </trkpt>
      <trkpt lat="43.77377" lon="1.83475">
        <ele>259.048881</ele>
        <time>2020-08-11T10:50:38.471Z</time>
      </trkpt>
      <trkpt lat="43.77421" lon="1.83515">
        <ele>260.231746</ele>
        <time>2020-08-11T10:50:55.038Z</time>
      </trkpt>
      <trkpt lat="43.77441" lon="1.83545">
        <ele>260.882282</ele>
        <time>2020-08-11T10:51:03.920Z</time>
      </trkpt>
      <trkpt lat="43.77455" lon="1.83579">
        <ele>261.485813</ele>
        <time>2020-08-11T10:51:12.293Z</time>
      </trkpt>
      <trkpt lat="43.77468" lon="1.83687">
        <ele>262.774363</ele>
        <time>2020-08-11T10:51:35.939Z</time>
      </trkpt>
      <trkpt lat="43.77485" lon="1.83761">
        <ele>263.694314</ele>
        <time>2020-08-11T10:51:53.396Z</time>
      </trkpt>
      <trkpt lat="43.77504" lon="1.8382">
        <ele>264.382537</ele>
        <time>2020-08-11T10:52:08.092Z</time>
      </trkpt>
      <trkpt lat="43.77654" lon="1.84022">
        <ele>263.112213</ele>
        <time>2020-08-11T10:52:56.612Z</time>
      </trkpt>
      <trkpt lat="43.77668" lon="1.8407">
        <ele>261.534196</ele>
        <time>2020-08-11T10:53:02.755Z</time>
      </trkpt>
      <trkpt lat="43.77679" lon="1.84087">
        <ele>260.871676</ele>
        <time>2020-08-11T10:53:05.263Z</time>
      </trkpt>
      <trkpt lat="43.77728" lon="1.84135">
        <ele>258.343508</ele>
        <time>2020-08-11T10:53:14.610Z</time>
      </trkpt>
      <trkpt lat="43.77784" lon="1.84195">
        <ele>254.913389</ele>
        <time>2020-08-11T10:53:25.296Z</time>
      </trkpt>
      <trkpt lat="43.77884" lon="1.84302">
        <ele>248.077205</ele>
        <time>2020-08-11T10:53:45.052Z</time>
      </trkpt>
      <trkpt lat="43.77915" lon="1.84337">
        <ele>246.745279</ele>
        <time>2020-08-11T10:53:51.874Z</time>
      </trkpt>
      <trkpt lat="43.77954" lon="1.84375">
        <ele>245.707091</ele>
        <time>2020-08-11T10:54:00.635Z</time>
      </trkpt>
      <trkpt lat="43.78055" lon="1.84443">
        <ele>243.276306</ele>
        <time>2020-08-11T10:54:22.508Z</time>
      </trkpt>
      <trkpt lat="43.7808" lon="1.84471">
        <ele>242.540638</ele>
        <time>2020-08-11T10:54:28.458Z</time>
      </trkpt>
      <trkpt lat="43.78103" lon="1.84505">
        <ele>241.776903</ele>
        <time>2020-08-11T10:54:34.563Z</time>
      </trkpt>
      <trkpt lat="43.78133" lon="1.8455">
        <ele>240.782734</ele>
        <time>2020-08-11T10:54:42.500Z</time>
      </trkpt>
      <trkpt lat="43.78153" lon="1.84574">
        <ele>240.183047</ele>
        <time>2020-08-11T10:54:47.000Z</time>
      </trkpt>
      <trkpt lat="43.78284" lon="1.84697">
        <ele>238.281622</ele>
        <time>2020-08-11T10:55:15.606Z</time>
      </trkpt>
      <trkpt lat="43.78299" lon="1.84732">
        <ele>238.023316</ele>
        <time>2020-08-11T10:55:23.023Z</time>
      </trkpt>
      <trkpt lat="43.78331" lon="1.84835">
        <ele>240.361372</ele>
        <time>2020-08-11T10:55:48.642Z</time>
      </trkpt>
      <trkpt lat="43.78344" lon="1.84863">
        <ele>241.591091</ele>
        <time>2020-08-11T10:55:58.332Z</time>
      </trkpt>
      <trkpt lat="43.78422" lon="1.84962">
        <ele>247.074629</ele>
        <time>2020-08-11T10:56:51.829Z</time>
      </trkpt>
      <trkpt lat="43.78441" lon="1.84978">
        <ele>248.887206</ele>
        <time>2020-08-11T10:57:04.497Z</time>
      </trkpt>
      <trkpt lat="43.78507" lon="1.85007">
        <ele>254.537156</ele>
        <time>2020-08-11T10:57:43.503Z</time>
      </trkpt>
      <trkpt lat="43.78535" lon="1.85012">
        <ele>256.919838</ele>
        <time>2020-08-11T10:58:00.312Z</time>
      </trkpt>
      <trkpt lat="43.78608" lon="1.8499">
        <ele>262.665018</ele>
        <time>2020-08-11T10:58:44.012Z</time>
      </trkpt>
      <trkpt lat="43.78622" lon="1.8499">
        <ele>263.442927</ele>
        <time>2020-08-11T10:58:51.241Z</time>
      </trkpt>
      <trkpt lat="43.78635" lon="1.84999">
        <ele>264.289829</ele>
        <time>2020-08-11T10:58:58.647Z</time>
      </trkpt>
      <trkpt lat="43.78716" lon="1.8508">
        <ele>270.050457</ele>
        <time>2020-08-11T10:59:44.236Z</time>
      </trkpt>
      <trkpt lat="43.78714" lon="1.85096">
        <ele>270.719794</ele>
        <time>2020-08-11T10:59:48.778Z</time>
      </trkpt>
      <trkpt lat="43.78712" lon="1.85133">
        <ele>272.188622</ele>
        <time>2020-08-11T10:59:59.280Z</time>
      </trkpt>
      <trkpt lat="43.78716" lon="1.85162">
        <ele>272.614085</ele>
        <time>2020-08-11T11:00:07.312Z</time>
      </trkpt>
      <trkpt lat="43.78763" lon="1.85402">
        <ele>275.24208</ele>
        <time>2020-08-11T11:00:58.821Z</time>
      </trkpt>
      <trkpt lat="43.78781" lon="1.85498">
        <ele>273.876013</ele>
        <time>2020-08-11T11:01:12.259Z</time>
      </trkpt>
      <trkpt lat="43.78821" lon="1.85594">
        <ele>272.350134</ele>
        <time>2020-08-11T11:01:25.259Z</time>
      </trkpt>
      <trkpt lat="43.78847" lon="1.8576">
        <ele>267.161125</ele>
        <time>2020-08-11T11:01:43.942Z</time>
      </trkpt>
      <trkpt lat="43.78849" lon="1.85815">
        <ele>265.422988</ele>
        <time>2020-08-11T11:01:50.154Z</time>
      </trkpt>
      <trkpt lat="43.78847" lon="1.85836">
        <ele>264.75001</ele>
        <time>2020-08-11T11:01:52.488Z</time>
      </trkpt>
      <trkpt lat="43.78842" lon="1.85868">
        <ele>263.940857</ele>
        <time>2020-08-11T11:01:56.296Z</time>
      </trkpt>
      <trkpt lat="43.78814" lon="1.85958">
        <ele>261.784204</ele>
        <time>2020-08-11T11:02:07.795Z</time>
      </trkpt>
      <trkpt lat="43.78663" lon="1.86274">
        <ele>254.464637</ele>
        <time>2020-08-11T11:02:54.188Z</time>
      </trkpt>
      <trkpt lat="43.78645" lon="1.86352">
        <ele>253.113754</ele>
        <time>2020-08-11T11:03:04.472Z</time>
      </trkpt>
      <trkpt lat="43.78639" lon="1.86421">
        <ele>251.958323</ele>
        <time>2020-08-11T11:03:13.076Z</time>
      </trkpt>
      <trkpt lat="43.78625" lon="1.86463">
        <ele>251.184136</ele>
        <time>2020-08-11T11:03:18.809Z</time>
      </trkpt>
      <trkpt lat="43.78601" lon="1.86497">
        <ele>250.39637</ele>
        <time>2020-08-11T11:03:24.644Z</time>
      </trkpt>
      <trkpt lat="43.78559" lon="1.86533">
        <ele>249.708484</ele>
        <time>2020-08-11T11:03:33.374Z</time>
      </trkpt>
      <trkpt lat="43.78554" lon="1.86538">
        <ele>249.629713</ele>
        <time>2020-08-11T11:03:34.357Z</time>
      </trkpt>
      <trkpt lat="43.78538" lon="1.86552">
        <ele>249.382455</ele>
        <time>2020-08-11T11:03:37.888Z</time>
      </trkpt>
      <trkpt lat="43.78516" lon="1.86596">
        <ele>248.857017</ele>
        <time>2020-08-11T11:03:45.353Z</time>
      </trkpt>
      <trkpt lat="43.78516" lon="1.86609">
        <ele>248.736987</ele>
        <time>2020-08-11T11:03:46.908Z</time>
      </trkpt>
      <trkpt lat="43.78526" lon="1.86604">
        <ele>248.592479</ele>
        <time>2020-08-11T11:03:49.066Z</time>
      </trkpt>
      <trkpt lat="43.78547" lon="1.86593">
        <ele>248.296185</ele>
        <time>2020-08-11T11:03:53.411Z</time>
      </trkpt>
      <trkpt lat="43.78614" lon="1.86595">
        <ele>248.446909</ele>
        <time>2020-08-11T11:04:06.911Z</time>
      </trkpt>
      <trkpt lat="43.7871" lon="1.8663">
        <ele>249.699183</ele>
        <time>2020-08-11T11:04:34.884Z</time>
      </trkpt>
      <trkpt lat="43.78716" lon="1.86659">
        <ele>249.977396</ele>
        <time>2020-08-11T11:04:41.959Z</time>
      </trkpt>
      <trkpt lat="43.78711" lon="1.86699">
        <ele>250.586884</ele>
        <time>2020-08-11T11:04:51.620Z</time>
      </trkpt>
      <trkpt lat="43.78715" lon="1.86719">
        <ele>251.1107</ele>
        <time>2020-08-11T11:04:56.696Z</time>
      </trkpt>
      <trkpt lat="43.7874" lon="1.86728">
        <ele>252.018074</ele>
        <time>2020-08-11T11:05:05.684Z</time>
      </trkpt>
      <trkpt lat="43.78768" lon="1.86723">
        <ele>253.030951</ele>
        <time>2020-08-11T11:05:16.061Z</time>
      </trkpt>
      <trkpt lat="43.78801" lon="1.86708">
        <ele>254.253976</ele>
        <time>2020-08-11T11:05:29.162Z</time>
      </trkpt>
      <trkpt lat="43.78878" lon="1.86616">
        <ele>257.683325</ele>
        <time>2020-08-11T11:06:08.355Z</time>
      </trkpt>
      <trkpt lat="43.78914" lon="1.86594">
        <ele>258.923262</ele>
        <time>2020-08-11T11:06:22.862Z</time>
      </trkpt>
      <trkpt lat="43.7894" lon="1.86589">
        <ele>259.740219</ele>
        <time>2020-08-11T11:06:32.013Z</time>
      </trkpt>
      <trkpt lat="43.78957" lon="1.86597">
        <ele>260.287101</ele>
        <time>2020-08-11T11:06:37.939Z</time>
      </trkpt>
      <trkpt lat="43.79023" lon="1.86667">
        <ele>262.619642</ele>
        <time>2020-08-11T11:07:04.413Z</time>
      </trkpt>
      <trkpt lat="43.79036" lon="1.86698">
        <ele>263.145073</ele>
        <time>2020-08-11T11:07:12.284Z</time>
      </trkpt>
      <trkpt lat="43.79036" lon="1.8674">
        <ele>263.747705</ele>
        <time>2020-08-11T11:07:21.012Z</time>
      </trkpt>
      <trkpt lat="43.79005" lon="1.86854">
        <ele>265.503811</ele>
        <time>2020-08-11T11:07:46.194Z</time>
      </trkpt>
      <trkpt lat="43.79008" lon="1.86874">
        <ele>265.833353</ele>
        <time>2020-08-11T11:07:50.766Z</time>
      </trkpt>
      <trkpt lat="43.79021" lon="1.86893">
        <ele>266.462373</ele>
        <time>2020-08-11T11:07:56.793Z</time>
      </trkpt>
      <trkpt lat="43.79116" lon="1.86924">
        <ele>269.716097</ele>
        <time>2020-08-11T11:08:31.951Z</time>
      </trkpt>
      <trkpt lat="43.79209" lon="1.86958">
        <ele>273.008805</ele>
        <time>2020-08-11T11:09:08.738Z</time>
      </trkpt>
      <trkpt lat="43.79215" lon="1.87001">
        <ele>274.126065</ele>
        <time>2020-08-11T11:09:20.792Z</time>
      </trkpt>
      <trkpt lat="43.79235" lon="1.87184">
        <ele>278.695277</ele>
        <time>2020-08-11T11:10:08.793Z</time>
      </trkpt>
      <trkpt lat="43.79285" lon="1.87486">
        <ele>285.096339</ele>
        <time>2020-08-11T11:11:22.694Z</time>
      </trkpt>
      <trkpt lat="43.79287" lon="1.87542">
        <ele>286.291605</ele>
        <time>2020-08-11T11:11:37.085Z</time>
      </trkpt>
      <trkpt lat="43.79224" lon="1.87785">
        <ele>290.608866</ele>
        <time>2020-08-11T11:12:40.589Z</time>
      </trkpt>
      <trkpt lat="43.79198" lon="1.87922">
        <ele>291.834591</ele>
        <time>2020-08-11T11:13:04.737Z</time>
      </trkpt>
      <trkpt lat="43.79197" lon="1.87967">
        <ele>291.768298</ele>
        <time>2020-08-11T11:13:11.445Z</time>
      </trkpt>
      <trkpt lat="43.79212" lon="1.8802">
        <ele>291.685754</ele>
        <time>2020-08-11T11:13:19.483Z</time>
      </trkpt>
      <trkpt lat="43.79238" lon="1.88088">
        <ele>291.571852</ele>
        <time>2020-08-11T11:13:30.720Z</time>
      </trkpt>
      <trkpt lat="43.79262" lon="1.88133">
        <ele>291.662797</ele>
        <time>2020-08-11T11:13:40.526Z</time>
      </trkpt>
      <trkpt lat="43.79349" lon="1.88216">
        <ele>292.222219</ele>
        <time>2020-08-11T11:14:06.122Z</time>
      </trkpt>
      <trkpt lat="43.79357" lon="1.8823">
        <ele>292.293211</ele>
        <time>2020-08-11T11:14:10.400Z</time>
      </trkpt>
      <trkpt lat="43.7938" lon="1.8832">
        <ele>292.833463</ele>
        <time>2020-08-11T11:14:27.376Z</time>
      </trkpt>
      <trkpt lat="43.79393" lon="1.88347">
        <ele>293.093898</ele>
        <time>2020-08-11T11:14:32.997Z</time>
      </trkpt>
      <trkpt lat="43.79413" lon="1.88366">
        <ele>293.355964</ele>
        <time>2020-08-11T11:14:39.716Z</time>
      </trkpt>
      <trkpt lat="43.79437" lon="1.88375">
        <ele>293.627907</ele>
        <time>2020-08-11T11:14:46.591Z</time>
      </trkpt>
      <trkpt lat="43.79491" lon="1.88388">
        <ele>294.227909</ele>
        <time>2020-08-11T11:15:00.239Z</time>
      </trkpt>
      <trkpt lat="43.79514" lon="1.88402">
        <ele>294.602375</ele>
        <time>2020-08-11T11:15:07.132Z</time>
      </trkpt>
      <trkpt lat="43.79533" lon="1.88425">
        <ele>295.370999</ele>
        <time>2020-08-11T11:15:14.309Z</time>
      </trkpt>
      <trkpt lat="43.79589" lon="1.8852">
        <ele>298.138505</ele>
        <time>2020-08-11T11:15:45.692Z</time>
      </trkpt>
      <trkpt lat="43.79605" lon="1.88538">
        <ele>298.759859</ele>
        <time>2020-08-11T11:15:53.510Z</time>
      </trkpt>
      <trkpt lat="43.79631" lon="1.88552">
        <ele>299.645699</ele>
        <time>2020-08-11T11:16:04.805Z</time>
      </trkpt>
      <trkpt lat="43.79664" lon="1.8855">
        <ele>300.716092</ele>
        <time>2020-08-11T11:16:17.524Z</time>
      </trkpt>
      <trkpt lat="43.7971" lon="1.88533">
        <ele>302.339256</ele>
        <time>2020-08-11T11:16:35.683Z</time>
      </trkpt>
      <trkpt lat="43.7974" lon="1.8853">
        <ele>303.348469</ele>
        <time>2020-08-11T11:16:46.753Z</time>
      </trkpt>
      <trkpt lat="43.79767" lon="1.88545">
        <ele>304.323487</ele>
        <time>2020-08-11T11:16:56.946Z</time>
      </trkpt>
      <trkpt lat="43.79768" lon="1.88546">
        <ele>304.360295</ele>
        <time>2020-08-11T11:16:57.573Z</time>
      </trkpt>
      <trkpt lat="43.79918" lon="1.88688">
        <ele>308.766917</ele>
        <time>2020-08-11T11:17:55.306Z</time>
      </trkpt>
      <trkpt lat="43.8" lon="1.88736">
        <ele>309.912802</ele>
        <time>2020-08-11T11:18:19.845Z</time>
      </trkpt>
      <trkpt lat="43.80062" lon="1.88785">
        <ele>310.116254</ele>
        <time>2020-08-11T11:18:36.509Z</time>
      </trkpt>
      <trkpt lat="43.80074" lon="1.88804">
        <ele>310.166366</ele>
        <time>2020-08-11T11:18:40.516Z</time>
      </trkpt>
      <trkpt lat="43.80118" lon="1.88876">
        <ele>310.219983</ele>
        <time>2020-08-11T11:18:54.627Z</time>
      </trkpt>
      <trkpt lat="43.80126" lon="1.88973">
        <ele>309.839615</ele>
        <time>2020-08-11T11:19:08.667Z</time>
      </trkpt>
      <trkpt lat="43.80126" lon="1.89055">
        <ele>309.514602</ele>
        <time>2020-08-11T11:19:20.902Z</time>
      </trkpt>
      <trkpt lat="43.80117" lon="1.89157">
        <ele>309.155301</ele>
        <time>2020-08-11T11:19:36.648Z</time>
      </trkpt>
      <trkpt lat="43.80103" lon="1.89248">
        <ele>308.863075</ele>
        <time>2020-08-11T11:19:50.489Z</time>
      </trkpt>
      <trkpt lat="43.80053" lon="1.89386">
        <ele>308.577482</ele>
        <time>2020-08-11T11:20:13.328Z</time>
      </trkpt>
      <trkpt lat="43.80027" lon="1.89454">
        <ele>308.615647</ele>
        <time>2020-08-11T11:20:25.685Z</time>
      </trkpt>
      <trkpt lat="43.80017" lon="1.89502">
        <ele>308.64061</ele>
        <time>2020-08-11T11:20:33.931Z</time>
      </trkpt>
      <trkpt lat="43.80016" lon="1.89534">
        <ele>308.656186</ele>
        <time>2020-08-11T11:20:39.254Z</time>
      </trkpt>
      <trkpt lat="43.80026" lon="1.89586">
        <ele>308.599839</ele>
        <time>2020-08-11T11:20:49.099Z</time>
      </trkpt>
      <trkpt lat="43.80039" lon="1.89657">
        <ele>308.297602</ele>
        <time>2020-08-11T11:21:02.718Z</time>
      </trkpt>
      <trkpt lat="43.80041" lon="1.89749">
        <ele>307.914695</ele>
        <time>2020-08-11T11:21:15.820Z</time>
      </trkpt>
      <trkpt lat="43.80068" lon="1.89852">
        <ele>306.912933</ele>
        <time>2020-08-11T11:21:30.034Z</time>
      </trkpt>
      <trkpt lat="43.80069" lon="1.89864">
        <ele>306.727709</ele>
        <time>2020-08-11T11:21:31.336Z</time>
      </trkpt>
      <trkpt lat="43.80074" lon="1.89875">
        <ele>306.511411</ele>
        <time>2020-08-11T11:21:32.893Z</time>
      </trkpt>
      <trkpt lat="43.8011" lon="1.89986">
        <ele>304.484284</ele>
        <time>2020-08-11T11:21:48.239Z</time>
      </trkpt>
      <trkpt lat="43.80136" lon="1.89974">
        <ele>303.853481</ele>
        <time>2020-08-11T11:21:52.786Z</time>
      </trkpt>
      <trkpt lat="43.80158" lon="1.89956">
        <ele>303.131209</ele>
        <time>2020-08-11T11:21:56.907Z</time>
      </trkpt>
      <trkpt lat="43.80228" lon="1.89856">
        <ele>299.484198</ele>
        <time>2020-08-11T11:22:13.868Z</time>
      </trkpt>
      <trkpt lat="43.80273" lon="1.89819">
        <ele>297.570376</ele>
        <time>2020-08-11T11:22:22.156Z</time>
      </trkpt>
      <trkpt lat="43.80314" lon="1.89811">
        <ele>294.976666</ele>
        <time>2020-08-11T11:22:28.317Z</time>
      </trkpt>
      <trkpt lat="43.80445" lon="1.89851">
        <ele>284.170482</ele>
        <time>2020-08-11T11:22:46.925Z</time>
      </trkpt>
      <trkpt lat="43.80499" lon="1.89863">
        <ele>279.464478</ele>
        <time>2020-08-11T11:22:54.436Z</time>
      </trkpt>
      <trkpt lat="43.80538" lon="1.89859">
        <ele>276.04144</ele>
        <time>2020-08-11T11:22:59.753Z</time>
      </trkpt>
      <trkpt lat="43.80572" lon="1.89847">
        <ele>272.969027</ele>
        <time>2020-08-11T11:23:04.537Z</time>
      </trkpt>
      <trkpt lat="43.80597" lon="1.89836">
        <ele>270.630708</ele>
        <time>2020-08-11T11:23:08.179Z</time>
      </trkpt>
      <trkpt lat="43.80655" lon="1.89821">
        <ele>265.822837</ele>
        <time>2020-08-11T11:23:16.497Z</time>
      </trkpt>
      <trkpt lat="43.80695" lon="1.89814">
        <ele>263.523798</ele>
        <time>2020-08-11T11:23:22.243Z</time>
      </trkpt>
      <trkpt lat="43.80915" lon="1.89785">
        <ele>252.068883</ele>
        <time>2020-08-11T11:23:55.774Z</time>
      </trkpt>
      <trkpt lat="43.80965" lon="1.89779">
        <ele>249.879124</ele>
        <time>2020-08-11T11:24:03.479Z</time>
      </trkpt>
      <trkpt lat="43.81111" lon="1.8973">
        <ele>244.04607</ele>
        <time>2020-08-11T11:24:27.406Z</time>
      </trkpt>
      <trkpt lat="43.81188" lon="1.89688">
        <ele>240.872356</ele>
        <time>2020-08-11T11:24:40.681Z</time>
      </trkpt>
      <trkpt lat="43.81321" lon="1.89592">
        <ele>234.367975</ele>
        <time>2020-08-11T11:25:03.721Z</time>
      </trkpt>
      <trkpt lat="43.81349" lon="1.89585">
        <ele>233.247097</ele>
        <time>2020-08-11T11:25:08.109Z</time>
      </trkpt>
      <trkpt lat="43.81364" lon="1.89588">
        <ele>232.68614</ele>
        <time>2020-08-11T11:25:10.473Z</time>
      </trkpt>
      <trkpt lat="43.81385" lon="1.89604">
        <ele>231.834171</ele>
        <time>2020-08-11T11:25:14.088Z</time>
      </trkpt>
      <trkpt lat="43.81595" lon="1.89782">
        <ele>224.565422</ele>
        <time>2020-08-11T11:25:54.382Z</time>
      </trkpt>
      <trkpt lat="43.8167" lon="1.89874">
        <ele>222.878457</ele>
        <time>2020-08-11T11:26:14.446Z</time>
      </trkpt>
      <trkpt lat="43.81716" lon="1.89901">
        <ele>222.477707</ele>
        <time>2020-08-11T11:26:24.670Z</time>
      </trkpt>
      <trkpt lat="43.81832" lon="1.89992">
        <ele>220.940939</ele>
        <time>2020-08-11T11:26:50.700Z</time>
      </trkpt>
      <trkpt lat="43.81873" lon="1.90014">
        <ele>220.161843</ele>
        <time>2020-08-11T11:26:58.487Z</time>
      </trkpt>
      <trkpt lat="43.81971" lon="1.90041">
        <ele>218.297513</ele>
        <time>2020-08-11T11:27:15.834Z</time>
      </trkpt>
      <trkpt lat="43.82052" lon="1.90055">
        <ele>216.231772</ele>
        <time>2020-08-11T11:27:29.574Z</time>
      </trkpt>
      <trkpt lat="43.8216" lon="1.9008">
        <ele>213.457474</ele>
        <time>2020-08-11T11:27:48.016Z</time>
      </trkpt>
      <trkpt lat="43.82328" lon="1.90095">
        <ele>209.417319</ele>
        <time>2020-08-11T11:28:16.521Z</time>
      </trkpt>
      <trkpt lat="43.82449" lon="1.90134">
        <ele>207.44487</ele>
        <time>2020-08-11T11:28:38.928Z</time>
      </trkpt>
      <trkpt lat="43.82568" lon="1.90164">
        <ele>206.437573</ele>
        <time>2020-08-11T11:29:02.786Z</time>
      </trkpt>
      <trkpt lat="43.82754" lon="1.90254">
        <ele>205.73901</ele>
        <time>2020-08-11T11:29:46.108Z</time>
      </trkpt>
      <trkpt lat="43.82813" lon="1.90305">
        <ele>205.504321</ele>
        <time>2020-08-11T11:30:00.382Z</time>
      </trkpt>
      <trkpt lat="43.82845" lon="1.90319">
        <ele>205.403508</ele>
        <time>2020-08-11T11:30:06.827Z</time>
      </trkpt>
      <trkpt lat="43.8287" lon="1.90324">
        <ele>205.332785</ele>
        <time>2020-08-11T11:30:12.075Z</time>
      </trkpt>
      <trkpt lat="43.82912" lon="1.90331">
        <ele>205.217974</ele>
        <time>2020-08-11T11:30:20.759Z</time>
      </trkpt>
      <trkpt lat="43.82971" lon="1.90342">
        <ele>205.05369</ele>
        <time>2020-08-11T11:30:33.641Z</time>
      </trkpt>
      <trkpt lat="43.83049" lon="1.90353">
        <ele>205.202542</ele>
        <time>2020-08-11T11:30:51.897Z</time>
      </trkpt>
      <trkpt lat="43.83086" lon="1.90367">
        <ele>205.441609</ele>
        <time>2020-08-11T11:31:01.692Z</time>
      </trkpt>
      <trkpt lat="43.83115" lon="1.90406">
        <ele>205.690674</ele>
        <time>2020-08-11T11:31:12.774Z</time>
      </trkpt>
      <trkpt lat="43.83139" lon="1.90492">
        <ele>206.065492</ele>
        <time>2020-08-11T11:31:31.248Z</time>
      </trkpt>
      <trkpt lat="43.83156" lon="1.90621">
        <ele>206.002406</ele>
        <time>2020-08-11T11:31:54.072Z</time>
      </trkpt>
      <trkpt lat="43.83203" lon="1.90811">
        <ele>205.669059</ele>
        <time>2020-08-11T11:32:24.327Z</time>
      </trkpt>
      <trkpt lat="43.83208" lon="1.9085">
        <ele>205.546165</ele>
        <time>2020-08-11T11:32:30.275Z</time>
      </trkpt>
      <trkpt lat="43.83194" lon="1.90947">
        <ele>205.240185</ele>
        <time>2020-08-11T11:32:45.901Z</time>
      </trkpt>
      <trkpt lat="43.83205" lon="1.90972">
        <ele>205.209783</ele>
        <time>2020-08-11T11:32:50.894Z</time>
      </trkpt>
      <trkpt lat="43.83348" lon="1.91177">
        <ele>206.117679</ele>
        <time>2020-08-11T11:33:43.630Z</time>
      </trkpt>
      <trkpt lat="43.83465" lon="1.91325">
        <ele>206.693046</ele>
        <time>2020-08-11T11:34:22.533Z</time>
      </trkpt>
      <trkpt lat="43.835" lon="1.91364">
        <ele>206.708003</ele>
        <time>2020-08-11T11:34:32.888Z</time>
      </trkpt>
      <trkpt lat="43.83616" lon="1.91429">
        <ele>206.751736</ele>
        <time>2020-08-11T11:35:01.686Z</time>
      </trkpt>
      <trkpt lat="43.83657" lon="1.91508">
        <ele>206.8542</ele>
        <time>2020-08-11T11:35:17.935Z</time>
      </trkpt>
      <trkpt lat="43.83697" lon="1.91598">
        <ele>206.965856</ele>
        <time>2020-08-11T11:35:35.975Z</time>
      </trkpt>
      <trkpt lat="43.83742" lon="1.91771">
        <ele>207.394431</ele>
        <time>2020-08-11T11:36:08.508Z</time>
      </trkpt>
      <trkpt lat="43.83897" lon="1.92129">
        <ele>208.841307</ele>
        <time>2020-08-11T11:37:24.524Z</time>
      </trkpt>
      <trkpt lat="43.83964" lon="1.9227">
        <ele>209.572906</ele>
        <time>2020-08-11T11:37:55.439Z</time>
      </trkpt>
      <trkpt lat="43.83974" lon="1.92288">
        <ele>209.669628</ele>
        <time>2020-08-11T11:37:59.671Z</time>
      </trkpt>
      <trkpt lat="43.83991" lon="1.92316">
        <ele>209.913002</ele>
        <time>2020-08-11T11:38:06.626Z</time>
      </trkpt>
      <trkpt lat="43.84032" lon="1.92405">
        <ele>210.636224</ele>
        <time>2020-08-11T11:38:28.191Z</time>
      </trkpt>
      <trkpt lat="43.84047" lon="1.92466">
        <ele>211.075476</ele>
        <time>2020-08-11T11:38:40.847Z</time>
      </trkpt>
      <trkpt lat="43.8405" lon="1.9254">
        <ele>211.341848</ele>
        <time>2020-08-11T11:38:54.922Z</time>
      </trkpt>
      <trkpt lat="43.84049" lon="1.92587">
        <ele>211.305865</ele>
        <time>2020-08-11T11:39:03.477Z</time>
      </trkpt>
      <trkpt lat="43.84079" lon="1.92775">
        <ele>211.148077</ele>
        <time>2020-08-11T11:39:33.601Z</time>
      </trkpt>
      <trkpt lat="43.84092" lon="1.92828">
        <ele>211.07522</ele>
        <time>2020-08-11T11:39:41.754Z</time>
      </trkpt>
      <trkpt lat="43.84163" lon="1.9296">
        <ele>210.863024</ele>
        <time>2020-08-11T11:40:08.120Z</time>
      </trkpt>
      <trkpt lat="43.84272" lon="1.93098">
        <ele>212.879723</ele>
        <time>2020-08-11T11:40:51.927Z</time>
      </trkpt>
      <trkpt lat="43.84295" lon="1.93128">
        <ele>213.3261</ele>
        <time>2020-08-11T11:41:01.788Z</time>
      </trkpt>
      <trkpt lat="43.84313" lon="1.93152">
        <ele>213.564487</ele>
        <time>2020-08-11T11:41:08.961Z</time>
      </trkpt>
      <trkpt lat="43.84339" lon="1.93202">
        <ele>213.941446</ele>
        <time>2020-08-11T11:41:21.803Z</time>
      </trkpt>
      <trkpt lat="43.84384" lon="1.9332">
        <ele>214.757446</ele>
        <time>2020-08-11T11:41:46.299Z</time>
      </trkpt>
      <trkpt lat="43.84389" lon="1.93357">
        <ele>214.973217</ele>
        <time>2020-08-11T11:41:52.541Z</time>
      </trkpt>
      <trkpt lat="43.84386" lon="1.93475">
        <ele>215.479095</ele>
        <time>2020-08-11T11:42:13.237Z</time>
      </trkpt>
      <trkpt lat="43.84386" lon="1.93496">
        <ele>215.566919</ele>
        <time>2020-08-11T11:42:16.930Z</time>
      </trkpt>
      <trkpt lat="43.84382" lon="1.93597">
        <ele>215.998827</ele>
        <time>2020-08-11T11:42:36.421Z</time>
      </trkpt>
      <trkpt lat="43.8437" lon="1.93726">
        <ele>216.590293</ele>
        <time>2020-08-11T11:43:03.670Z</time>
      </trkpt>
      <trkpt lat="43.8437" lon="1.93876">
        <ele>216.709244</ele>
        <time>2020-08-11T11:43:29.155Z</time>
      </trkpt>
      <trkpt lat="43.84372" lon="1.93919">
        <ele>216.149305</ele>
        <time>2020-08-11T11:43:35.460Z</time>
      </trkpt>
      <trkpt lat="43.84383" lon="1.93977">
        <ele>215.373029</ele>
        <time>2020-08-11T11:43:43.570Z</time>
      </trkpt>
      <trkpt lat="43.8439" lon="1.93992">
        <ele>215.144345</ele>
        <time>2020-08-11T11:43:45.883Z</time>
      </trkpt>
      <trkpt lat="43.844" lon="1.94">
        <ele>214.924844</ele>
        <time>2020-08-11T11:43:48.123Z</time>
      </trkpt>
      <trkpt lat="43.84438" lon="1.94002">
        <ele>214.246518</ele>
        <time>2020-08-11T11:43:54.750Z</time>
      </trkpt>
      <trkpt lat="43.84455" lon="1.9401">
        <ele>213.912603</ele>
        <time>2020-08-11T11:43:57.906Z</time>
      </trkpt>
      <trkpt lat="43.84512" lon="1.94067">
        <ele>212.015553</ele>
        <time>2020-08-11T11:44:09.587Z</time>
      </trkpt>
      <trkpt lat="43.8457" lon="1.94137">
        <ele>209.891646</ele>
        <time>2020-08-11T11:44:22.893Z</time>
      </trkpt>
      <trkpt lat="43.84612" lon="1.9419">
        <ele>209.129786</ele>
        <time>2020-08-11T11:44:33.785Z</time>
      </trkpt>
      <trkpt lat="43.84612" lon="1.94216">
        <ele>209.281771</ele>
        <time>2020-08-11T11:44:37.651Z</time>
      </trkpt>
      <trkpt lat="43.84613" lon="1.94246">
        <ele>209.456844</ele>
        <time>2020-08-11T11:44:42.886Z</time>
      </trkpt>
      <trkpt lat="43.8463" lon="1.94322">
        <ele>209.928294</ele>
        <time>2020-08-11T11:44:56.898Z</time>
      </trkpt>
      <trkpt lat="43.84629" lon="1.9433">
        <ele>209.974413</ele>
        <time>2020-08-11T11:44:58.115Z</time>
      </trkpt>
      <trkpt lat="43.84636" lon="1.94337">
        <ele>210.042352</ele>
        <time>2020-08-11T11:45:01.676Z</time>
      </trkpt>
      <trkpt lat="43.84688" lon="1.94585">
        <ele>213.880333</ele>
        <time>2020-08-11T11:46:06.769Z</time>
      </trkpt>
      <trkpt lat="43.84702" lon="1.94612">
        <ele>214.469377</ele>
        <time>2020-08-11T11:46:14.468Z</time>
      </trkpt>
      <trkpt lat="43.84866" lon="1.94806">
        <ele>216.218342</ele>
        <time>2020-08-11T11:47:11.271Z</time>
      </trkpt>
      <trkpt lat="43.84906" lon="1.94857">
        <ele>215.798535</ele>
        <time>2020-08-11T11:47:23.182Z</time>
      </trkpt>
      <trkpt lat="43.8499" lon="1.9496">
        <ele>214.801963</ele>
        <time>2020-08-11T11:47:45.145Z</time>
      </trkpt>
      <trkpt lat="43.85026" lon="1.95015">
        <ele>213.255794</ele>
        <time>2020-08-11T11:47:54.898Z</time>
      </trkpt>
      <trkpt lat="43.85033" lon="1.95024">
        <ele>212.995641</ele>
        <time>2020-08-11T11:47:56.573Z</time>
      </trkpt>
      <trkpt lat="43.85077" lon="1.95081">
        <ele>211.268915</ele>
        <time>2020-08-11T11:48:06.987Z</time>
      </trkpt>
      <trkpt lat="43.85136" lon="1.95134">
        <ele>209.425746</ele>
        <time>2020-08-11T11:48:18.640Z</time>
      </trkpt>
      <trkpt lat="43.85168" lon="1.95182">
        <ele>208.494396</ele>
        <time>2020-08-11T11:48:26.402Z</time>
      </trkpt>
      <trkpt lat="43.85184" lon="1.95197">
        <ele>208.101062</ele>
        <time>2020-08-11T11:48:29.871Z</time>
      </trkpt>
      <trkpt lat="43.85194" lon="1.95199">
        <ele>207.893878</ele>
        <time>2020-08-11T11:48:31.640Z</time>
      </trkpt>
      <trkpt lat="43.85192" lon="1.95221">
        <ele>207.576771</ele>
        <time>2020-08-11T11:48:34.422Z</time>
      </trkpt>
      <trkpt lat="43.85245" lon="1.95459">
        <ele>208.056795</ele>
        <time>2020-08-11T11:49:18.044Z</time>
      </trkpt>
      <trkpt lat="43.85246" lon="1.9549">
        <ele>208.417</ele>
        <time>2020-08-11T11:49:26.294Z</time>
      </trkpt>
      <trkpt lat="43.85234" lon="1.95555">
        <ele>209.302863</ele>
        <time>2020-08-11T11:49:44.900Z</time>
      </trkpt>
      <trkpt lat="43.85173" lon="1.95745">
        <ele>215.712403</ele>
        <time>2020-08-11T11:50:45.877Z</time>
      </trkpt>
      <trkpt lat="43.85166" lon="1.95803">
        <ele>217.675489</ele>
        <time>2020-08-11T11:51:03.194Z</time>
      </trkpt>
      <trkpt lat="43.85165" lon="1.95855">
        <ele>219.616014</ele>
        <time>2020-08-11T11:51:18.981Z</time>
      </trkpt>
      <trkpt lat="43.85184" lon="1.95933">
        <ele>222.727186</ele>
        <time>2020-08-11T11:51:45.016Z</time>
      </trkpt>
      <trkpt lat="43.85194" lon="1.95972">
        <ele>224.255435</ele>
        <time>2020-08-11T11:51:58.186Z</time>
      </trkpt>
      <trkpt lat="43.85216" lon="1.96064">
        <ele>228.414189</ele>
        <time>2020-08-11T11:52:31.097Z</time>
      </trkpt>
      <trkpt lat="43.85234" lon="1.96213">
        <ele>235.71134</ele>
        <time>2020-08-11T11:53:26.585Z</time>
      </trkpt>
      <trkpt lat="43.85253" lon="1.96297">
        <ele>239.401292</ele>
        <time>2020-08-11T11:54:00.017Z</time>
      </trkpt>
      <trkpt lat="43.8528" lon="1.96385">
        <ele>242.531039</ele>
        <time>2020-08-11T11:54:34.092Z</time>
      </trkpt>
      <trkpt lat="43.85286" lon="1.96466">
        <ele>245.20727</ele>
        <time>2020-08-11T11:54:56.277Z</time>
      </trkpt>
      <trkpt lat="43.85307" lon="1.96573">
        <ele>244.273788</ele>
        <time>2020-08-11T11:55:15.441Z</time>
      </trkpt>
      <trkpt lat="43.85309" lon="1.96621">
        <ele>242.870514</ele>
        <time>2020-08-11T11:55:21.473Z</time>
      </trkpt>
      <trkpt lat="43.85302" lon="1.96781">
        <ele>236.988364</ele>
        <time>2020-08-11T11:55:38.889Z</time>
      </trkpt>
      <trkpt lat="43.85299" lon="1.96842">
        <ele>232.995007</ele>
        <time>2020-08-11T11:55:45.177Z</time>
      </trkpt>
      <trkpt lat="43.85294" lon="1.96927">
        <ele>227.411794</ele>
        <time>2020-08-11T11:55:53.999Z</time>
      </trkpt>
      <trkpt lat="43.85277" lon="1.96988">
        <ele>223.112076</ele>
        <time>2020-08-11T11:56:00.765Z</time>
      </trkpt>
      <trkpt lat="43.85239" lon="1.97065">
        <ele>216.969579</ele>
        <time>2020-08-11T11:56:10.531Z</time>
      </trkpt>
      <trkpt lat="43.85222" lon="1.97196">
        <ele>208.2903</ele>
        <time>2020-08-11T11:56:24.392Z</time>
      </trkpt>
      <trkpt lat="43.85166" lon="1.97377">
        <ele>198.611073</ele>
        <time>2020-08-11T11:56:45.485Z</time>
      </trkpt>
      <trkpt lat="43.85147" lon="1.97572">
        <ele>194.212829</ele>
        <time>2020-08-11T11:57:09.109Z</time>
      </trkpt>
      <trkpt lat="43.85134" lon="1.97634">
        <ele>193.82362</ele>
        <time>2020-08-11T11:57:19.549Z</time>
      </trkpt>
      <trkpt lat="43.85133" lon="1.97642">
        <ele>193.769113</ele>
        <time>2020-08-11T11:57:21.792Z</time>
      </trkpt>
      <trkpt lat="43.85096" lon="1.97825">
        <ele>197.223688</ele>
        <time>2020-08-11T11:58:12.055Z</time>
      </trkpt>
      <trkpt lat="43.85072" lon="1.97913">
        <ele>199.981201</ele>
        <time>2020-08-11T11:58:43.792Z</time>
      </trkpt>
      <trkpt lat="43.85053" lon="1.98004">
        <ele>201.192489</ele>
        <time>2020-08-11T11:59:10.768Z</time>
      </trkpt>
      <trkpt lat="43.85109" lon="1.98053">
        <ele>201.796467</ele>
        <time>2020-08-11T11:59:28.846Z</time>
      </trkpt>
      <trkpt lat="43.8512" lon="1.98075">
        <ele>201.976012</ele>
        <time>2020-08-11T11:59:33.209Z</time>
      </trkpt>
      <trkpt lat="43.85124" lon="1.98085">
        <ele>202.050071</ele>
        <time>2020-08-11T11:59:34.886Z</time>
      </trkpt>
      <trkpt lat="43.85126" lon="1.98114">
        <ele>202.244426</ele>
        <time>2020-08-11T11:59:38.630Z</time>
      </trkpt>
      <trkpt lat="43.85127" lon="1.98139">
        <ele>202.251804</ele>
        <time>2020-08-11T11:59:41.710Z</time>
      </trkpt>
      <trkpt lat="43.85129" lon="1.98152">
        <ele>201.80492</ele>
        <time>2020-08-11T11:59:43.127Z</time>
      </trkpt>
      <trkpt lat="43.85218" lon="1.98395">
        <ele>192.963479</ele>
        <time>2020-08-11T12:00:12.669Z</time>
      </trkpt>
      <trkpt lat="43.85227" lon="1.9842">
        <ele>192.29789</ele>
        <time>2020-08-11T12:00:15.752Z</time>
      </trkpt>
      <trkpt lat="43.85365" lon="1.98537">
        <ele>187.324521</ele>
        <time>2020-08-11T12:00:42.744Z</time>
      </trkpt>
      <trkpt lat="43.85377" lon="1.98555">
        <ele>187.005116</ele>
        <time>2020-08-11T12:00:45.962Z</time>
      </trkpt>
      <trkpt lat="43.85366" lon="1.98592">
        <ele>186.484875</ele>
        <time>2020-08-11T12:00:51.612Z</time>
      </trkpt>
      <trkpt lat="43.85354" lon="1.9864">
        <ele>185.824819</ele>
        <time>2020-08-11T12:00:58.635Z</time>
      </trkpt>
      <trkpt lat="43.8535" lon="1.98753">
        <ele>184.441962</ele>
        <time>2020-08-11T12:01:14.186Z</time>
      </trkpt>
      <trkpt lat="43.85345" lon="1.9876">
        <ele>184.347171</ele>
        <time>2020-08-11T12:01:15.614Z</time>
      </trkpt>
      <trkpt lat="43.85343" lon="1.98764">
        <ele>184.298179</ele>
        <time>2020-08-11T12:01:16.364Z</time>
      </trkpt>
      <trkpt lat="43.85391" lon="1.98782">
        <ele>183.634538</ele>
        <time>2020-08-11T12:01:26.154Z</time>
      </trkpt>
      <trkpt lat="43.85426" lon="1.98792">
        <ele>183.169654</ele>
        <time>2020-08-11T12:01:32.974Z</time>
      </trkpt>
      <trkpt lat="43.85504" lon="1.98831">
        <ele>182.251254</ele>
        <time>2020-08-11T12:01:49.216Z</time>
      </trkpt>
      <trkpt lat="43.85553" lon="1.98832">
        <ele>182.208995</ele>
        <time>2020-08-11T12:01:59.235Z</time>
      </trkpt>
      <trkpt lat="43.85594" lon="1.98822">
        <ele>182.173476</ele>
        <time>2020-08-11T12:02:08.207Z</time>
      </trkpt>
      <trkpt lat="43.85619" lon="1.98827">
        <ele>182.150909</ele>
        <time>2020-08-11T12:02:14.338Z</time>
      </trkpt>
      <trkpt lat="43.85714" lon="1.98936">
        <ele>184.048796</ele>
        <time>2020-08-11T12:02:49.060Z</time>
      </trkpt>
      <trkpt lat="43.85801" lon="1.98995">
        <ele>186.591914</ele>
        <time>2020-08-11T12:03:24.270Z</time>
      </trkpt>
      <trkpt lat="43.8587" lon="1.99056">
        <ele>190.474338</ele>
        <time>2020-08-11T12:03:58.082Z</time>
      </trkpt>
      <trkpt lat="43.8589" lon="1.99112">
        <ele>192.7327</ele>
        <time>2020-08-11T12:04:18.018Z</time>
      </trkpt>
      <trkpt lat="43.85907" lon="1.99257">
        <ele>198.588462</ele>
        <time>2020-08-11T12:05:06.674Z</time>
      </trkpt>
      <trkpt lat="43.85925" lon="1.99349">
        <ele>202.963298</ele>
        <time>2020-08-11T12:05:40.209Z</time>
      </trkpt>
      <trkpt lat="43.85938" lon="1.99377">
        <ele>204.47166</ele>
        <time>2020-08-11T12:05:52.050Z</time>
      </trkpt>
      <trkpt lat="43.85979" lon="1.99421">
        <ele>207.852713</ele>
        <time>2020-08-11T12:06:18.296Z</time>
      </trkpt>
      <trkpt lat="43.86043" lon="1.99453">
        <ele>212.456517</ele>
        <time>2020-08-11T12:06:53.960Z</time>
      </trkpt>
      <trkpt lat="43.86069" lon="1.99477">
        <ele>214.577794</ele>
        <time>2020-08-11T12:07:10.484Z</time>
      </trkpt>
      <trkpt lat="43.86132" lon="1.99555">
        <ele>219.952386</ele>
        <time>2020-08-11T12:07:52.206Z</time>
      </trkpt>
      <trkpt lat="43.86149" lon="1.99586">
        <ele>221.005098</ele>
        <time>2020-08-11T12:08:05.169Z</time>
      </trkpt>
      <trkpt lat="43.86091" lon="1.99688">
        <ele>224.545414</ele>
        <time>2020-08-11T12:08:41.376Z</time>
      </trkpt>
      <trkpt lat="43.86045" lon="1.99769">
        <ele>226.254224</ele>
        <time>2020-08-11T12:09:03.831Z</time>
      </trkpt>
      <trkpt lat="43.85994" lon="1.99861">
        <ele>226.239599</ele>
        <time>2020-08-11T12:09:22.311Z</time>
      </trkpt>
      <trkpt lat="43.85961" lon="1.9997">
        <ele>226.103041</ele>
        <time>2020-08-11T12:09:39.811Z</time>
      </trkpt>
      <trkpt lat="43.85904" lon="2.00115">
        <ele>225.285653</ele>
        <time>2020-08-11T12:10:04.175Z</time>
      </trkpt>
      <trkpt lat="43.85821" lon="2.00285">
        <ele>224.424527</ele>
        <time>2020-08-11T12:10:37.551Z</time>
      </trkpt>
      <trkpt lat="43.85792" lon="2.00374">
        <ele>224.047637</ele>
        <time>2020-08-11T12:10:52.371Z</time>
      </trkpt>
      <trkpt lat="43.85777" lon="2.00436">
        <ele>222.761352</ele>
        <time>2020-08-11T12:11:01.634Z</time>
      </trkpt>
      <trkpt lat="43.8578" lon="2.00446">
        <ele>222.538552</ele>
        <time>2020-08-11T12:11:02.841Z</time>
      </trkpt>
      <trkpt lat="43.85814" lon="2.00524">
        <ele>220.606247</ele>
        <time>2020-08-11T12:11:14.053Z</time>
      </trkpt>
      <trkpt lat="43.85826" lon="2.00567">
        <ele>219.644204</ele>
        <time>2020-08-11T12:11:19.317Z</time>
      </trkpt>
      <trkpt lat="43.85845" lon="2.00711">
        <ele>215.215097</ele>
        <time>2020-08-11T12:11:35.248Z</time>
      </trkpt>
      <trkpt lat="43.85871" lon="2.0079">
        <ele>212.297233</ele>
        <time>2020-08-11T12:11:44.697Z</time>
      </trkpt>
      <trkpt lat="43.85893" lon="2.00887">
        <ele>209.534072</ele>
        <time>2020-08-11T12:11:56.170Z</time>
      </trkpt>
      <trkpt lat="43.85925" lon="2.01046">
        <ele>206.439942</ele>
        <time>2020-08-11T12:12:17.330Z</time>
      </trkpt>
      <trkpt lat="43.86075" lon="2.01503">
        <ele>202.059686</ele>
        <time>2020-08-11T12:13:30.476Z</time>
      </trkpt>
      <trkpt lat="43.86085" lon="2.01567">
        <ele>201.591841</ele>
        <time>2020-08-11T12:13:39.731Z</time>
      </trkpt>
      <trkpt lat="43.86084" lon="2.01628">
        <ele>201.216776</ele>
        <time>2020-08-11T12:13:48.402Z</time>
      </trkpt>
      <trkpt lat="43.86069" lon="2.01701">
        <ele>200.753441</ele>
        <time>2020-08-11T12:13:59.194Z</time>
      </trkpt>
      <trkpt lat="43.85995" lon="2.01861">
        <ele>201.335825</ele>
        <time>2020-08-11T12:14:30.928Z</time>
      </trkpt>
      <trkpt lat="43.85972" lon="2.0194">
        <ele>202.225608</ele>
        <time>2020-08-11T12:14:50.207Z</time>
      </trkpt>
      <trkpt lat="43.85959" lon="2.02017">
        <ele>203.193918</ele>
        <time>2020-08-11T12:15:10.095Z</time>
      </trkpt>
      <trkpt lat="43.85953" lon="2.02086">
        <ele>204.411122</ele>
        <time>2020-08-11T12:15:29.288Z</time>
      </trkpt>
      <trkpt lat="43.85965" lon="2.02182">
        <ele>206.100473</ele>
        <time>2020-08-11T12:15:53.876Z</time>
      </trkpt>
      <trkpt lat="43.85981" lon="2.02247">
        <ele>207.07537</ele>
        <time>2020-08-11T12:16:07.970Z</time>
      </trkpt>
      <trkpt lat="43.85981" lon="2.02302">
        <ele>206.158287</ele>
        <time>2020-08-11T12:16:17.086Z</time>
      </trkpt>
      <trkpt lat="43.8598" lon="2.02389">
        <ele>204.714519</ele>
        <time>2020-08-11T12:16:28.701Z</time>
      </trkpt>
      <trkpt lat="43.86001" lon="2.02457">
        <ele>203.484283</ele>
        <time>2020-08-11T12:16:37.655Z</time>
      </trkpt>
      <trkpt lat="43.8605" lon="2.02566">
        <ele>199.198906</ele>
        <time>2020-08-11T12:16:51.920Z</time>
      </trkpt>
      <trkpt lat="43.86062" lon="2.02633">
        <ele>196.58573</ele>
        <time>2020-08-11T12:16:59.725Z</time>
      </trkpt>
      <trkpt lat="43.86091" lon="2.02695">
        <ele>193.783303</ele>
        <time>2020-08-11T12:17:08.183Z</time>
      </trkpt>
      <trkpt lat="43.86132" lon="2.02719">
        <ele>191.926444</ele>
        <time>2020-08-11T12:17:15.352Z</time>
      </trkpt>
      <trkpt lat="43.86241" lon="2.02799">
        <ele>186.889165</ele>
        <time>2020-08-11T12:17:35.637Z</time>
      </trkpt>
      <trkpt lat="43.86286" lon="2.0284">
        <ele>184.824487</ele>
        <time>2020-08-11T12:17:44.809Z</time>
      </trkpt>
      <trkpt lat="43.86306" lon="2.02994">
        <ele>180.675666</ele>
        <time>2020-08-11T12:18:03.558Z</time>
      </trkpt>
      <trkpt lat="43.86314" lon="2.0307">
        <ele>178.936398</ele>
        <time>2020-08-11T12:18:12.748Z</time>
      </trkpt>
      <trkpt lat="43.86314" lon="2.03127">
        <ele>177.857448</ele>
        <time>2020-08-11T12:18:19.830Z</time>
      </trkpt>
      <trkpt lat="43.86356" lon="2.03291">
        <ele>174.975428</ele>
        <time>2020-08-11T12:18:42.421Z</time>
      </trkpt>
      <trkpt lat="43.86391" lon="2.03517">
        <ele>175.319856</ele>
        <time>2020-08-11T12:19:22.911Z</time>
      </trkpt>
      <trkpt lat="43.86405" lon="2.03646">
        <ele>180.198405</ele>
        <time>2020-08-11T12:19:57.396Z</time>
      </trkpt>
      <trkpt lat="43.8641" lon="2.03664">
        <ele>180.917063</ele>
        <time>2020-08-11T12:20:05.171Z</time>
      </trkpt>
      <trkpt lat="43.86415" lon="2.03686">
        <ele>181.788989</ele>
        <time>2020-08-11T12:20:12.974Z</time>
      </trkpt>
      <trkpt lat="43.86459" lon="2.03777">
        <ele>186.697516</ele>
        <time>2020-08-11T12:20:56.200Z</time>
      </trkpt>
      <trkpt lat="43.86482" lon="2.03831">
        <ele>190.485653</ele>
        <time>2020-08-11T12:21:26.532Z</time>
      </trkpt>
      <trkpt lat="43.86477" lon="2.03878">
        <ele>193.411329</ele>
        <time>2020-08-11T12:21:46.946Z</time>
      </trkpt>
      <trkpt lat="43.86473" lon="2.03966">
        <ele>198.824375</ele>
        <time>2020-08-11T12:22:21.743Z</time>
      </trkpt>
      <trkpt lat="43.86472" lon="2.0398">
        <ele>199.718766</ele>
        <time>2020-08-11T12:22:29.081Z</time>
      </trkpt>
      <trkpt lat="43.86474" lon="2.04007">
        <ele>200.408536</ele>
        <time>2020-08-11T12:22:37.218Z</time>
      </trkpt>
      <trkpt lat="43.86486" lon="2.0406">
        <ele>201.481493</ele>
        <time>2020-08-11T12:22:54.582Z</time>
      </trkpt>
      <trkpt lat="43.86471" lon="2.04071">
        <ele>201.92658</ele>
        <time>2020-08-11T12:23:01.383Z</time>
      </trkpt>
      <trkpt lat="43.86455" lon="2.04089">
        <ele>202.474738</ele>
        <time>2020-08-11T12:23:07.282Z</time>
      </trkpt>
      <trkpt lat="43.86424" lon="2.04123">
        <ele>203.547578</ele>
        <time>2020-08-11T12:23:19.390Z</time>
      </trkpt>
      <trkpt lat="43.86418" lon="2.04128">
        <ele>203.747116</ele>
        <time>2020-08-11T12:23:22.677Z</time>
      </trkpt>
      <trkpt lat="43.86418" lon="2.04135">
        <ele>203.879691</ele>
        <time>2020-08-11T12:23:23.473Z</time>
      </trkpt>
      <trkpt lat="43.86479" lon="2.04255">
        <ele>202.305626</ele>
        <time>2020-08-11T12:23:42.949Z</time>
      </trkpt>
      <trkpt lat="43.86514" lon="2.04399">
        <ele>198.429427</ele>
        <time>2020-08-11T12:24:00.705Z</time>
      </trkpt>
      <trkpt lat="43.86516" lon="2.04404">
        <ele>198.17158</ele>
        <time>2020-08-11T12:24:01.330Z</time>
      </trkpt>
      <trkpt lat="43.86532" lon="2.04433">
        <ele>196.482087</ele>
        <time>2020-08-11T12:24:05.548Z</time>
      </trkpt>
      <trkpt lat="43.8655" lon="2.04466">
        <ele>194.587407</ele>
        <time>2020-08-11T12:24:09.980Z</time>
      </trkpt>
      <trkpt lat="43.8658" lon="2.04505">
        <ele>191.975932</ele>
        <time>2020-08-11T12:24:16.156Z</time>
      </trkpt>
      <trkpt lat="43.86646" lon="2.04543">
        <ele>187.372918</ele>
        <time>2020-08-11T12:24:26.928Z</time>
      </trkpt>
      <trkpt lat="43.86661" lon="2.04553">
        <ele>186.466908</ele>
        <time>2020-08-11T12:24:29.374Z</time>
      </trkpt>
      <trkpt lat="43.86669" lon="2.04558">
        <ele>185.978931</ele>
        <time>2020-08-11T12:24:30.779Z</time>
      </trkpt>
      <trkpt lat="43.86792" lon="2.0469">
        <ele>177.957798</ele>
        <time>2020-08-11T12:24:55.151Z</time>
      </trkpt>
      <trkpt lat="43.8681" lon="2.04697">
        <ele>177.515357</ele>
        <time>2020-08-11T12:24:58.434Z</time>
      </trkpt>
      <trkpt lat="43.86893" lon="2.04756">
        <ele>176.101483</ele>
        <time>2020-08-11T12:25:16.260Z</time>
      </trkpt>
      <trkpt lat="43.8692" lon="2.04786">
        <ele>175.578802</ele>
        <time>2020-08-11T12:25:23.471Z</time>
      </trkpt>
      <trkpt lat="43.86927" lon="2.04835">
        <ele>175.027644</ele>
        <time>2020-08-11T12:25:31.606Z</time>
      </trkpt>
      <trkpt lat="43.86927" lon="2.04939">
        <ele>175.553837</ele>
        <time>2020-08-11T12:25:49.834Z</time>
      </trkpt>
      <trkpt lat="43.86975" lon="2.05096">
        <ele>176.846105</ele>
        <time>2020-08-11T12:26:23.414Z</time>
      </trkpt>
      <trkpt lat="43.86978" lon="2.05126">
        <ele>177.504691</ele>
        <time>2020-08-11T12:26:29.943Z</time>
      </trkpt>
      <trkpt lat="43.86993" lon="2.05289">
        <ele>181.026095</ele>
        <time>2020-08-11T12:27:11.351Z</time>
      </trkpt>
      <trkpt lat="43.86998" lon="2.05325">
        <ele>181.941626</ele>
        <time>2020-08-11T12:27:23.045Z</time>
      </trkpt>
      <trkpt lat="43.87019" lon="2.05381">
        <ele>184.675304</ele>
        <time>2020-08-11T12:27:43.396Z</time>
      </trkpt>
      <trkpt lat="43.87037" lon="2.05442">
        <ele>187.560854</ele>
        <time>2020-08-11T12:28:06.082Z</time>
      </trkpt>
      <trkpt lat="43.87056" lon="2.05477">
        <ele>189.434886</ele>
        <time>2020-08-11T12:28:21.818Z</time>
      </trkpt>
      <trkpt lat="43.87132" lon="2.05581">
        <ele>195.71027</ele>
        <time>2020-08-11T12:29:16.363Z</time>
      </trkpt>
      <trkpt lat="43.87152" lon="2.0562">
        <ele>197.660667</ele>
        <time>2020-08-11T12:29:32.959Z</time>
      </trkpt>
      <trkpt lat="43.87161" lon="2.05647">
        <ele>198.869536</ele>
        <time>2020-08-11T12:29:42.078Z</time>
      </trkpt>
      <trkpt lat="43.8716" lon="2.05674">
        <ele>199.952477</ele>
        <time>2020-08-11T12:29:50.030Z</time>
      </trkpt>
      <trkpt lat="43.87137" lon="2.05786">
        <ele>204.064337</ele>
        <time>2020-08-11T12:30:25.157Z</time>
      </trkpt>
      <trkpt lat="43.87136" lon="2.05822">
        <ele>205.070991</ele>
        <time>2020-08-11T12:30:35.783Z</time>
      </trkpt>
      <trkpt lat="43.87148" lon="2.05858">
        <ele>206.154164</ele>
        <time>2020-08-11T12:30:46.867Z</time>
      </trkpt>
      <trkpt lat="43.87157" lon="2.05872">
        <ele>206.680091</ele>
        <time>2020-08-11T12:30:51.750Z</time>
      </trkpt>
      <trkpt lat="43.87174" lon="2.05892">
        <ele>207.554985</ele>
        <time>2020-08-11T12:31:00.633Z</time>
      </trkpt>
      <trkpt lat="43.87214" lon="2.05914">
        <ele>209.187033</ele>
        <time>2020-08-11T12:31:16.215Z</time>
      </trkpt>
      <trkpt lat="43.87406" lon="2.05977">
        <ele>214.780177</ele>
        <time>2020-08-11T12:32:24.422Z</time>
      </trkpt>
      <trkpt lat="43.87457" lon="2.06004">
        <ele>215.606823</ele>
        <time>2020-08-11T12:32:41.714Z</time>
      </trkpt>
      <trkpt lat="43.87574" lon="2.06104">
        <ele>217.039409</ele>
        <time>2020-08-11T12:33:20.879Z</time>
      </trkpt>
      <trkpt lat="43.87639" lon="2.0616">
        <ele>215.323436</ele>
        <time>2020-08-11T12:33:36.179Z</time>
      </trkpt>
      <trkpt lat="43.87653" lon="2.0617">
        <ele>214.96416</ele>
        <time>2020-08-11T12:33:38.897Z</time>
      </trkpt>
      <trkpt lat="43.87791" lon="2.06265">
        <ele>209.489335</ele>
        <time>2020-08-11T12:34:03.554Z</time>
      </trkpt>
      <trkpt lat="43.87881" lon="2.06326">
        <ele>204.825053</ele>
        <time>2020-08-11T12:34:19.447Z</time>
      </trkpt>
      <trkpt lat="43.87901" lon="2.06348">
        <ele>203.790323</ele>
        <time>2020-08-11T12:34:23.726Z</time>
      </trkpt>
      <trkpt lat="43.87981" lon="2.06525">
        <ele>197.874252</ele>
        <time>2020-08-11T12:34:48.494Z</time>
      </trkpt>
      <trkpt lat="43.88001" lon="2.06545">
        <ele>197.743676</ele>
        <time>2020-08-11T12:34:52.641Z</time>
      </trkpt>
      <trkpt lat="43.8808" lon="2.06622">
        <ele>197.234375</ele>
        <time>2020-08-11T12:35:11.525Z</time>
      </trkpt>
      <trkpt lat="43.88084" lon="2.06625">
        <ele>197.211902</ele>
        <time>2020-08-11T12:35:12.381Z</time>
      </trkpt>
      <trkpt lat="43.8812" lon="2.0666">
        <ele>196.976822</ele>
        <time>2020-08-11T12:35:24.513Z</time>
      </trkpt>
      <trkpt lat="43.88153" lon="2.0672">
        <ele>199.265365</ele>
        <time>2020-08-11T12:35:46.504Z</time>
      </trkpt>
      <trkpt lat="43.88222" lon="2.06769">
        <ele>203.27004</ele>
        <time>2020-08-11T12:36:20.995Z</time>
      </trkpt>
      <trkpt lat="43.88235" lon="2.06778">
        <ele>204.043892</ele>
        <time>2020-08-11T12:36:28.818Z</time>
      </trkpt>
      <trkpt lat="43.88241" lon="2.06783">
        <ele>204.426227</ele>
        <time>2020-08-11T12:36:33.195Z</time>
      </trkpt>
      <trkpt lat="43.88253" lon="2.06799">
        <ele>205.274657</ele>
        <time>2020-08-11T12:36:39.756Z</time>
      </trkpt>
      <trkpt lat="43.88262" lon="2.06823">
        <ele>206.284261</ele>
        <time>2020-08-11T12:36:50.884Z</time>
      </trkpt>
      <trkpt lat="43.88272" lon="2.0682">
        <ele>206.859915</ele>
        <time>2020-08-11T12:36:54.439Z</time>
      </trkpt>
      <trkpt lat="43.88319" lon="2.06712">
        <ele>212.308187</ele>
        <time>2020-08-11T12:37:39.934Z</time>
      </trkpt>
      <trkpt lat="43.88329" lon="2.06696">
        <ele>213.269932</ele>
        <time>2020-08-11T12:37:47.598Z</time>
      </trkpt>
      <trkpt lat="43.88386" lon="2.06775">
        <ele>217.931396</ele>
        <time>2020-08-11T12:38:21.172Z</time>
      </trkpt>
      <trkpt lat="43.88402" lon="2.068">
        <ele>219.169557</ele>
        <time>2020-08-11T12:38:31.346Z</time>
      </trkpt>
      <trkpt lat="43.88418" lon="2.06824">
        <ele>220.337458</ele>
        <time>2020-08-11T12:38:42.245Z</time>
      </trkpt>
      <trkpt lat="43.88452" lon="2.06951">
        <ele>225.301006</ele>
        <time>2020-08-11T12:39:25.787Z</time>
      </trkpt>
      <trkpt lat="43.88475" lon="2.06964">
        <ele>226.491759</ele>
        <time>2020-08-11T12:39:35.988Z</time>
      </trkpt>
      <trkpt lat="43.88486" lon="2.06965">
        <ele>226.98653</ele>
        <time>2020-08-11T12:39:41.422Z</time>
      </trkpt>
      <trkpt lat="43.88501" lon="2.06982">
        <ele>227.837505</ele>
        <time>2020-08-11T12:39:48.819Z</time>
      </trkpt>
      <trkpt lat="43.88539" lon="2.07051">
        <ele>230.543621</ele>
        <time>2020-08-11T12:40:12.843Z</time>
      </trkpt>
      <trkpt lat="43.88583" lon="2.07117">
        <ele>233.351199</ele>
        <time>2020-08-11T12:40:38.880Z</time>
      </trkpt>
      <trkpt lat="43.88632" lon="2.07174">
        <ele>236.208096</ele>
        <time>2020-08-11T12:41:05.449Z</time>
      </trkpt>
      <trkpt lat="43.88639" lon="2.07194">
        <ele>236.957966</ele>
        <time>2020-08-11T12:41:12.465Z</time>
      </trkpt>
      <trkpt lat="43.88648" lon="2.07265">
        <ele>239.310749</ele>
        <time>2020-08-11T12:41:34.537Z</time>
      </trkpt>
      <trkpt lat="43.88658" lon="2.07285">
        <ele>240.121078</ele>
        <time>2020-08-11T12:41:41.978Z</time>
      </trkpt>
      <trkpt lat="43.88658" lon="2.07307">
        <ele>240.838982</ele>
        <time>2020-08-11T12:41:48.420Z</time>
      </trkpt>
      <trkpt lat="43.88602" lon="2.07514">
        <ele>246.565397</ele>
        <time>2020-08-11T12:42:51.898Z</time>
      </trkpt>
      <trkpt lat="43.88603" lon="2.07531">
        <ele>246.96543</ele>
        <time>2020-08-11T12:42:55.292Z</time>
      </trkpt>
      <trkpt lat="43.88607" lon="2.07536">
        <ele>247.12967</ele>
        <time>2020-08-11T12:42:57.407Z</time>
      </trkpt>
      <trkpt lat="43.88625" lon="2.07557">
        <ele>247.939833</ele>
        <time>2020-08-11T12:43:04.336Z</time>
      </trkpt>
      <trkpt lat="43.88656" lon="2.07593">
        <ele>248.591738</ele>
        <time>2020-08-11T12:43:15.771Z</time>
      </trkpt>
      <trkpt lat="43.88675" lon="2.07645">
        <ele>249.057457</ele>
        <time>2020-08-11T12:43:27.678Z</time>
      </trkpt>
      <trkpt lat="43.88691" lon="2.0767">
        <ele>249.329412</ele>
        <time>2020-08-11T12:43:34.973Z</time>
      </trkpt>
      <trkpt lat="43.88737" lon="2.0781">
        <ele>249.986262</ele>
        <time>2020-08-11T12:44:03.594Z</time>
      </trkpt>
      <trkpt lat="43.88771" lon="2.07784">
        <ele>249.628717</ele>
        <time>2020-08-11T12:44:12.742Z</time>
      </trkpt>
      <trkpt lat="43.88973" lon="2.07649">
        <ele>245.115729</ele>
        <time>2020-08-11T12:44:54.803Z</time>
      </trkpt>
      <trkpt lat="43.88994" lon="2.07658">
        <ele>244.417473</ele>
        <time>2020-08-11T12:44:58.400Z</time>
      </trkpt>
      <trkpt lat="43.89037" lon="2.07734">
        <ele>241.569375</ele>
        <time>2020-08-11T12:45:09.323Z</time>
      </trkpt>
      <trkpt lat="43.89055" lon="2.07752">
        <ele>240.202269</ele>
        <time>2020-08-11T12:45:12.832Z</time>
      </trkpt>
      <trkpt lat="43.89066" lon="2.07754">
        <ele>239.541696</ele>
        <time>2020-08-11T12:45:14.497Z</time>
      </trkpt>
      <trkpt lat="43.8925" lon="2.07682">
        <ele>227.997018</ele>
        <time>2020-08-11T12:45:43.590Z</time>
      </trkpt>
      <trkpt lat="43.89334" lon="2.07622">
        <ele>222.288103</ele>
        <time>2020-08-11T12:45:58.063Z</time>
      </trkpt>
      <trkpt lat="43.89381" lon="2.07568">
        <ele>219.380051</ele>
        <time>2020-08-11T12:46:07.680Z</time>
      </trkpt>
      <trkpt lat="43.89451" lon="2.07642">
        <ele>215.67366</ele>
        <time>2020-08-11T12:46:21.891Z</time>
      </trkpt>
      <trkpt lat="43.89483" lon="2.0765">
        <ele>214.296851</ele>
        <time>2020-08-11T12:46:27.417Z</time>
      </trkpt>
      <trkpt lat="43.89483" lon="2.07651">
        <ele>214.287856</ele>
        <time>2020-08-11T12:46:27.433Z</time>
      </trkpt>
      <trkpt lat="43.89537" lon="2.07633">
        <ele>212.701834</ele>
        <time>2020-08-11T12:46:37.451Z</time>
      </trkpt>
      <trkpt lat="43.89581" lon="2.07614">
        <ele>211.631654</ele>
        <time>2020-08-11T12:46:45.735Z</time>
      </trkpt>
      <trkpt lat="43.89671" lon="2.07594">
        <ele>209.496369</ele>
        <time>2020-08-11T12:47:02.451Z</time>
      </trkpt>
      <trkpt lat="43.89722" lon="2.07592">
        <ele>208.171972</ele>
        <time>2020-08-11T12:47:11.552Z</time>
      </trkpt>
      <trkpt lat="43.89801" lon="2.07603">
        <ele>206.071794</ele>
        <time>2020-08-11T12:47:25.754Z</time>
      </trkpt>
      <trkpt lat="43.89842" lon="2.07624">
        <ele>204.940417</ele>
        <time>2020-08-11T12:47:33.170Z</time>
      </trkpt>
      <trkpt lat="43.89908" lon="2.07623">
        <ele>203.295823</ele>
        <time>2020-08-11T12:47:44.700Z</time>
      </trkpt>
      <trkpt lat="43.89921" lon="2.07612">
        <ele>202.930456</ele>
        <time>2020-08-11T12:47:47.350Z</time>
      </trkpt>
      <trkpt lat="43.89958" lon="2.07551">
        <ele>201.51125</ele>
        <time>2020-08-11T12:47:57.724Z</time>
      </trkpt>
      <trkpt lat="43.8999" lon="2.07533">
        <ele>200.656483</ele>
        <time>2020-08-11T12:48:04.093Z</time>
      </trkpt>
      <trkpt lat="43.90019" lon="2.07504">
        <ele>199.775911</ele>
        <time>2020-08-11T12:48:10.664Z</time>
      </trkpt>
      <trkpt lat="43.90067" lon="2.07481">
        <ele>198.493502</ele>
        <time>2020-08-11T12:48:20.345Z</time>
      </trkpt>
      <trkpt lat="43.901" lon="2.07471">
        <ele>197.670778</ele>
        <time>2020-08-11T12:48:26.465Z</time>
      </trkpt>
      <trkpt lat="43.90118" lon="2.07466">
        <ele>197.21508</ele>
        <time>2020-08-11T12:48:29.729Z</time>
      </trkpt>
      <trkpt lat="43.90148" lon="2.07453">
        <ele>196.420754</ele>
        <time>2020-08-11T12:48:35.195Z</time>
      </trkpt>
      <trkpt lat="43.90193" lon="2.07457">
        <ele>194.633648</ele>
        <time>2020-08-11T12:48:42.764Z</time>
      </trkpt>
      <trkpt lat="43.90227" lon="2.07447">
        <ele>192.662878</ele>
        <time>2020-08-11T12:48:48.283Z</time>
      </trkpt>
      <trkpt lat="43.9025" lon="2.07426">
        <ele>191.06897</ele>
        <time>2020-08-11T12:48:52.579Z</time>
      </trkpt>
      <trkpt lat="43.90271" lon="2.07396">
        <ele>189.313518</ele>
        <time>2020-08-11T12:48:57.235Z</time>
      </trkpt>
      <trkpt lat="43.90326" lon="2.07378">
        <ele>186.103022</ele>
        <time>2020-08-11T12:49:05.640Z</time>
      </trkpt>
      <trkpt lat="43.90386" lon="2.07384">
        <ele>182.314386</ele>
        <time>2020-08-11T12:49:14.674Z</time>
      </trkpt>
      <trkpt lat="43.90443" lon="2.07385">
        <ele>178.719453</ele>
        <time>2020-08-11T12:49:23.256Z</time>
      </trkpt>
      <trkpt lat="43.90503" lon="2.07403">
        <ele>174.85311</ele>
        <time>2020-08-11T12:49:32.703Z</time>
      </trkpt>
      <trkpt lat="43.90549" lon="2.07404">
        <ele>172.95631</ele>
        <time>2020-08-11T12:49:40.134Z</time>
      </trkpt>
      <trkpt lat="43.90607" lon="2.07392">
        <ele>170.989545</ele>
        <time>2020-08-11T12:49:50.084Z</time>
      </trkpt>
      <trkpt lat="43.9065" lon="2.07375">
        <ele>169.501835</ele>
        <time>2020-08-11T12:49:57.797Z</time>
      </trkpt>
      <trkpt lat="43.90674" lon="2.07379">
        <ele>168.672396</ele>
        <time>2020-08-11T12:50:02.178Z</time>
      </trkpt>
      <trkpt lat="43.90707" lon="2.074">
        <ele>167.835823</ele>
        <time>2020-08-11T12:50:08.693Z</time>
      </trkpt>
      <trkpt lat="43.9076" lon="2.07456">
        <ele>166.933214</ele>
        <time>2020-08-11T12:50:21.200Z</time>
      </trkpt>
      <trkpt lat="43.90775" lon="2.07478">
        <ele>166.63811</ele>
        <time>2020-08-11T12:50:25.476Z</time>
      </trkpt>
      <trkpt lat="43.90824" lon="2.07519">
        <ele>165.859269</ele>
        <time>2020-08-11T12:50:37.124Z</time>
      </trkpt>
      <trkpt lat="43.90856" lon="2.07534">
        <ele>165.664803</ele>
        <time>2020-08-11T12:50:44.404Z</time>
      </trkpt>
      <trkpt lat="43.90872" lon="2.07552">
        <ele>165.692625</ele>
        <time>2020-08-11T12:50:48.837Z</time>
      </trkpt>
      <trkpt lat="43.90895" lon="2.076">
        <ele>165.751071</ele>
        <time>2020-08-11T12:50:58.876Z</time>
      </trkpt>
      <trkpt lat="43.90922" lon="2.07627">
        <ele>165.797076</ele>
        <time>2020-08-11T12:51:07.165Z</time>
      </trkpt>
      <trkpt lat="43.91011" lon="2.07659">
        <ele>165.996307</ele>
        <time>2020-08-11T12:51:30.181Z</time>
      </trkpt>
      <trkpt lat="43.9104" lon="2.07706">
        <ele>166.178862</ele>
        <time>2020-08-11T12:51:41.394Z</time>
      </trkpt>
      <trkpt lat="43.91031" lon="2.07723">
        <ele>166.242589</ele>
        <time>2020-08-11T12:51:45.034Z</time>
      </trkpt>
      <trkpt lat="43.9102" lon="2.0776">
        <ele>166.362893</ele>
        <time>2020-08-11T12:51:52.108Z</time>
      </trkpt>
      <trkpt lat="43.91009" lon="2.07795">
        <ele>166.47509</ele>
        <time>2020-08-11T12:51:58.722Z</time>
      </trkpt>
      <trkpt lat="43.9099" lon="2.07856">
        <ele>166.657752</ele>
        <time>2020-08-11T12:52:09.934Z</time>
      </trkpt>
      <trkpt lat="43.90957" lon="2.07961">
        <ele>166.885049</ele>
        <time>2020-08-11T12:52:28.926Z</time>
      </trkpt>
      <trkpt lat="43.90922" lon="2.08073">
        <ele>167.129227</ele>
        <time>2020-08-11T12:52:49.616Z</time>
      </trkpt>
      <trkpt lat="43.90913" lon="2.08167">
        <ele>167.615096</ele>
        <time>2020-08-11T12:53:05.943Z</time>
      </trkpt>
      <trkpt lat="43.90828" lon="2.08517">
        <ele>170.591934</ele>
        <time>2020-08-11T12:54:14.894Z</time>
      </trkpt>
      <trkpt lat="43.90823" lon="2.08547">
        <ele>170.904007</ele>
        <time>2020-08-11T12:54:22.697Z</time>
      </trkpt>
      <trkpt lat="43.90823" lon="2.08637">
        <ele>173.558185</ele>
        <time>2020-08-11T12:54:46.128Z</time>
      </trkpt>
      <trkpt lat="43.90816" lon="2.0865">
        <ele>174.055756</ele>
        <time>2020-08-11T12:54:50.117Z</time>
      </trkpt>
      <trkpt lat="43.90814" lon="2.08653">
        <ele>174.174752</ele>
        <time>2020-08-11T12:54:51.534Z</time>
      </trkpt>
      <trkpt lat="43.90817" lon="2.08663">
        <ele>174.52047</ele>
        <time>2020-08-11T12:54:54.680Z</time>
      </trkpt>
      <trkpt lat="43.9082" lon="2.08672">
        <ele>174.816016</ele>
        <time>2020-08-11T12:54:58.919Z</time>
      </trkpt>
      <trkpt lat="43.90837" lon="2.08839">
        <ele>180.217666</ele>
        <time>2020-08-11T12:55:49.032Z</time>
      </trkpt>
      <trkpt lat="43.90846" lon="2.08876">
        <ele>181.667387</ele>
        <time>2020-08-11T12:56:01.605Z</time>
      </trkpt>
      <trkpt lat="43.90864" lon="2.08949">
        <ele>184.509741</ele>
        <time>2020-08-11T12:56:22.635Z</time>
      </trkpt>
      <trkpt lat="43.90871" lon="2.09064">
        <ele>189.146571</ele>
        <time>2020-08-11T12:57:01.801Z</time>
      </trkpt>
      <trkpt lat="43.9088" lon="2.091">
        <ele>191.104676</ele>
        <time>2020-08-11T12:57:14.442Z</time>
      </trkpt>
      <trkpt lat="43.90831" lon="2.09168">
        <ele>196.052396</ele>
        <time>2020-08-11T12:57:49.459Z</time>
      </trkpt>
      <trkpt lat="43.90752" lon="2.09264">
        <ele>203.099647</ele>
        <time>2020-08-11T12:58:48.995Z</time>
      </trkpt>
      <trkpt lat="43.90745" lon="2.09266">
        <ele>203.561231</ele>
        <time>2020-08-11T12:58:53.116Z</time>
      </trkpt>
      <trkpt lat="43.9074" lon="2.09264">
        <ele>203.872169</ele>
        <time>2020-08-11T12:58:55.678Z</time>
      </trkpt>
      <trkpt lat="43.90746" lon="2.09186">
        <ele>207.371036</ele>
        <time>2020-08-11T12:59:23.651Z</time>
      </trkpt>
      <trkpt lat="43.90742" lon="2.0917">
        <ele>208.153871</ele>
        <time>2020-08-11T12:59:29.357Z</time>
      </trkpt>
      <trkpt lat="43.90735" lon="2.09166">
        <ele>208.653861</ele>
        <time>2020-08-11T12:59:32.629Z</time>
      </trkpt>
      <trkpt lat="43.90727" lon="2.09171">
        <ele>209.147512</ele>
        <time>2020-08-11T12:59:35.818Z</time>
      </trkpt>
      <trkpt lat="43.90719" lon="2.09181">
        <ele>209.84472</ele>
        <time>2020-08-11T12:59:41.266Z</time>
      </trkpt>
      <trkpt lat="43.90716" lon="2.09184">
        <ele>210.056536</ele>
        <time>2020-08-11T12:59:42.654Z</time>
      </trkpt>
      <trkpt lat="43.90645" lon="2.09279">
        <ele>213.52154</ele>
        <time>2020-08-11T13:00:19.444Z</time>
      </trkpt>
      <trkpt lat="43.90592" lon="2.09591">
        <ele>218.305783</ele>
        <time>2020-08-11T13:01:29.330Z</time>
      </trkpt>
      <trkpt lat="43.90553" lon="2.09766">
        <ele>220.346183</ele>
        <time>2020-08-11T13:02:06.618Z</time>
      </trkpt>
      <trkpt lat="43.90555" lon="2.09787">
        <ele>220.58361</ele>
        <time>2020-08-11T13:02:11.219Z</time>
      </trkpt>
      <trkpt lat="43.90579" lon="2.09835">
        <ele>221.219423</ele>
        <time>2020-08-11T13:02:23.582Z</time>
      </trkpt>
      <trkpt lat="43.90572" lon="2.09872">
        <ele>221.62896</ele>
        <time>2020-08-11T13:02:31.895Z</time>
      </trkpt>
      <trkpt lat="43.90564" lon="2.09935">
        <ele>222.530168</ele>
        <time>2020-08-11T13:02:45.969Z</time>
      </trkpt>
      <trkpt lat="43.90558" lon="2.09961">
        <ele>222.972132</ele>
        <time>2020-08-11T13:02:52.408Z</time>
      </trkpt>
      <trkpt lat="43.90539" lon="2.10022">
        <ele>224.021902</ele>
        <time>2020-08-11T13:03:07.154Z</time>
      </trkpt>
      <trkpt lat="43.90492" lon="2.10139">
        <ele>226.15041</ele>
        <time>2020-08-11T13:03:40.006Z</time>
      </trkpt>
      <trkpt lat="43.90475" lon="2.10192">
        <ele>226.966797</ele>
        <time>2020-08-11T13:03:53.101Z</time>
      </trkpt>
      <trkpt lat="43.90465" lon="2.1024">
        <ele>227.685698</ele>
        <time>2020-08-11T13:04:04.458Z</time>
      </trkpt>
      <trkpt lat="43.90462" lon="2.10257">
        <ele>227.93349</ele>
        <time>2020-08-11T13:04:08.653Z</time>
      </trkpt>
      <trkpt lat="43.90459" lon="2.10281">
        <ele>228.27354</ele>
        <time>2020-08-11T13:04:13.651Z</time>
      </trkpt>
      <trkpt lat="43.90458" lon="2.10317">
        <ele>228.790622</ele>
        <time>2020-08-11T13:04:21.378Z</time>
      </trkpt>
      <trkpt lat="43.90483" lon="2.10406">
        <ele>230.1041</ele>
        <time>2020-08-11T13:04:41.774Z</time>
      </trkpt>
      <trkpt lat="43.90484" lon="2.10441">
        <ele>230.553044</ele>
        <time>2020-08-11T13:04:49.132Z</time>
      </trkpt>
      <trkpt lat="43.90477" lon="2.1049">
        <ele>231.208663</ele>
        <time>2020-08-11T13:05:00.730Z</time>
      </trkpt>
      <trkpt lat="43.90476" lon="2.10496">
        <ele>231.292672</ele>
        <time>2020-08-11T13:05:02.141Z</time>
      </trkpt>
      <trkpt lat="43.90476" lon="2.10517">
        <ele>231.563729</ele>
        <time>2020-08-11T13:05:06.583Z</time>
      </trkpt>
      <trkpt lat="43.90479" lon="2.10543">
        <ele>231.911018</ele>
        <time>2020-08-11T13:05:13.060Z</time>
      </trkpt>
      <trkpt lat="43.90485" lon="2.10586">
        <ele>232.48241</ele>
        <time>2020-08-11T13:05:23.060Z</time>
      </trkpt>
      <trkpt lat="43.90484" lon="2.10669">
        <ele>232.455148</ele>
        <time>2020-08-11T13:05:40.045Z</time>
      </trkpt>
      <trkpt lat="43.90483" lon="2.10683">
        <ele>232.399199</ele>
        <time>2020-08-11T13:05:43.236Z</time>
      </trkpt>
      <trkpt lat="43.90494" lon="2.10682">
        <ele>232.337273</ele>
        <time>2020-08-11T13:05:46.254Z</time>
      </trkpt>
      <trkpt lat="43.90528" lon="2.10687">
        <ele>232.146015</ele>
        <time>2020-08-11T13:05:54.399Z</time>
      </trkpt>
      <trkpt lat="43.90541" lon="2.10701">
        <ele>232.053719</ele>
        <time>2020-08-11T13:05:57.649Z</time>
      </trkpt>
      <trkpt lat="43.90552" lon="2.10723">
        <ele>231.940781</ele>
        <time>2020-08-11T13:06:01.990Z</time>
      </trkpt>
      <trkpt lat="43.90584" lon="2.10839">
        <ele>228.458915</ele>
        <time>2020-08-11T13:06:16.923Z</time>
      </trkpt>
      <trkpt lat="43.9058" lon="2.10943">
        <ele>223.259258</ele>
        <time>2020-08-11T13:06:28.141Z</time>
      </trkpt>
      <trkpt lat="43.90576" lon="2.11048">
        <ele>217.626931</ele>
        <time>2020-08-11T13:06:39.084Z</time>
      </trkpt>
      <trkpt lat="43.90562" lon="2.11106">
        <ele>213.605793</ele>
        <time>2020-08-11T13:06:45.411Z</time>
      </trkpt>
      <trkpt lat="43.90539" lon="2.11129">
        <ele>211.08859</ele>
        <time>2020-08-11T13:06:49.391Z</time>
      </trkpt>
      <trkpt lat="43.90536" lon="2.11147">
        <ele>209.873202</ele>
        <time>2020-08-11T13:06:51.330Z</time>
      </trkpt>
      <trkpt lat="43.90542" lon="2.11151">
        <ele>209.207932</ele>
        <time>2020-08-11T13:06:52.381Z</time>
      </trkpt>
      <trkpt lat="43.90567" lon="2.1115">
        <ele>207.010506</ele>
        <time>2020-08-11T13:06:55.890Z</time>
      </trkpt>
      <trkpt lat="43.90588" lon="2.11144">
        <ele>205.00007</ele>
        <time>2020-08-11T13:06:59.107Z</time>
      </trkpt>
      <trkpt lat="43.90617" lon="2.11124">
        <ele>202.334805</ele>
        <time>2020-08-11T13:07:03.824Z</time>
      </trkpt>
      <trkpt lat="43.90642" lon="2.11123">
        <ele>200.830961</ele>
        <time>2020-08-11T13:07:07.339Z</time>
      </trkpt>
      <trkpt lat="43.90713" lon="2.11224">
        <ele>194.483671</ele>
        <time>2020-08-11T13:07:22.849Z</time>
      </trkpt>
      <trkpt lat="43.90727" lon="2.11264">
        <ele>192.458973</ele>
        <time>2020-08-11T13:07:28.107Z</time>
      </trkpt>
      <trkpt lat="43.90739" lon="2.11297">
        <ele>191.37316</ele>
        <time>2020-08-11T13:07:32.472Z</time>
      </trkpt>
      <trkpt lat="43.90761" lon="2.11361">
        <ele>190.091818</ele>
        <time>2020-08-11T13:07:41.266Z</time>
      </trkpt>
      <trkpt lat="43.90771" lon="2.11389">
        <ele>189.530993</ele>
        <time>2020-08-11T13:07:45.216Z</time>
      </trkpt>
      <trkpt lat="43.9079" lon="2.11446">
        <ele>188.405037</ele>
        <time>2020-08-11T13:07:53.426Z</time>
      </trkpt>
      <trkpt lat="43.90805" lon="2.11486">
        <ele>187.597308</ele>
        <time>2020-08-11T13:08:00.275Z</time>
      </trkpt>
      <trkpt lat="43.90809" lon="2.11502">
        <ele>187.29638</ele>
        <time>2020-08-11T13:08:02.751Z</time>
      </trkpt>
      <trkpt lat="43.90843" lon="2.11597">
        <ele>186.056969</ele>
        <time>2020-08-11T13:08:17.936Z</time>
      </trkpt>
      <trkpt lat="43.90857" lon="2.1164">
        <ele>185.51552</ele>
        <time>2020-08-11T13:08:24.356Z</time>
      </trkpt>
      <trkpt lat="43.90873" lon="2.11689">
        <ele>184.888765</ele>
        <time>2020-08-11T13:08:31.623Z</time>
      </trkpt>
      <trkpt lat="43.90898" lon="2.1176">
        <ele>183.809343</ele>
        <time>2020-08-11T13:08:42.094Z</time>
      </trkpt>
      <trkpt lat="43.90908" lon="2.11787">
        <ele>183.309002</ele>
        <time>2020-08-11T13:08:46.096Z</time>
      </trkpt>
      <trkpt lat="43.90911" lon="2.11797">
        <ele>183.121753</ele>
        <time>2020-08-11T13:08:47.577Z</time>
      </trkpt>
      <trkpt lat="43.90929" lon="2.11845">
        <ele>182.239887</ele>
        <time>2020-08-11T13:08:54.554Z</time>
      </trkpt>
      <trkpt lat="43.90942" lon="2.11872">
        <ele>181.705889</ele>
        <time>2020-08-11T13:08:58.715Z</time>
      </trkpt>
      <trkpt lat="43.91086" lon="2.12012">
        <ele>177.855286</ele>
        <time>2020-08-11T13:09:30.207Z</time>
      </trkpt>
      <trkpt lat="43.91114" lon="2.12028">
        <ele>177.216052</ele>
        <time>2020-08-11T13:09:35.850Z</time>
      </trkpt>
      <trkpt lat="43.91122" lon="2.12032">
        <ele>177.044519</ele>
        <time>2020-08-11T13:09:37.357Z</time>
      </trkpt>
      <trkpt lat="43.91137" lon="2.1203">
        <ele>176.707608</ele>
        <time>2020-08-11T13:09:40.437Z</time>
      </trkpt>
      <trkpt lat="43.91142" lon="2.12028">
        <ele>176.601801</ele>
        <time>2020-08-11T13:09:41.337Z</time>
      </trkpt>
      <trkpt lat="43.91144" lon="2.12032">
        <ele>176.533143</ele>
        <time>2020-08-11T13:09:41.930Z</time>
      </trkpt>
      <trkpt lat="43.91153" lon="2.12035">
        <ele>176.39048</ele>
        <time>2020-08-11T13:09:43.702Z</time>
      </trkpt>
      <trkpt lat="43.91157" lon="2.12034">
        <ele>176.362952</ele>
        <time>2020-08-11T13:09:44.284Z</time>
      </trkpt>
      <trkpt lat="43.91159" lon="2.12031">
        <ele>176.335925</ele>
        <time>2020-08-11T13:09:44.900Z</time>
      </trkpt>
      <trkpt lat="43.91161" lon="2.12027">
        <ele>176.308655</ele>
        <time>2020-08-11T13:09:45.514Z</time>
      </trkpt>
      <trkpt lat="43.91184" lon="2.12052">
        <ele>176.064269</ele>
        <time>2020-08-11T13:09:50.949Z</time>
      </trkpt>
      <trkpt lat="43.9121" lon="2.12082">
        <ele>175.786953</ele>
        <time>2020-08-11T13:09:57.284Z</time>
      </trkpt>
      <trkpt lat="43.91214" lon="2.12085">
        <ele>175.747293</ele>
        <time>2020-08-11T13:09:58.175Z</time>
      </trkpt>
      <trkpt lat="43.9122" lon="2.12091">
        <ele>175.685743</ele>
        <time>2020-08-11T13:09:59.639Z</time>
      </trkpt>
      <trkpt lat="43.91223" lon="2.12095">
        <ele>175.647433</ele>
        <time>2020-08-11T13:10:00.557Z</time>
      </trkpt>
      <trkpt lat="43.91229" lon="2.12101">
        <ele>175.589636</ele>
        <time>2020-08-11T13:10:01.846Z</time>
      </trkpt>
      <trkpt lat="43.91302" lon="2.1216">
        <ele>174.932858</ele>
        <time>2020-08-11T13:10:19.592Z</time>
      </trkpt>
      <trkpt lat="43.91345" lon="2.12196">
        <ele>174.939239</ele>
        <time>2020-08-11T13:10:31.150Z</time>
      </trkpt>
      <trkpt lat="43.91391" lon="2.12232">
        <ele>174.94607</ele>
        <time>2020-08-11T13:10:43.366Z</time>
      </trkpt>
      <trkpt lat="43.91407" lon="2.12242">
        <ele>174.948323</ele>
        <time>2020-08-11T13:10:47.355Z</time>
      </trkpt>
      <trkpt lat="43.91406" lon="2.12249">
        <ele>174.948978</ele>
        <time>2020-08-11T13:10:49.349Z</time>
      </trkpt>
      <trkpt lat="43.91412" lon="2.12273">
        <ele>174.951338</ele>
        <time>2020-08-11T13:10:56.021Z</time>
      </trkpt>
      <trkpt lat="43.91411" lon="2.12278">
        <ele>174.951773</ele>
        <time>2020-08-11T13:10:57.344Z</time>
      </trkpt>
      <trkpt lat="43.91415" lon="2.1228">
        <ele>174.952325</ele>
        <time>2020-08-11T13:10:58.901Z</time>
      </trkpt>
      <trkpt lat="43.91421" lon="2.12282">
        <ele>174.953024</ele>
        <time>2020-08-11T13:11:00.919Z</time>
      </trkpt>
      <trkpt lat="43.91424" lon="2.12284">
        <ele>174.953447</ele>
        <time>2020-08-11T13:11:02.188Z</time>
      </trkpt>
      <trkpt lat="43.91432" lon="2.12278">
        <ele>174.95463</ele>
        <time>2020-08-11T13:11:04.154Z</time>
      </trkpt>
      <trkpt lat="43.91446" lon="2.12269">
        <ele>174.899141</ele>
        <time>2020-08-11T13:11:07.571Z</time>
      </trkpt>
      <trkpt lat="43.91448" lon="2.12263">
        <ele>174.877925</ele>
        <time>2020-08-11T13:11:08.509Z</time>
      </trkpt>
      <trkpt lat="43.91453" lon="2.12266">
        <ele>174.851453</ele>
        <time>2020-08-11T13:11:09.819Z</time>
      </trkpt>
      <trkpt lat="43.91476" lon="2.12277">
        <ele>174.735729</ele>
        <time>2020-08-11T13:11:15.133Z</time>
      </trkpt>
      <trkpt lat="43.91481" lon="2.1228">
        <ele>174.708096</ele>
        <time>2020-08-11T13:11:16.399Z</time>
      </trkpt>
      <trkpt lat="43.91502" lon="2.1229">
        <ele>174.601784</ele>
        <time>2020-08-11T13:11:21.222Z</time>
      </trkpt>
      <trkpt lat="43.91532" lon="2.12306">
        <ele>174.442427</ele>
        <time>2020-08-11T13:11:28.322Z</time>
      </trkpt>
      <trkpt lat="43.91562" lon="2.12319">
        <ele>174.29421</ele>
        <time>2020-08-11T13:11:34.748Z</time>
      </trkpt>
      <trkpt lat="43.91636" lon="2.12346">
        <ele>173.784776</ele>
        <time>2020-08-11T13:11:50.498Z</time>
      </trkpt>
      <trkpt lat="43.91647" lon="2.12355">
        <ele>173.673257</ele>
        <time>2020-08-11T13:11:53.025Z</time>
      </trkpt>
      <trkpt lat="43.91663" lon="2.12368">
        <ele>173.503026</ele>
        <time>2020-08-11T13:11:56.812Z</time>
      </trkpt>
      <trkpt lat="43.91738" lon="2.12426">
        <ele>172.740057</ele>
        <time>2020-08-11T13:12:14.167Z</time>
      </trkpt>
      <trkpt lat="43.91748" lon="2.12435">
        <ele>172.637612</ele>
        <time>2020-08-11T13:12:16.493Z</time>
      </trkpt>
      <trkpt lat="43.91757" lon="2.12443">
        <ele>172.537361</ele>
        <time>2020-08-11T13:12:18.765Z</time>
      </trkpt>
      <trkpt lat="43.91772" lon="2.12455">
        <ele>172.465786</ele>
        <time>2020-08-11T13:12:22.432Z</time>
      </trkpt>
      <trkpt lat="43.91785" lon="2.12466">
        <ele>172.445603</ele>
        <time>2020-08-11T13:12:25.483Z</time>
      </trkpt>
      <trkpt lat="43.91786" lon="2.12467">
        <ele>172.44315</ele>
        <time>2020-08-11T13:12:25.844Z</time>
      </trkpt>
      <trkpt lat="43.91804" lon="2.12483">
        <ele>172.414129</ele>
        <time>2020-08-11T13:12:30.640Z</time>
      </trkpt>
      <trkpt lat="43.91816" lon="2.12496">
        <ele>172.392834</ele>
        <time>2020-08-11T13:12:33.977Z</time>
      </trkpt>
      <trkpt lat="43.91835" lon="2.12518">
        <ele>172.358176</ele>
        <time>2020-08-11T13:12:39.898Z</time>
      </trkpt>
      <trkpt lat="43.91867" lon="2.12559">
        <ele>172.297819</ele>
        <time>2020-08-11T13:12:50.172Z</time>
      </trkpt>
      <trkpt lat="43.91871" lon="2.12565">
        <ele>172.289473</ele>
        <time>2020-08-11T13:12:51.523Z</time>
      </trkpt>
      <trkpt lat="43.91882" lon="2.12579">
        <ele>172.269627</ele>
        <time>2020-08-11T13:12:54.947Z</time>
      </trkpt>
      <trkpt lat="43.91898" lon="2.12611">
        <ele>172.234082</ele>
        <time>2020-08-11T13:13:01.620Z</time>
      </trkpt>
      <trkpt lat="43.91898" lon="2.12617">
        <ele>172.244754</ele>
        <time>2020-08-11T13:13:02.632Z</time>
      </trkpt>
      <trkpt lat="43.91902" lon="2.12628">
        <ele>172.265459</ele>
        <time>2020-08-11T13:13:04.579Z</time>
      </trkpt>
      <trkpt lat="43.91906" lon="2.12646">
        <ele>172.299207</ele>
        <time>2020-08-11T13:13:07.718Z</time>
      </trkpt>
      <trkpt lat="43.91907" lon="2.1265">
        <ele>172.306662</ele>
        <time>2020-08-11T13:13:08.509Z</time>
      </trkpt>
      <trkpt lat="43.91911" lon="2.12652">
        <ele>172.315645</ele>
        <time>2020-08-11T13:13:09.363Z</time>
      </trkpt>
      <trkpt lat="43.91913" lon="2.12651">
        <ele>172.321431</ele>
        <time>2020-08-11T13:13:09.889Z</time>
      </trkpt>
      <trkpt lat="43.91916" lon="2.12651">
        <ele>172.328892</ele>
        <time>2020-08-11T13:13:10.605Z</time>
      </trkpt>
      <trkpt lat="43.91918" lon="2.12648">
        <ele>172.336911</ele>
        <time>2020-08-11T13:13:11.351Z</time>
      </trkpt>
      <trkpt lat="43.9192" lon="2.1264">
        <ele>172.351536</ele>
        <time>2020-08-11T13:13:12.750Z</time>
      </trkpt>
      <trkpt lat="43.91926" lon="2.12643">
        <ele>172.367292</ele>
        <time>2020-08-11T13:13:14.389Z</time>
      </trkpt>
      <trkpt lat="43.91955" lon="2.12665">
        <ele>172.447075</ele>
        <time>2020-08-11T13:13:22.499Z</time>
      </trkpt>
      <trkpt lat="43.91977" lon="2.12688">
        <ele>172.512799</ele>
        <time>2020-08-11T13:13:29.109Z</time>
      </trkpt>
      <trkpt lat="43.92051" lon="2.12785">
        <ele>172.709881</ele>
        <time>2020-08-11T13:13:53.778Z</time>
      </trkpt>
      <trkpt lat="43.92059" lon="2.12797">
        <ele>172.723554</ele>
        <time>2020-08-11T13:13:56.683Z</time>
      </trkpt>
      <trkpt lat="43.92066" lon="2.12805">
        <ele>172.734069</ele>
        <time>2020-08-11T13:13:58.736Z</time>
      </trkpt>
      <trkpt lat="43.92176" lon="2.12966">
        <ele>172.901465</ele>
        <time>2020-08-11T13:14:35.993Z</time>
      </trkpt>
      <trkpt lat="43.92299" lon="2.13132">
        <ele>173.103336</ele>
        <time>2020-08-11T13:15:16.406Z</time>
      </trkpt>
      <trkpt lat="43.92302" lon="2.13135">
        <ele>173.115113</ele>
        <time>2020-08-11T13:15:17.240Z</time>
      </trkpt>
      <trkpt lat="43.92304" lon="2.13138">
        <ele>173.125753</ele>
        <time>2020-08-11T13:15:17.993Z</time>
      </trkpt>
      <trkpt lat="43.92309" lon="2.13144">
        <ele>173.15041</ele>
        <time>2020-08-11T13:15:19.747Z</time>
      </trkpt>
      <trkpt lat="43.9233" lon="2.13171">
        <ele>173.250341</ele>
        <time>2020-08-11T13:15:26.760Z</time>
      </trkpt>
      <trkpt lat="43.92373" lon="2.13216">
        <ele>173.435099</ele>
        <time>2020-08-11T13:15:40.077Z</time>
      </trkpt>
      <trkpt lat="43.92375" lon="2.13218">
        <ele>173.441779</ele>
        <time>2020-08-11T13:15:40.520Z</time>
      </trkpt>
      <trkpt lat="43.9241" lon="2.13251">
        <ele>173.587176</ele>
        <time>2020-08-11T13:15:51.124Z</time>
      </trkpt>
      <trkpt lat="43.92429" lon="2.13269">
        <ele>173.674614</ele>
        <time>2020-08-11T13:15:57.222Z</time>
      </trkpt>
      <trkpt lat="43.92471" lon="2.13307">
        <ele>173.869948</ele>
        <time>2020-08-11T13:16:09.896Z</time>
      </trkpt>
      <trkpt lat="43.9248" lon="2.13314">
        <ele>173.908883</ele>
        <time>2020-08-11T13:16:12.459Z</time>
      </trkpt>
      <trkpt lat="43.92489" lon="2.1332">
        <ele>173.948185</ele>
        <time>2020-08-11T13:16:14.811Z</time>
      </trkpt>
      <trkpt lat="43.92501" lon="2.13326">
        <ele>173.996477</ele>
        <time>2020-08-11T13:16:17.634Z</time>
      </trkpt>
      <trkpt lat="43.92546" lon="2.13384">
        <ele>174.235859</ele>
        <time>2020-08-11T13:16:32.083Z</time>
      </trkpt>
      <trkpt lat="43.92591" lon="2.13456">
        <ele>174.37806</ele>
        <time>2020-08-11T13:16:48.201Z</time>
      </trkpt>
      <trkpt lat="43.92616" lon="2.13509">
        <ele>174.438971</ele>
        <time>2020-08-11T13:16:58.913Z</time>
      </trkpt>
      <trkpt lat="43.92628" lon="2.13538">
        <ele>174.470607</ele>
        <time>2020-08-11T13:17:04.554Z</time>
      </trkpt>
      <trkpt lat="43.92632" lon="2.13546">
        <ele>174.480381</ele>
        <time>2020-08-11T13:17:06.249Z</time>
      </trkpt>
      <trkpt lat="43.92692" lon="2.13548">
        <ele>174.530866</ele>
        <time>2020-08-11T13:17:19.325Z</time>
      </trkpt>
      <trkpt lat="43.92704" lon="2.13668">
        <ele>174.132782</ele>
        <time>2020-08-11T13:17:37.706Z</time>
      </trkpt>
      <trkpt lat="43.92705" lon="2.13677">
        <ele>174.102783</ele>
        <time>2020-08-11T13:17:39.057Z</time>
      </trkpt>
      <trkpt lat="43.92709" lon="2.13697">
        <ele>174.036481</ele>
        <time>2020-08-11T13:17:42.500Z</time>
      </trkpt>
      <trkpt lat="43.92708" lon="2.13714">
        <ele>173.980639</ele>
        <time>2020-08-11T13:17:44.928Z</time>
      </trkpt>
      <trkpt lat="43.92705" lon="2.13768">
        <ele>173.804607</ele>
        <time>2020-08-11T13:17:53.334Z</time>
      </trkpt>
      <trkpt lat="43.92702" lon="2.13826">
        <ele>173.803825</ele>
        <time>2020-08-11T13:18:02.663Z</time>
      </trkpt>
      <trkpt lat="43.92692" lon="2.13813">
        <ele>173.838741</ele>
        <time>2020-08-11T13:18:06.060Z</time>
      </trkpt>
      <trkpt lat="43.92685" lon="2.13816">
        <ele>173.857652</ele>
        <time>2020-08-11T13:18:07.753Z</time>
      </trkpt>
      <trkpt lat="43.92644" lon="2.13842">
        <ele>173.973647</ele>
        <time>2020-08-11T13:18:17.842Z</time>
      </trkpt>
      <trkpt lat="43.92581" lon="2.13882">
        <ele>174.155061</ele>
        <time>2020-08-11T13:18:35.773Z</time>
      </trkpt>
      <trkpt lat="43.92556" lon="2.13896">
        <ele>174.22198</ele>
        <time>2020-08-11T13:18:43.083Z</time>
      </trkpt>
      <trkpt lat="43.92547" lon="2.13904">
        <ele>174.248247</ele>
        <time>2020-08-11T13:18:46.154Z</time>
      </trkpt>
      <trkpt lat="43.92543" lon="2.13903">
        <ele>174.257471</ele>
        <time>2020-08-11T13:18:47.204Z</time>
      </trkpt>
      <trkpt lat="43.92539" lon="2.13904">
        <ele>174.266922</ele>
        <time>2020-08-11T13:18:48.192Z</time>
      </trkpt>
      <trkpt lat="43.92536" lon="2.13908">
        <ele>174.276347</ele>
        <time>2020-08-11T13:18:49.157Z</time>
      </trkpt>
      <trkpt lat="43.92535" lon="2.13914">
        <ele>174.285829</ele>
        <time>2020-08-11T13:18:50.145Z</time>
      </trkpt>
      <trkpt lat="43.92539" lon="2.13923">
        <ele>174.304013</ele>
        <time>2020-08-11T13:18:51.973Z</time>
      </trkpt>
      <trkpt lat="43.92543" lon="2.13924">
        <ele>174.313464</ele>
        <time>2020-08-11T13:18:52.886Z</time>
      </trkpt>
      <trkpt lat="43.92544" lon="2.1393">
        <ele>174.324213</ele>
        <time>2020-08-11T13:18:54.021Z</time>
      </trkpt>
      <trkpt lat="43.92544" lon="2.13942">
        <ele>174.344157</ele>
        <time>2020-08-11T13:18:56.229Z</time>
      </trkpt>
      <trkpt lat="43.92541" lon="2.13953">
        <ele>174.364136</ele>
        <time>2020-08-11T13:18:58.284Z</time>
      </trkpt>
      <trkpt lat="43.92518" lon="2.14017">
        <ele>174.48402</ele>
        <time>2020-08-11T13:19:09.766Z</time>
      </trkpt>
      <trkpt lat="43.9251" lon="2.14047">
        <ele>174.53903</ele>
        <time>2020-08-11T13:19:15.291Z</time>
      </trkpt>
      <trkpt lat="43.92509" lon="2.14061">
        <ele>174.56235</ele>
        <time>2020-08-11T13:19:17.254Z</time>
      </trkpt>
      <trkpt lat="43.92509" lon="2.14069">
        <ele>174.575363</ele>
        <time>2020-08-11T13:19:18.509Z</time>
      </trkpt>
      <trkpt lat="43.92506" lon="2.14071">
        <ele>174.58296</ele>
        <time>2020-08-11T13:19:19.266Z</time>
      </trkpt>
      <trkpt lat="43.92504" lon="2.14074">
        <ele>174.590536</ele>
        <time>2020-08-11T13:19:20.044Z</time>
      </trkpt>
      <trkpt lat="43.92502" lon="2.14078">
        <ele>174.598239</ele>
        <time>2020-08-11T13:19:20.804Z</time>
      </trkpt>
      <trkpt lat="43.92501" lon="2.14082">
        <ele>174.605806</ele>
        <time>2020-08-11T13:19:21.533Z</time>
      </trkpt>
      <trkpt lat="43.92501" lon="2.14087">
        <ele>174.613579</ele>
        <time>2020-08-11T13:19:22.242Z</time>
      </trkpt>
      <trkpt lat="43.92506" lon="2.14098">
        <ele>174.610539</ele>
        <time>2020-08-11T13:19:24.227Z</time>
      </trkpt>
      <trkpt lat="43.92509" lon="2.141">
        <ele>174.602549</ele>
        <time>2020-08-11T13:19:24.828Z</time>
      </trkpt>
      <trkpt lat="43.92513" lon="2.141">
        <ele>174.593522</ele>
        <time>2020-08-11T13:19:25.559Z</time>
      </trkpt>
      <trkpt lat="43.92517" lon="2.14099">
        <ele>174.584626</ele>
        <time>2020-08-11T13:19:26.355Z</time>
      </trkpt>
      <trkpt lat="43.9252" lon="2.14097">
        <ele>174.575729</ele>
        <time>2020-08-11T13:19:27.149Z</time>
      </trkpt>
      <trkpt lat="43.92522" lon="2.14093">
        <ele>174.566747</ele>
        <time>2020-08-11T13:19:27.993Z</time>
      </trkpt>
      <trkpt lat="43.92524" lon="2.14088">
        <ele>174.557775</ele>
        <time>2020-08-11T13:19:28.805Z</time>
      </trkpt>
      <trkpt lat="43.92524" lon="2.14083">
        <ele>174.548822</ele>
        <time>2020-08-11T13:19:29.586Z</time>
      </trkpt>
      <trkpt lat="43.9253" lon="2.14083">
        <ele>174.53379</ele>
        <time>2020-08-11T13:19:30.900Z</time>
      </trkpt>
      <trkpt lat="43.92539" lon="2.14084">
        <ele>174.512431</ele>
        <time>2020-08-11T13:19:32.563Z</time>
      </trkpt>
      <trkpt lat="43.92638" lon="2.14067">
        <ele>174.271219</ele>
        <time>2020-08-11T13:19:53.872Z</time>
      </trkpt>
      <trkpt lat="43.9265" lon="2.14071">
        <ele>174.240118</ele>
        <time>2020-08-11T13:19:56.275Z</time>
      </trkpt>
      <trkpt lat="43.92674" lon="2.14096">
        <ele>174.27435</ele>
        <time>2020-08-11T13:20:02.726Z</time>
      </trkpt>
      <trkpt lat="43.92679" lon="2.14115">
        <ele>174.424469</ele>
        <time>2020-08-11T13:20:05.906Z</time>
      </trkpt>
      <trkpt lat="43.92678" lon="2.14132">
        <ele>174.549355</ele>
        <time>2020-08-11T13:20:08.602Z</time>
      </trkpt>
      <trkpt lat="43.92675" lon="2.14157">
        <ele>174.733659</ele>
        <time>2020-08-11T13:20:13.120Z</time>
      </trkpt>
      <trkpt lat="43.92674" lon="2.14171">
        <ele>174.842699</ele>
        <time>2020-08-11T13:20:16.365Z</time>
      </trkpt>
      <trkpt lat="43.9267" lon="2.14199">
        <ele>175.052016</ele>
        <time>2020-08-11T13:20:21.177Z</time>
      </trkpt>
      <trkpt lat="43.92672" lon="2.1421">
        <ele>175.134733</ele>
        <time>2020-08-11T13:20:23.653Z</time>
      </trkpt>
      <trkpt lat="43.92675" lon="2.14215">
        <ele>175.183118</ele>
        <time>2020-08-11T13:20:25.257Z</time>
      </trkpt>
      <trkpt lat="43.92679" lon="2.14221">
        <ele>175.247262</ele>
        <time>2020-08-11T13:20:26.743Z</time>
      </trkpt>
      <trkpt lat="43.92684" lon="2.14225">
        <ele>175.303235</ele>
        <time>2020-08-11T13:20:27.960Z</time>
      </trkpt>
      <trkpt lat="43.92692" lon="2.14225">
        <ele>175.384818</ele>
        <time>2020-08-11T13:20:29.956Z</time>
      </trkpt>
      <trkpt lat="43.92694" lon="2.1422">
        <ele>175.431281</ele>
        <time>2020-08-11T13:20:31.205Z</time>
      </trkpt>
      <trkpt lat="43.92716" lon="2.14214">
        <ele>175.663188</ele>
        <time>2020-08-11T13:20:38.293Z</time>
      </trkpt>
      <trkpt lat="43.92718" lon="2.14235">
        <ele>175.818414</ele>
        <time>2020-08-11T13:20:42.426Z</time>
      </trkpt>
      <trkpt lat="43.92717" lon="2.14264">
        <ele>176.037986</ele>
        <time>2020-08-11T13:20:49.374Z</time>
      </trkpt>
      <trkpt lat="43.92725" lon="2.14273">
        <ele>176.238605</ele>
        <time>2020-08-11T13:20:52.126Z</time>
      </trkpt>
      <trkpt lat="43.92729" lon="2.14279">
        <ele>176.35451</ele>
        <time>2020-08-11T13:20:53.976Z</time>
      </trkpt>
      <trkpt lat="43.92726" lon="2.14288">
        <ele>176.50298</ele>
        <time>2020-08-11T13:20:57.148Z</time>
      </trkpt>
      <trkpt lat="43.92722" lon="2.1432">
        <ele>176.960373</ele>
        <time>2020-08-11T13:21:03.246Z</time>
      </trkpt>
      <trkpt lat="43.92723" lon="2.1438">
        <ele>177.820595</ele>
        <time>2020-08-11T13:21:16.619Z</time>
      </trkpt>
      <trkpt lat="43.92727" lon="2.14392">
        <ele>178.011772</ele>
        <time>2020-08-11T13:21:20.410Z</time>
      </trkpt>
      <trkpt lat="43.92731" lon="2.144">
        <ele>178.155331</ele>
        <time>2020-08-11T13:21:22.159Z</time>
      </trkpt>
      <trkpt lat="43.92738" lon="2.14406">
        <ele>178.319183</ele>
        <time>2020-08-11T13:21:24.673Z</time>
      </trkpt>
      <trkpt lat="43.92762" lon="2.14422">
        <ele>178.84755</ele>
        <time>2020-08-11T13:21:33.971Z</time>
      </trkpt>
      <trkpt lat="43.92756" lon="2.14455">
        <ele>179.328599</ele>
        <time>2020-08-11T13:21:42.015Z</time>
      </trkpt>
      <trkpt lat="43.92749" lon="2.1449">
        <ele>179.684476</ele>
        <time>2020-08-11T13:21:49.772Z</time>
      </trkpt>
      <trkpt lat="43.92758" lon="2.14502">
        <ele>179.765548</ele>
        <time>2020-08-11T13:21:53.759Z</time>
      </trkpt>
      <trkpt lat="43.92765" lon="2.14512">
        <ele>179.827653</ele>
        <time>2020-08-11T13:21:56.474Z</time>
      </trkpt>
      <trkpt lat="43.92771" lon="2.1452">
        <ele>179.878914</ele>
        <time>2020-08-11T13:21:58.535Z</time>
      </trkpt>
      <trkpt lat="43.92781" lon="2.14529">
        <ele>179.954514</ele>
        <time>2020-08-11T13:22:01.733Z</time>
      </trkpt>
      <trkpt lat="43.92786" lon="2.14533">
        <ele>179.994215</ele>
        <time>2020-08-11T13:22:03.889Z</time>
      </trkpt>
      <trkpt lat="43.92789" lon="2.14535">
        <ele>180.009923</ele>
        <time>2020-08-11T13:22:04.701Z</time>
      </trkpt>
      <trkpt lat="43.92797" lon="2.1454">
        <ele>180.068279</ele>
        <time>2020-08-11T13:22:06.996Z</time>
      </trkpt>
      <trkpt lat="43.92802" lon="2.14542">
        <ele>180.098781</ele>
        <time>2020-08-11T13:22:08.162Z</time>
      </trkpt>
      <trkpt lat="43.92807" lon="2.14544">
        <ele>180.135857</ele>
        <time>2020-08-11T13:22:09.649Z</time>
      </trkpt>
      <trkpt lat="43.92834" lon="2.14551">
        <ele>180.309481</ele>
        <time>2020-08-11T13:22:16.519Z</time>
      </trkpt>
      <trkpt lat="43.92846" lon="2.14545">
        <ele>180.387507</ele>
        <time>2020-08-11T13:22:19.463Z</time>
      </trkpt>
      <trkpt lat="43.9286" lon="2.14531">
        <ele>180.500775</ele>
        <time>2020-08-11T13:22:23.690Z</time>
      </trkpt>
      <trkpt lat="43.92866" lon="2.14523">
        <ele>180.551215</ele>
        <time>2020-08-11T13:22:25.427Z</time>
      </trkpt>
      <trkpt lat="43.92872" lon="2.1451">
        <ele>180.623001</ele>
        <time>2020-08-11T13:22:33.346Z</time>
      </trkpt>
      <trkpt lat="43.92878" lon="2.14479">
        <ele>180.695265</ele>
        <time>2020-08-11T13:22:49.160Z</time>
      </trkpt>
      <trkpt lat="43.92881" lon="2.1448">
        <ele>180.650391</ele>
        <time>2020-08-11T13:22:51.436Z</time>
      </trkpt>
      <trkpt lat="43.92885" lon="2.14464">
        <ele>180.478978</ele>
        <time>2020-08-11T13:23:00.150Z</time>
      </trkpt>
      <trkpt lat="43.92895" lon="2.14459">
        <ele>180.329966</ele>
        <time>2020-08-11T13:23:07.632Z</time>
      </trkpt>
      <trkpt lat="43.92892" lon="2.1443">
        <ele>180.039563</ele>
        <time>2020-08-11T13:23:22.381Z</time>
      </trkpt>
      <trkpt lat="43.92886" lon="2.14432">
        <ele>179.953852</ele>
        <time>2020-08-11T13:23:26.762Z</time>
      </trkpt>
      <trkpt lat="43.92877" lon="2.14434">
        <ele>179.833664</ele>
        <time>2020-08-11T13:23:32.773Z</time>
      </trkpt>
      <trkpt lat="43.92869" lon="2.14418">
        <ele>179.641459</ele>
        <time>2020-08-11T13:23:42.516Z</time>
      </trkpt>
      <trkpt lat="43.92858" lon="2.14402">
        <ele>179.419563</ele>
        <time>2020-08-11T13:23:53.746Z</time>
      </trkpt>
      <trkpt lat="43.92851" lon="2.14398">
        <ele>179.325601</ele>
        <time>2020-08-11T13:23:58.515Z</time>
      </trkpt>
      <trkpt lat="43.92851" lon="2.1439">
        <ele>179.247391</ele>
        <time>2020-08-11T13:24:02.480Z</time>
      </trkpt>
      <trkpt lat="43.92851" lon="2.14366">
        <ele>179.005617</ele>
        <time>2020-08-11T13:24:14.749Z</time>
      </trkpt>
      <trkpt lat="43.92817" lon="2.14366">
        <ele>178.545193</ele>
        <time>2020-08-11T13:24:20.922Z</time>
      </trkpt>
      <trkpt lat="43.92817" lon="2.14356">
        <ele>178.449138</ele>
        <time>2020-08-11T13:24:22.185Z</time>
      </trkpt>
      <trkpt lat="43.92816" lon="2.14228">
        <ele>176.429388</ele>
        <time>2020-08-11T13:24:39.570Z</time>
      </trkpt>
      <trkpt lat="43.92823" lon="2.14198">
        <ele>175.904668</ele>
        <time>2020-08-11T13:24:43.811Z</time>
      </trkpt>
      <trkpt lat="43.92822" lon="2.14186">
        <ele>175.718032</ele>
        <time>2020-08-11T13:24:45.204Z</time>
      </trkpt>
      <trkpt lat="43.92834" lon="2.14178">
        <ele>175.406882</ele>
        <time>2020-08-11T13:24:47.649Z</time>
      </trkpt>
      <trkpt lat="43.92862" lon="2.14177">
        <ele>174.768578</ele>
        <time>2020-08-11T13:24:53.965Z</time>
      </trkpt>
      <trkpt lat="43.92865" lon="2.14193">
        <ele>174.488378</ele>
        <time>2020-08-11T13:24:56.800Z</time>
      </trkpt>
      <trkpt lat="43.92862" lon="2.14177">
        <ele>174.208177</ele>
        <time>2020-08-11T13:24:59.715Z</time>
      </trkpt>
      <trkpt lat="43.92834" lon="2.14178">
        <ele>173.325153</ele>
        <time>2020-08-11T13:25:05.688Z</time>
      </trkpt>
      <trkpt lat="43.92844" lon="2.14161">
        <ele>172.782747</ele>
        <time>2020-08-11T13:25:08.443Z</time>
      </trkpt>
      <trkpt lat="43.92844" lon="2.14156">
        <ele>172.662907</ele>
        <time>2020-08-11T13:25:09.038Z</time>
      </trkpt>
      <trkpt lat="43.92843" lon="2.14127">
        <ele>171.965296</ele>
        <time>2020-08-11T13:25:12.623Z</time>
      </trkpt>
      <trkpt lat="43.92842" lon="2.14091">
        <ele>171.106155</ele>
        <time>2020-08-11T13:25:16.900Z</time>
      </trkpt>
      <trkpt lat="43.92843" lon="2.14077">
        <ele>170.757347</ele>
        <time>2020-08-11T13:25:18.649Z</time>
      </trkpt>
      <trkpt lat="43.92842" lon="2.14066">
        <ele>170.508643</ele>
        <time>2020-08-11T13:25:20.123Z</time>
      </trkpt>
      <trkpt lat="43.92842" lon="2.14065">
        <ele>170.474887</ele>
        <time>2020-08-11T13:25:20.342Z</time>
      </trkpt>
      <trkpt lat="43.92843" lon="2.14051">
        <ele>170.136521</ele>
        <time>2020-08-11T13:25:22.012Z</time>
      </trkpt>
      <trkpt lat="43.92844" lon="2.1403">
        <ele>169.63581</ele>
        <time>2020-08-11T13:25:24.296Z</time>
      </trkpt>
      <trkpt lat="43.92844" lon="2.14016">
        <ele>169.295038</ele>
        <time>2020-08-11T13:25:26.222Z</time>
      </trkpt>
      <trkpt lat="43.92841" lon="2.14005">
        <ele>169.025316</ele>
        <time>2020-08-11T13:25:27.574Z</time>
      </trkpt>
      <trkpt lat="43.92838" lon="2.13996">
        <ele>168.774984</ele>
        <time>2020-08-11T13:25:28.779Z</time>
      </trkpt>
      <trkpt lat="43.92823" lon="2.13977">
        <ele>168.092735</ele>
        <time>2020-08-11T13:25:32.238Z</time>
      </trkpt>
      <trkpt lat="43.92819" lon="2.13982">
        <ele>168.051536</ele>
        <time>2020-08-11T13:25:33.230Z</time>
      </trkpt>
      <trkpt lat="43.92829" lon="2.14002">
        <ele>167.898425</ele>
        <time>2020-08-11T13:25:36.129Z</time>
      </trkpt>
      <trkpt lat="43.92827" lon="2.14014">
        <ele>167.823316</ele>
        <time>2020-08-11T13:25:37.950Z</time>
      </trkpt>
      <trkpt lat="43.92823" lon="2.14018">
        <ele>167.782774</ele>
        <time>2020-08-11T13:25:39.354Z</time>
      </trkpt>
      <trkpt lat="43.92818" lon="2.14017">
        <ele>167.735671</ele>
        <time>2020-08-11T13:25:40.473Z</time>
      </trkpt>
      <trkpt lat="43.9281" lon="2.14013">
        <ele>167.66394</ele>
        <time>2020-08-11T13:25:42.005Z</time>
      </trkpt>
      <trkpt lat="43.92806" lon="2.14007">
        <ele>167.617752</ele>
        <time>2020-08-11T13:25:42.868Z</time>
      </trkpt>
      <trkpt lat="43.92792" lon="2.13962">
        <ele>167.314768</ele>
        <time>2020-08-11T13:25:49.845Z</time>
      </trkpt>
      <trkpt lat="43.9279" lon="2.1396">
        <ele>167.297499</ele>
        <time>2020-08-11T13:25:50.133Z</time>
      </trkpt>
      <trkpt lat="43.92781" lon="2.13948">
        <ele>167.185552</ele>
        <time>2020-08-11T13:25:53.653Z</time>
      </trkpt>
      <trkpt lat="43.92765" lon="2.13929">
        <ele>167.013152</ele>
        <time>2020-08-11T13:25:57.841Z</time>
      </trkpt>
      <trkpt lat="43.92742" lon="2.13901">
        <ele>166.750992</ele>
        <time>2020-08-11T13:26:06.067Z</time>
      </trkpt>
      <trkpt lat="43.92729" lon="2.13924">
        <ele>166.57089</ele>
        <time>2020-08-11T13:26:12.387Z</time>
      </trkpt>
      <trkpt lat="43.92715" lon="2.13935">
        <ele>166.975867</ele>
        <time>2020-08-11T13:26:17.327Z</time>
      </trkpt>
      <trkpt lat="43.92707" lon="2.13935">
        <ele>167.195035</ele>
        <time>2020-08-11T13:26:19.083Z</time>
      </trkpt>
      <trkpt lat="43.92689" lon="2.13931">
        <ele>167.657244</ele>
        <time>2020-08-11T13:26:25.340Z</time>
      </trkpt>
      <trkpt lat="43.92684" lon="2.13923">
        <ele>167.856732</ele>
        <time>2020-08-11T13:26:28.105Z</time>
      </trkpt>
      <trkpt lat="43.92683" lon="2.13911">
        <ele>168.092141</ele>
        <time>2020-08-11T13:26:30.713Z</time>
      </trkpt>
      <trkpt lat="43.9269" lon="2.13894">
        <ele>168.453155</ele>
        <time>2020-08-11T13:26:35.914Z</time>
      </trkpt>
      <trkpt lat="43.92724" lon="2.1387">
        <ele>169.460104</ele>
        <time>2020-08-11T13:26:50.581Z</time>
      </trkpt>
      <trkpt lat="43.92729" lon="2.13865">
        <ele>169.62605</ele>
        <time>2020-08-11T13:26:52.616Z</time>
      </trkpt>
      <trkpt lat="43.92702" lon="2.13826">
        <ele>170.668611</ele>
        <time>2020-08-11T13:27:06.665Z</time>
      </trkpt>
      <trkpt lat="43.92705" lon="2.13768">
        <ele>171.587141</ele>
        <time>2020-08-11T13:27:20.670Z</time>
      </trkpt>
      <trkpt lat="43.92708" lon="2.13714">
        <ele>172.179313</ele>
        <time>2020-08-11T13:27:33.211Z</time>
      </trkpt>
      <trkpt lat="43.92709" lon="2.13697">
        <ele>172.367166</ele>
        <time>2020-08-11T13:27:37.491Z</time>
      </trkpt>
      <trkpt lat="43.92705" lon="2.13677">
        <ele>172.590206</ele>
        <time>2020-08-11T13:27:41.850Z</time>
      </trkpt>
      <trkpt lat="43.92704" lon="2.13668">
        <ele>172.69112</ele>
        <time>2020-08-11T13:27:43.918Z</time>
      </trkpt>
      <trkpt lat="43.92692" lon="2.13548">
        <ele>174.030274</ele>
        <time>2020-08-11T13:28:07.816Z</time>
      </trkpt>
      <trkpt lat="43.9269" lon="2.13539">
        <ele>174.053093</ele>
        <time>2020-08-11T13:28:09.154Z</time>
      </trkpt>
      <trkpt lat="43.9267" lon="2.13449">
        <ele>173.824835</ele>
        <time>2020-08-11T13:28:23.398Z</time>
      </trkpt>
      <trkpt lat="43.92662" lon="2.13413">
        <ele>173.731857</ele>
        <time>2020-08-11T13:28:28.975Z</time>
      </trkpt>
      <trkpt lat="43.92651" lon="2.13359">
        <ele>173.596257</ele>
        <time>2020-08-11T13:28:37.054Z</time>
      </trkpt>
      <trkpt lat="43.92625" lon="2.13156">
        <ele>173.189049</ele>
        <time>2020-08-11T13:29:07.849Z</time>
      </trkpt>
      <trkpt lat="43.92619" lon="2.1311">
        <ele>173.103252</ele>
        <time>2020-08-11T13:29:15.267Z</time>
      </trkpt>
      <trkpt lat="43.92622" lon="2.13086">
        <ele>173.060607</ele>
        <time>2020-08-11T13:29:19.186Z</time>
      </trkpt>
      <trkpt lat="43.92627" lon="2.13082">
        <ele>173.044561</ele>
        <time>2020-08-11T13:29:20.632Z</time>
      </trkpt>
      <trkpt lat="43.92631" lon="2.13067">
        <ele>173.016406</ele>
        <time>2020-08-11T13:29:22.978Z</time>
      </trkpt>
      <trkpt lat="43.9263" lon="2.13062">
        <ele>173.010447</ele>
        <time>2020-08-11T13:29:23.979Z</time>
      </trkpt>
      <trkpt lat="43.92626" lon="2.13056">
        <ele>173.023607</ele>
        <time>2020-08-11T13:29:25.233Z</time>
      </trkpt>
      <trkpt lat="43.92621" lon="2.13051">
        <ele>173.03812</ele>
        <time>2020-08-11T13:29:26.574Z</time>
      </trkpt>
      <trkpt lat="43.92618" lon="2.13051">
        <ele>173.045808</ele>
        <time>2020-08-11T13:29:27.312Z</time>
      </trkpt>
      <trkpt lat="43.92616" lon="2.13051">
        <ele>173.052174</ele>
        <time>2020-08-11T13:29:27.893Z</time>
      </trkpt>
      <trkpt lat="43.92612" lon="2.13052">
        <ele>173.060805</ele>
        <time>2020-08-11T13:29:28.736Z</time>
      </trkpt>
      <trkpt lat="43.92608" lon="2.13056">
        <ele>173.073874</ele>
        <time>2020-08-11T13:29:29.880Z</time>
      </trkpt>
      <trkpt lat="43.92606" lon="2.13059">
        <ele>173.080455</ele>
        <time>2020-08-11T13:29:30.435Z</time>
      </trkpt>
      <trkpt lat="43.92604" lon="2.13067">
        <ele>173.094304</ele>
        <time>2020-08-11T13:29:31.737Z</time>
      </trkpt>
      <trkpt lat="43.92594" lon="2.13091">
        <ele>173.143365</ele>
        <time>2020-08-11T13:29:36.463Z</time>
      </trkpt>
      <trkpt lat="43.92585" lon="2.13101">
        <ele>173.173361</ele>
        <time>2020-08-11T13:29:39.140Z</time>
      </trkpt>
      <trkpt lat="43.92582" lon="2.13106">
        <ele>173.183418</ele>
        <time>2020-08-11T13:29:40.150Z</time>
      </trkpt>
      <trkpt lat="43.92562" lon="2.13144">
        <ele>173.267391</ele>
        <time>2020-08-11T13:29:48.329Z</time>
      </trkpt>
      <trkpt lat="43.92512" lon="2.13238">
        <ele>173.471145</ele>
        <time>2020-08-11T13:30:08.185Z</time>
      </trkpt>
      <trkpt lat="43.92492" lon="2.13284">
        <ele>173.559184</ele>
        <time>2020-08-11T13:30:17.201Z</time>
      </trkpt>
      <trkpt lat="43.92487" lon="2.13296">
        <ele>173.582182</ele>
        <time>2020-08-11T13:30:19.697Z</time>
      </trkpt>
      <trkpt lat="43.9248" lon="2.13314">
        <ele>173.616323</ele>
        <time>2020-08-11T13:30:23.171Z</time>
      </trkpt>
      <trkpt lat="43.92477" lon="2.1333">
        <ele>173.642219</ele>
        <time>2020-08-11T13:30:25.786Z</time>
      </trkpt>
      <trkpt lat="43.92461" lon="2.13387">
        <ele>173.743587</ele>
        <time>2020-08-11T13:30:36.198Z</time>
      </trkpt>
      <trkpt lat="43.92447" lon="2.13445">
        <ele>173.843718</ele>
        <time>2020-08-11T13:30:46.164Z</time>
      </trkpt>
      <trkpt lat="43.92445" lon="2.1349">
        <ele>173.95055</ele>
        <time>2020-08-11T13:30:53.392Z</time>
      </trkpt>
      <trkpt lat="43.92437" lon="2.1355">
        <ele>174.109582</ele>
        <time>2020-08-11T13:31:03.272Z</time>
      </trkpt>
      <trkpt lat="43.92426" lon="2.13615">
        <ele>174.283028</ele>
        <time>2020-08-11T13:31:14.440Z</time>
      </trkpt>
      <trkpt lat="43.92425" lon="2.13626">
        <ele>174.312449</ele>
        <time>2020-08-11T13:31:16.306Z</time>
      </trkpt>
      <trkpt lat="43.92422" lon="2.13641">
        <ele>174.353811</ele>
        <time>2020-08-11T13:31:19.208Z</time>
      </trkpt>
      <trkpt lat="43.92406" lon="2.13721">
        <ele>174.694632</ele>
        <time>2020-08-11T13:31:34.312Z</time>
      </trkpt>
      <trkpt lat="43.92403" lon="2.13739">
        <ele>174.841102</ele>
        <time>2020-08-11T13:31:37.832Z</time>
      </trkpt>
      <trkpt lat="43.92403" lon="2.13757">
        <ele>174.98196</ele>
        <time>2020-08-11T13:31:41.324Z</time>
      </trkpt>
      <trkpt lat="43.92407" lon="2.13773">
        <ele>175.115321</ele>
        <time>2020-08-11T13:31:44.311Z</time>
      </trkpt>
      <trkpt lat="43.92413" lon="2.13782">
        <ele>175.214919</ele>
        <time>2020-08-11T13:31:46.739Z</time>
      </trkpt>
      <trkpt lat="43.92422" lon="2.13796">
        <ele>175.372149</ele>
        <time>2020-08-11T13:31:50.737Z</time>
      </trkpt>
      <trkpt lat="43.92437" lon="2.1382">
        <ele>175.620184</ele>
        <time>2020-08-11T13:31:57.009Z</time>
      </trkpt>
      <trkpt lat="43.92434" lon="2.1383">
        <ele>175.711624</ele>
        <time>2020-08-11T13:31:59.458Z</time>
      </trkpt>
      <trkpt lat="43.92404" lon="2.13966">
        <ele>176.702534</ele>
        <time>2020-08-11T13:32:27.178Z</time>
      </trkpt>
      <trkpt lat="43.92393" lon="2.13986">
        <ele>176.819944</ele>
        <time>2020-08-11T13:32:31.542Z</time>
      </trkpt>
      <trkpt lat="43.92389" lon="2.13987">
        <ele>176.849011</ele>
        <time>2020-08-11T13:32:32.939Z</time>
      </trkpt>
      <trkpt lat="43.92381" lon="2.13987">
        <ele>176.899795</ele>
        <time>2020-08-11T13:32:34.708Z</time>
      </trkpt>
      <trkpt lat="43.92257" lon="2.13918">
        <ele>177.676311</ele>
        <time>2020-08-11T13:33:06.985Z</time>
      </trkpt>
      <trkpt lat="43.9225" lon="2.13912">
        <ele>177.676311</ele>
        <time>2020-08-11T13:33:09.116Z</time>
      </trkpt>
      <trkpt lat="43.92245" lon="2.13908">
        <ele>177.676311</ele>
        <time>2020-08-11T13:33:10.161Z</time>
      </trkpt>
      <trkpt lat="43.92245" lon="2.13906">
        <ele>177.676311</ele>
        <time>2020-08-11T13:33:10.558Z</time>
      </trkpt>
      <trkpt lat="43.92245" lon="2.13901">
        <ele>177.676311</ele>
        <time>2020-08-11T13:33:11.359Z</time>
      </trkpt>
      <trkpt lat="43.92243" lon="2.13898">
        <ele>177.676311</ele>
        <time>2020-08-11T13:33:11.896Z</time>
      </trkpt>
      <trkpt lat="43.9224" lon="2.13894">
        <ele>177.676311</ele>
        <time>2020-08-11T13:33:12.930Z</time>
      </trkpt>
      <trkpt lat="43.92236" lon="2.13878">
        <ele>177.676311</ele>
        <time>2020-08-11T13:33:15.700Z</time>
      </trkpt>
      <trkpt lat="43.92231" lon="2.13865">
        <ele>177.676311</ele>
        <time>2020-08-11T13:33:17.993Z</time>
      </trkpt>
      <trkpt lat="43.92233" lon="2.13854">
        <ele>177.676311</ele>
        <time>2020-08-11T13:33:20.323Z</time>
      </trkpt>
      <trkpt lat="43.92235" lon="2.13847">
        <ele>177.676311</ele>
        <time>2020-08-11T13:33:21.987Z</time>
      </trkpt>
      <trkpt lat="43.9224" lon="2.13843">
        <ele>177.676311</ele>
        <time>2020-08-11T13:33:23.789Z</time>
      </trkpt>
      <trkpt lat="43.92247" lon="2.13827">
        <ele>177.676311</ele>
        <time>2020-08-11T13:33:27.705Z</time>
      </trkpt>
      <trkpt lat="43.92233" lon="2.13805">
        <ele>177.676311</ele>
        <time>2020-08-11T13:33:34.053Z</time>
      </trkpt>
    </trkseg>
  </trk>
</gpx>